GFSSE_sfc_thetae_000.txt.gz
Theta_e
323 331 356 355 353 350 347 345 344 343 341 340 338 336 335 333 332 332 332 332 332 332 332 333 334 334 336 336 338 339 340 343 345 347 353 354 354 354 356 355 357 355 359
327 332 355 356 354 350 350 348 347 347 345 341 340 338 338 336 336 336 335 335 336 336 335 335 335 335 335 336 338 338 339 341 344 345 349 352 353 354 355 354 355 354 359
325 335 351 355 354 352 352 351 351 349 347 345 343 341 339 339 338 338 339 339 339 339 339 338 338 337 336 336 338 339 341 341 341 343 344 349 349 353 353 354 355 356 357
330 337 348 356 355 354 353 352 351 351 348 346 344 342 341 342 340 340 340 341 341 342 342 341 340 339 338 337 337 341 343 341 340 342 344 347 349 351 353 353 353 356 356
331 340 346 356 355 354 354 353 352 351 349 348 344 343 343 344 345 345 342 342 341 342 344 343 342 341 340 339 340 342 343 341 340 340 344 347 348 350 352 351 352 353 354
334 341 348 356 355 354 354 353 352 351 350 348 345 344 346 345 345 344 343 343 342 343 341 341 342 343 343 341 343 343 343 341 342 340 343 344 348 347 351 351 352 351 351
334 338 345 355 355 354 354 354 353 352 351 350 347 346 346 345 344 343 343 343 342 342 341 340 341 344 343 342 342 344 342 343 340 341 342 342 344 346 350 352 352 352 350
332 335 343 354 354 354 354 353 352 352 351 350 349 348 346 344 344 343 342 342 342 341 339 339 342 343 344 342 341 343 342 343 339 339 341 342 343 347 350 352 353 353 353
331 336 342 348 352 354 353 352 352 350 350 351 349 345 343 341 338 337 337 338 339 339 338 339 339 341 342 341 341 342 340 340 339 339 340 342 343 347 350 352 352 354 353
331 334 340 345 346 345 348 353 352 352 349 347 344 341 336 335 335 334 335 335 335 336 337 337 338 338 340 341 340 340 339 339 338 338 340 341 344 347 350 351 352 354 354
332 333 336 339 339 340 342 347 351 347 345 343 338 336 337 330 328 330 331 332 333 335 335 336 336 338 339 338 338 338 338 334 336 338 339 341 344 346 349 351 352 353 353
326 329 333 334 335 335 339 337 337 335 333 329 330 329 328 327 326 329 331 332 334 335 336 337 337 337 336 333 333 337 334 332 334 336 339 341 343 345 348 349 351 352 352
325 328 329 330 330 331 332 329 329 327 327 326 328 328 325 325 324 326 327 327 326 330 330 331 331 332 333 331 330 331 331 331 333 336 337 341 343 345 347 349 350 351 352
314 322 324 327 327 327 326 326 326 324 324 323 324 326 323 322 323 323 323 324 325 326 327 328 328 329 330 330 329 329 329 330 332 334 335 339 342 345 346 348 349 350 351
310 313 320 323 324 324 323 323 323 323 323 323 322 323 323 322 322 323 323 324 325 327 326 327 326 327 328 328 329 328 328 328 330 333 335 338 339 345 345 347 349 348 349
310 312 317 321 321 321 321 321 322 322 323 323 322 323 324 323 323 323 323 325 325 324 324 325 325 326 326 327 327 328 328 328 329 331 334 336 338 343 346 345 349 348 349
309 313 318 319 320 321 321 322 322 322 323 322 323 324 325 325 324 324 324 325 323 323 323 323 323 324 325 325 325 327 327 327 328 329 333 335 338 341 344 346 345 347 348
311 314 317 322 321 321 321 321 321 322 322 322 323 325 326 326 325 323 324 323 323 323 322 321 322 322 323 323 324 325 326 327 328 329 332 335 339 341 340 345 342 345 345
313 315 318 321 321 321 319 319 320 322 323 323 324 324 325 326 326 323 323 322 322 321 321 320 320 321 320 321 323 324 325 325 327 331 332 335 338 338 341 342 341 343 345
315 317 320 320 320 320 319 319 320 320 322 323 324 325 326 326 327 324 322 321 321 320 319 318 319 320 321 321 323 324 323 325 327 330 331 335 337 337 338 339 341 343 342
316 317 318 318 319 318 318 317 318 319 320 322 324 326 327 327 325 322 321 321 321 320 319 318 319 319 319 321 319 320 322 326 327 328 332 333 333 333 337 340 341 342 341
316 317 317 318 317 318 317 318 319 319 320 322 324 326 328 327 325 322 321 321 320 319 318 317 318 317 318 320 317 317 315 320 325 328 328 330 332 335 335 339 338 339 338
315 317 317 317 318 318 318 319 319 319 319 320 321 322 323 324 325 324 322 321 320 318 317 317 318 319 317 318 320 319 314 313 319 325 328 329 332 334 334 337 336 336 336
315 317 317 317 318 319 320 318 317 317 316 317 319 320 321 324 324 324 323 321 320 319 317 318 319 321 321 318 320 323 321 322 317 316 325 328 332 332 332 334 333 335 335
316 317 317 317 318 319 320 319 319 317 317 318 318 319 320 322 325 323 322 320 319 319 319 319 319 320 321 320 321 322 322 323 323 322 315 322 327 330 332 334 333 333 333
315 316 317 317 317 318 319 320 319 317 317 316 316 316 317 318 321 321 321 320 320 320 319 320 320 320 320 322 323 324 323 321 319 320 320 321 321 326 331 332 332 332 332

GFSSE_sfc_thetae_003.txt.gz
Theta_e
327 334 356 356 354 352 350 346 345 344 342 341 339 338 336 335 334 334 334 334 333 333 334 334 334 334 335 336 337 337 338 341 345 346 350 353 352 351 355 354 354 356 359
330 335 356 356 355 352 352 350 349 348 346 342 341 339 338 336 336 336 336 336 336 337 337 337 337 336 336 337 337 337 338 338 341 344 344 349 350 353 354 354 354 355 358
329 338 352 357 355 354 353 352 351 349 348 345 343 341 340 339 339 339 339 339 340 340 340 340 340 339 338 337 337 338 339 338 339 342 341 348 349 351 353 354 355 357 355
332 344 346 357 356 355 353 353 352 351 349 348 345 343 342 342 341 341 342 342 342 341 341 344 343 342 341 339 338 339 340 339 338 338 339 341 346 348 352 355 354 357 355
334 344 350 357 356 356 355 354 353 353 351 349 346 345 345 345 345 345 345 343 343 343 342 345 345 344 343 342 341 343 340 339 340 337 339 340 346 347 352 352 353 356 354
335 343 348 356 356 356 355 355 354 354 352 351 348 347 347 348 347 346 345 344 344 344 343 344 343 345 344 344 343 344 343 341 341 338 340 340 342 347 351 351 351 353 351
334 344 346 356 356 356 356 355 354 353 352 351 350 348 348 349 347 345 345 344 344 344 344 343 345 345 345 344 343 343 343 342 341 341 341 341 339 346 350 352 352 352 351
336 342 347 355 356 356 355 355 353 353 353 352 351 350 349 348 346 345 344 344 344 343 343 343 343 344 343 344 343 343 342 343 341 341 341 341 343 345 350 351 354 353 352
339 341 347 350 355 356 354 354 353 353 352 352 351 350 348 345 343 339 338 339 340 341 341 341 340 342 343 341 342 342 341 341 340 342 339 340 344 347 349 351 352 353 351
339 341 344 348 350 350 350 354 354 353 352 351 351 347 344 337 336 336 337 336 336 337 338 339 339 339 341 341 342 341 340 340 339 339 341 340 344 346 348 350 352 352 352
335 340 342 345 349 349 347 349 353 351 350 349 345 343 338 337 336 334 333 334 333 335 336 337 337 338 338 338 339 339 339 337 337 337 338 341 344 345 345 348 350 352 353
333 335 339 345 346 347 345 349 348 346 343 343 342 339 340 340 338 334 333 333 334 336 338 338 338 337 339 335 335 339 336 336 337 336 335 341 343 344 345 347 349 351 352
333 335 336 342 347 347 345 346 346 343 343 342 340 340 339 337 336 335 334 335 336 334 333 334 334 333 336 337 336 334 334 337 336 336 335 340 342 343 344 346 347 349 351
331 334 338 341 344 347 344 343 342 339 339 337 337 340 339 336 336 335 333 335 335 334 335 335 334 335 336 337 336 336 334 335 335 335 333 339 341 343 344 346 347 349 350
330 333 337 341 342 344 344 340 339 338 336 336 337 338 338 337 336 336 335 335 335 333 335 336 334 334 335 336 336 335 334 335 336 335 333 336 340 341 343 344 345 348 349
330 331 333 338 343 342 340 339 337 338 337 337 336 337 338 336 336 335 335 335 338 337 336 336 332 332 332 334 334 335 335 335 335 334 332 337 339 340 342 342 343 345 348
328 328 330 337 341 340 339 338 336 336 337 336 337 338 337 337 337 337 338 336 338 333 336 335 334 334 333 332 332 333 334 335 333 334 335 337 339 340 341 342 341 343 348
328 323 329 331 337 339 338 337 336 336 337 336 336 337 337 338 339 338 337 336 335 335 337 334 334 330 329 330 331 331 332 333 333 334 336 337 341 342 341 341 343 342 345
325 326 328 332 335 337 337 336 337 338 336 336 337 337 338 338 338 337 336 333 335 335 332 333 332 330 328 329 329 330 330 330 333 333 336 338 339 341 342 342 341 341 343
325 329 332 333 336 336 335 334 334 334 335 336 336 337 338 338 337 336 334 331 333 330 329 329 331 330 329 329 328 329 330 331 333 336 335 336 339 339 344 344 344 345 343
325 328 332 334 335 333 330 329 331 331 333 334 336 338 338 339 337 336 333 329 328 329 331 330 329 327 328 331 327 327 329 331 331 334 336 336 337 340 344 345 344 345 344
324 329 333 334 333 333 331 332 334 335 335 335 337 337 338 337 336 335 331 329 328 328 329 329 328 325 327 330 324 323 319 323 329 332 337 338 338 341 341 342 344 346 344
324 328 331 332 333 333 334 333 334 335 334 333 334 335 336 334 334 334 332 330 330 329 328 328 327 325 322 325 329 325 318 314 321 331 333 333 335 337 339 340 343 343 339
324 328 331 332 333 333 334 333 334 331 330 332 333 334 334 333 333 333 332 331 331 330 328 327 326 325 326 324 327 331 330 329 318 319 331 332 335 335 336 339 339 337 341
325 328 330 332 333 334 334 334 333 333 331 332 332 331 332 333 332 330 331 331 330 329 329 328 327 327 331 329 328 326 329 331 331 327 318 327 333 336 336 337 337 336 335
326 328 329 331 332 334 334 334 335 332 330 328 329 329 330 330 330 330 330 330 330 330 329 328 329 329 330 332 332 330 330 327 326 329 322 325 324 330 336 334 336 334 333

GFSSE_sfc_thetae_006.txt.gz
Theta_e
334 345 356 356 354 353 351 348 347 344 343 341 340 339 336 335 334 333 333 333 333 333 334 334 334 334 334 335 336 337 338 340 344 346 348 351 351 351 354 354 356 355 357
336 345 356 355 354 354 352 350 349 348 346 343 341 340 338 337 336 335 335 336 336 337 337 337 337 336 336 335 336 336 337 338 340 343 344 349 349 353 354 354 354 356 357
336 346 354 356 355 354 353 352 351 350 348 345 343 342 340 339 338 338 338 339 339 339 340 341 340 340 338 337 337 337 337 338 339 341 342 345 350 351 354 355 355 356 355
336 347 347 356 355 355 354 353 352 351 349 347 344 343 342 342 341 340 340 341 342 342 342 342 344 343 342 341 339 337 338 339 339 340 336 336 344 351 352 354 355 356 356
338 345 348 356 355 355 355 353 352 352 351 349 345 344 343 344 345 345 342 342 344 344 343 343 345 346 344 343 341 340 338 339 341 340 334 338 341 348 351 353 355 354 355
338 341 349 356 356 355 355 354 354 353 352 351 347 347 345 346 347 347 344 344 345 345 344 344 344 345 343 344 344 343 341 340 340 336 337 340 338 347 348 352 352 354 353
339 342 344 356 356 355 356 355 355 354 353 353 350 348 348 348 349 348 346 346 346 345 345 345 345 346 346 342 342 343 343 342 341 337 338 339 338 344 348 352 352 353 352
338 344 347 356 356 356 356 355 355 354 354 353 352 350 350 350 349 347 346 345 345 345 345 345 344 343 344 342 342 342 342 342 341 339 342 340 342 341 347 349 353 352 351
338 341 347 352 357 356 355 354 354 353 353 352 352 352 351 350 346 344 341 340 340 341 342 342 342 342 342 341 340 341 341 341 341 339 339 342 345 343 347 349 351 351 351
339 339 342 349 351 350 350 355 354 353 353 352 352 351 350 346 341 337 337 338 337 337 338 339 340 340 341 341 340 340 340 341 340 337 339 340 344 343 345 348 351 349 351
337 340 341 344 348 347 344 350 354 353 353 352 349 349 345 339 339 340 338 333 333 334 335 337 337 338 338 339 339 339 340 337 336 336 336 344 340 343 343 345 348 349 349
335 337 340 346 347 347 341 347 352 347 346 344 343 343 343 341 342 338 336 332 334 334 336 338 338 338 337 336 336 339 337 336 335 334 336 342 340 342 343 343 346 348 348
335 337 339 346 350 348 344 345 346 343 344 344 345 343 343 341 341 339 338 337 338 337 335 336 337 337 337 335 336 334 334 333 333 334 338 339 339 341 342 342 345 347 348
332 336 339 342 349 351 344 344 343 341 342 341 341 343 342 339 340 339 337 336 338 335 335 336 335 336 337 337 335 335 333 333 333 333 338 337 338 341 342 342 344 346 347
331 335 339 343 347 349 350 345 343 341 339 339 337 341 342 339 340 339 338 337 337 337 333 335 335 335 335 335 335 335 334 333 334 334 334 337 337 340 341 341 344 345 346
333 336 340 342 349 350 350 348 344 343 340 338 337 340 342 341 340 339 339 340 341 341 337 334 335 333 333 333 335 335 335 333 334 337 335 335 338 340 340 341 344 343 345
334 337 341 344 348 351 350 347 343 340 338 336 338 343 342 343 342 342 344 344 342 346 342 337 335 335 332 332 333 335 335 336 335 335 335 333 336 340 340 341 342 341 342
336 336 340 339 345 350 350 346 340 337 336 336 339 340 342 343 342 344 343 341 343 342 339 334 335 331 330 330 331 333 334 334 334 334 333 333 335 338 340 342 342 341 344
337 338 338 339 342 348 350 344 342 341 337 337 338 339 341 342 342 344 342 342 341 335 335 337 334 333 331 329 331 333 335 331 332 332 332 336 339 339 337 342 342 342 343
336 339 337 338 345 348 345 342 337 337 337 338 338 339 341 342 341 342 341 339 334 333 336 335 334 334 331 330 331 330 332 331 331 331 332 335 339 339 340 341 343 343 344
334 335 336 338 348 345 339 334 333 332 335 335 337 341 342 341 341 341 339 337 337 333 330 333 334 332 331 332 331 330 330 332 333 331 333 335 338 339 342 342 343 346 345
333 335 337 340 343 342 337 337 334 334 333 336 339 341 342 341 340 339 338 337 334 329 332 333 331 331 331 332 328 327 320 325 328 331 333 336 338 340 340 342 344 345 348
332 335 337 341 341 340 340 337 338 338 338 334 335 336 339 339 338 338 337 335 334 335 334 333 332 329 326 330 332 328 320 316 321 329 334 335 338 342 341 343 344 345 347
331 335 339 339 338 338 339 337 336 329 328 333 334 337 336 336 335 335 336 334 335 334 333 332 331 331 330 328 331 329 331 331 318 319 334 335 337 339 340 343 345 341 338
333 335 337 338 338 338 338 338 333 333 332 334 334 334 336 337 335 333 334 334 333 332 333 332 330 331 331 330 326 327 329 328 329 321 323 329 337 339 341 344 342 343 341
333 334 336 336 337 338 337 337 337 336 333 332 332 331 331 334 333 333 332 333 334 334 332 331 332 331 333 333 332 329 330 328 323 330 330 330 331 335 340 341 339 338 335

GFSSE_sfc_thetae_009.txt.gz
Theta_e
340 349 356 355 353 352 351 347 347 344 343 341 340 338 337 336 334 333 333 333 333 333 333 333 334 333 334 334 335 336 337 339 343 346 347 351 351 351 353 354 357 356 358
341 349 355 354 354 353 352 350 349 348 346 343 341 340 338 337 335 335 334 335 335 335 336 336 337 337 336 336 337 337 338 338 339 343 344 347 352 353 353 355 355 354 356
341 348 351 355 355 354 353 352 351 349 347 345 343 341 340 338 337 336 336 337 338 338 339 340 341 340 339 338 337 338 338 338 340 340 341 341 348 354 354 355 354 354 355
342 350 347 355 355 355 354 353 352 351 348 346 344 343 341 341 340 339 339 339 341 341 341 341 343 344 343 342 340 339 339 339 340 341 335 328 334 356 354 353 355 354 354
342 350 349 355 354 355 355 353 352 351 350 348 345 344 344 343 343 343 341 341 341 343 344 343 343 345 346 344 343 342 340 340 341 340 334 330 336 348 352 352 354 354 355
340 349 354 355 355 355 355 354 353 352 351 350 347 346 345 345 347 347 343 343 343 344 346 345 345 345 345 344 344 344 343 341 340 336 334 336 338 349 349 351 352 355 353
339 344 353 355 355 355 356 355 354 353 353 352 349 347 346 348 349 348 346 346 346 347 347 346 347 345 344 343 342 343 343 344 341 340 335 338 338 344 344 348 352 352 353
339 342 347 356 355 355 355 355 354 354 353 353 352 351 349 350 350 349 347 347 346 346 345 345 344 344 343 342 342 341 341 341 340 340 340 342 343 341 341 346 350 351 353
338 339 341 355 357 356 355 354 354 354 354 353 353 352 351 350 350 348 346 344 342 341 341 342 342 343 342 342 341 341 341 341 339 338 339 343 346 341 338 345 350 350 352
338 338 341 346 355 353 351 355 355 355 354 353 352 352 351 349 348 346 341 339 338 337 338 338 339 341 341 342 342 341 341 340 339 337 338 341 344 340 338 342 349 349 350
334 339 339 341 347 350 346 349 355 354 354 353 351 351 349 343 341 343 343 337 336 335 335 336 337 338 339 340 341 341 341 336 335 335 334 346 343 342 340 340 344 348 349
332 335 338 348 345 348 343 348 353 349 349 348 345 343 347 343 342 340 342 335 335 335 335 337 339 340 339 337 337 341 337 334 333 333 334 346 343 340 339 342 342 346 347
331 335 338 350 354 350 345 344 350 347 346 345 345 347 348 342 344 342 340 340 340 337 338 337 338 338 336 338 335 337 336 334 333 335 339 343 341 340 339 341 342 344 347
332 333 340 343 353 357 346 341 344 345 345 343 344 349 345 340 343 343 338 339 343 338 338 336 335 341 336 337 336 335 336 335 332 333 337 340 339 338 338 341 342 344 347
332 334 337 346 354 356 358 344 346 346 342 345 342 344 343 340 344 341 343 339 339 337 337 340 339 339 340 337 334 335 334 334 337 334 334 339 337 337 339 341 342 343 346
333 335 337 345 355 356 353 357 353 354 346 342 340 340 343 343 343 339 340 341 344 343 338 337 337 337 335 333 335 336 336 334 334 337 334 337 339 339 339 342 342 344 346
334 337 347 351 354 358 358 356 350 345 343 340 339 345 342 345 345 343 339 344 344 343 342 339 339 338 333 334 335 333 334 337 336 337 337 334 336 340 342 341 341 344 344
338 341 347 341 352 358 357 354 348 343 342 338 338 340 344 344 343 341 341 344 346 344 343 340 335 334 334 330 331 335 333 335 335 336 333 335 333 337 340 343 342 344 343
341 346 345 350 348 356 358 351 351 353 341 338 338 339 341 342 342 343 342 343 345 343 339 337 336 339 334 332 332 335 333 333 334 332 335 334 338 336 336 341 344 344 344
344 349 350 349 354 358 352 354 345 340 339 338 338 338 340 341 341 343 342 341 342 338 336 337 337 336 336 336 329 333 334 333 333 332 335 333 334 336 339 342 340 338 344
339 343 348 348 353 351 347 343 339 336 338 337 338 340 341 341 343 342 340 339 339 339 338 336 335 329 333 336 333 330 334 333 334 331 332 331 334 336 339 338 341 342 343
337 341 342 344 353 352 348 346 341 340 336 336 337 341 341 340 341 341 339 337 338 339 335 333 333 331 331 336 328 329 322 327 329 330 331 333 335 336 336 338 340 344 348
337 339 340 342 348 351 350 345 343 340 338 335 334 336 339 339 339 339 338 337 337 336 334 335 334 331 329 331 332 330 321 316 321 329 331 332 336 338 339 340 342 343 347
336 339 341 344 347 347 348 343 347 335 330 332 336 335 336 336 336 336 337 336 337 336 335 334 334 332 331 328 333 335 333 331 320 318 328 336 340 340 341 342 347 345 346
337 339 343 344 343 344 346 346 336 338 333 333 333 335 338 339 336 333 335 335 335 338 335 334 332 331 335 333 332 331 329 327 326 327 319 326 337 342 340 347 344 345 344
337 340 340 339 340 340 339 339 341 336 334 331 332 332 335 335 334 334 333 334 335 335 334 335 333 333 335 335 337 330 326 325 323 321 329 331 330 335 342 344 342 337 338

GFSSE_sfc_thetae_012.txt.gz
Theta_e
342 347 356 355 353 352 351 348 348 346 346 344 340 339 340 340 338 336 334 334 333 332 332 332 333 333 334 334 334 335 336 336 340 346 349 351 352 351 355 356 356 353 358
346 348 355 354 353 352 351 350 349 347 347 345 343 342 341 340 337 336 335 335 334 334 335 335 336 336 336 335 335 335 336 338 338 339 343 347 352 355 356 356 354 354 355
346 349 350 354 353 352 352 351 350 349 347 347 345 343 341 340 337 336 336 336 336 337 338 339 339 340 340 338 338 337 338 342 343 342 340 336 339 355 355 356 354 354 354
348 349 347 354 354 353 353 352 351 350 349 348 347 345 342 341 340 338 338 338 338 340 340 340 341 344 344 343 341 340 340 343 343 341 336 331 326 354 353 355 354 355 354
348 349 347 354 354 354 354 352 351 350 350 349 348 346 344 343 343 343 341 340 340 341 343 343 343 343 346 346 344 344 344 343 341 339 333 331 330 345 355 353 352 354 354
349 348 353 354 354 354 354 353 352 351 351 350 349 348 347 346 347 347 344 343 342 343 344 346 346 347 347 346 345 345 346 344 341 336 333 334 333 352 352 352 350 354 353
342 350 353 354 354 355 355 354 353 352 351 351 350 349 348 348 348 348 347 345 346 346 347 346 347 347 346 345 345 344 344 344 340 337 339 335 335 348 348 349 349 352 353
338 347 354 354 354 354 354 354 353 352 352 352 351 351 350 350 350 349 349 348 347 346 346 345 345 344 343 344 343 345 343 342 338 338 339 340 345 347 345 347 349 350 351
337 341 354 353 353 355 354 354 353 353 352 352 352 352 352 351 350 350 349 346 345 344 343 342 342 343 343 343 345 344 342 342 337 335 337 338 346 345 340 344 347 349 350
333 338 352 353 353 351 350 355 354 354 354 353 353 353 352 350 349 350 349 345 343 340 339 339 339 340 342 344 344 344 342 342 338 334 334 338 346 344 339 341 345 348 349
330 338 343 352 353 351 347 350 355 355 354 354 352 352 350 344 341 344 346 343 342 340 339 337 336 337 339 340 342 342 342 337 334 334 333 345 348 345 341 342 343 346 348
329 332 338 348 352 350 345 346 351 351 351 350 348 346 346 343 345 342 342 342 341 339 336 336 337 339 339 335 334 340 337 336 333 331 332 347 346 344 343 342 342 344 347
329 334 336 346 349 349 345 346 350 347 347 347 347 346 346 347 345 342 340 340 338 338 334 335 335 336 336 335 336 336 336 335 333 330 340 346 345 344 342 342 342 344 347
330 333 345 343 348 348 346 346 350 348 346 345 345 347 346 346 344 343 340 341 338 339 336 336 334 337 336 335 334 333 334 334 330 330 340 345 344 342 341 341 342 343 347
333 336 344 345 347 349 353 343 347 348 346 345 345 347 345 342 342 345 343 343 343 341 338 339 337 335 336 333 333 334 333 334 334 332 336 344 342 342 340 340 342 342 344
341 339 346 346 347 350 345 352 347 351 346 345 344 346 345 343 344 344 344 342 343 344 339 337 334 335 332 335 335 333 334 334 334 335 335 337 341 341 341 340 341 342 343
339 341 348 351 350 350 348 349 355 349 350 345 346 349 344 345 346 345 342 342 344 342 339 337 335 333 331 334 333 333 334 334 335 334 333 335 335 340 340 341 342 342 343
344 342 351 337 351 351 351 349 351 347 347 344 345 345 345 347 346 345 341 341 343 342 340 337 335 333 331 332 331 331 331 333 334 331 333 333 333 333 339 342 344 344 344
344 348 349 348 350 352 354 353 351 355 347 347 343 342 344 344 344 342 341 342 343 340 337 335 334 333 331 330 331 331 329 330 332 332 332 331 332 335 336 339 342 343 346
345 348 351 351 354 353 353 354 350 350 348 346 344 344 346 344 344 343 342 342 341 338 336 334 332 333 332 330 332 329 329 331 331 330 331 332 331 334 335 336 335 338 344
343 351 355 353 356 351 348 346 345 341 342 344 345 346 343 344 344 343 341 340 339 336 334 334 331 329 329 330 326 326 327 329 330 331 330 331 330 331 333 337 335 333 338
344 351 352 354 354 350 349 348 347 343 340 340 343 344 344 343 344 339 340 338 338 335 333 331 330 327 328 327 321 322 317 321 327 330 328 329 329 330 333 335 335 337 337
343 346 347 349 350 351 352 349 351 347 343 341 342 342 342 342 341 339 339 337 335 334 331 331 331 328 325 327 326 320 315 313 319 325 328 327 327 331 333 332 334 337 339
340 343 344 346 351 350 352 347 342 336 336 338 339 339 340 340 337 337 338 336 336 334 333 331 333 330 327 322 326 327 326 323 315 314 323 326 328 330 330 333 334 337 339
339 341 343 347 348 349 348 344 341 340 341 341 339 340 340 340 338 336 336 336 334 334 334 332 331 329 329 326 324 324 324 323 323 319 315 320 327 331 332 331 333 335 339
339 341 345 345 345 343 343 343 342 343 340 336 336 336 337 337 337 336 334 333 334 334 334 333 332 330 328 327 326 326 323 320 319 319 317 319 320 326 330 332 333 334 335

GFSSE_sfc_thetae_015.txt.gz
Theta_e
342 349 357 356 354 353 351 347 347 346 345 344 341 339 339 339 338 335 334 334 334 333 332 332 333 333 333 333 333 334 335 336 336 340 346 349 353 357 356 355 358 354 359
343 350 356 355 353 353 351 349 348 348 347 345 343 340 339 338 336 336 335 335 334 334 334 335 336 336 335 334 335 335 335 340 338 337 337 341 346 353 353 353 356 354 358
343 348 351 354 353 352 352 351 349 348 347 346 345 342 341 340 338 337 337 336 336 336 337 337 338 339 339 338 337 337 338 342 342 338 338 332 334 344 353 354 353 356 356
343 346 347 354 353 352 352 350 349 349 348 347 346 343 341 341 340 338 338 337 337 338 339 339 340 341 343 343 341 340 340 341 343 339 334 334 331 341 356 354 354 354 354
343 344 346 354 353 353 352 351 350 349 349 349 346 345 343 343 344 343 341 340 340 340 342 342 342 342 343 346 345 345 344 341 340 338 333 330 326 336 355 354 354 354 353
343 342 351 353 353 352 352 351 351 350 350 349 349 346 345 345 347 346 343 342 342 342 342 344 346 347 345 346 345 346 345 343 342 335 332 332 333 352 353 353 353 353 352
341 340 348 353 354 353 353 353 351 351 350 350 350 349 348 349 348 348 345 344 344 345 346 346 346 346 345 345 345 346 345 344 340 336 335 336 334 350 354 352 352 353 353
341 341 346 352 354 353 353 353 352 351 351 351 350 350 350 350 350 348 347 346 347 347 347 346 345 345 346 344 345 346 346 343 338 335 336 336 345 350 351 352 352 352 352
342 344 346 346 351 355 353 352 352 351 351 351 350 350 350 350 350 350 350 350 348 347 345 344 343 343 344 344 344 345 345 343 335 333 332 333 347 348 346 347 349 350 351
342 345 345 345 345 346 348 354 353 352 351 351 350 350 351 351 350 350 348 349 346 345 343 343 340 340 340 344 345 345 343 343 335 334 332 331 347 347 344 345 347 349 349
338 345 345 345 344 343 344 350 353 354 352 352 351 351 349 343 342 343 346 348 346 344 343 342 340 338 338 340 341 343 343 334 334 334 332 338 347 347 344 346 346 348 348
317 342 345 345 344 343 343 344 347 348 348 348 347 346 343 339 333 338 342 349 346 346 344 341 339 338 337 332 332 339 336 335 333 330 331 341 345 346 344 344 345 347 348
317 330 344 345 345 344 342 343 345 345 346 346 344 342 341 338 335 337 333 338 335 342 332 334 332 332 332 332 330 331 335 334 333 332 332 342 345 346 344 344 343 344 347
317 318 342 345 345 343 341 341 343 342 343 343 342 339 339 337 335 333 332 333 331 330 329 329 329 330 331 333 332 332 335 333 334 332 330 344 344 346 344 343 343 343 346
317 321 335 343 345 343 337 341 342 341 341 341 341 339 337 336 332 331 331 331 331 331 330 331 329 331 332 330 328 328 330 331 334 332 333 344 343 343 343 343 343 343 342
318 320 331 339 343 342 338 341 342 342 341 340 340 340 338 335 331 333 334 333 331 332 330 329 329 329 327 328 329 329 329 329 330 329 335 336 342 341 343 342 342 343 343
322 322 333 335 338 340 339 337 341 342 341 339 337 339 339 336 333 334 332 331 332 332 331 329 329 329 327 327 330 328 328 331 330 330 332 331 334 341 341 341 343 343 343
322 323 329 339 339 340 338 340 339 341 340 338 337 340 339 336 335 334 331 330 333 333 331 329 327 327 326 325 326 326 326 326 330 330 329 330 330 332 339 340 342 343 344
324 322 331 337 340 340 339 338 340 339 336 335 334 334 339 338 338 333 332 330 333 331 330 329 328 327 324 324 325 325 325 326 327 328 327 329 327 329 331 339 340 343 344
321 328 329 332 341 342 344 339 340 340 335 334 332 333 336 337 337 334 332 331 332 330 329 328 326 326 325 324 327 327 325 326 328 326 328 329 326 328 331 331 332 336 343
321 326 330 335 342 345 342 340 337 335 332 332 333 336 336 336 335 333 331 331 330 327 326 326 325 323 321 322 319 319 321 324 324 324 324 325 328 327 327 331 332 333 334
321 331 336 341 343 343 343 340 337 334 331 331 333 332 334 333 332 333 331 331 327 326 325 324 323 320 320 320 316 318 315 317 321 324 323 324 324 325 327 331 331 331 331
333 336 340 343 342 340 342 341 336 331 331 329 329 331 332 333 332 331 329 328 327 326 323 322 322 320 315 318 319 316 313 311 313 318 322 325 322 325 326 327 332 334 334
333 336 336 340 341 341 341 337 333 328 325 327 326 329 332 331 331 330 329 328 326 324 323 322 324 320 318 315 318 322 321 320 312 309 317 320 324 323 324 325 326 331 332
333 333 335 339 338 340 337 333 328 327 328 328 328 327 327 327 329 329 328 327 325 325 323 323 322 321 320 317 316 316 318 320 320 316 309 314 320 326 325 325 325 328 334
334 335 337 336 335 335 334 330 328 328 326 326 325 325 326 326 326 326 327 325 325 324 324 324 322 322 323 321 319 318 316 315 317 315 311 312 314 318 321 324 324 326 331

GFSSE_sfc_thetae_018.txt.gz
Theta_e
341 348 358 357 355 354 352 349 347 346 346 345 342 339 339 339 337 335 334 333 333 333 333 333 333 332 332 332 332 332 332 331 332 334 340 346 349 348 354 356 356 353 358
342 350 357 355 354 353 352 350 349 347 347 345 342 340 338 337 336 335 335 334 333 333 334 335 335 335 334 334 334 334 334 334 333 334 334 337 340 344 351 353 354 352 358
343 349 352 354 354 353 351 350 349 348 347 346 343 340 339 338 337 336 336 335 335 335 336 336 336 337 338 337 336 336 336 337 337 336 336 330 332 337 347 352 354 354 358
345 347 348 354 354 353 351 350 349 348 347 346 344 341 339 339 338 338 337 337 337 337 337 338 338 339 341 342 341 340 338 338 339 339 333 333 332 338 342 353 353 354 353
344 346 347 354 353 353 351 350 348 348 348 347 344 343 342 341 342 341 339 339 339 340 341 341 341 341 341 344 345 343 342 340 339 338 332 329 327 334 345 354 354 354 353
343 344 351 353 352 352 352 350 349 348 349 348 346 345 344 343 344 343 341 341 341 341 342 343 345 345 344 344 345 346 344 343 342 335 332 333 334 340 355 355 354 355 352
339 342 349 353 352 352 352 351 350 349 349 349 349 347 346 347 346 344 343 343 343 343 344 345 346 347 345 345 345 345 345 345 340 336 334 334 334 342 353 354 354 354 353
338 339 346 353 352 351 352 351 350 349 349 349 350 349 349 349 348 346 345 344 345 346 347 347 347 346 345 345 345 346 346 344 340 335 334 334 339 347 351 353 353 352 351
338 339 343 346 349 352 351 350 350 349 349 349 349 349 349 349 349 349 348 347 347 348 348 346 345 344 344 344 344 346 345 344 336 333 333 331 343 350 348 350 351 352 353
337 339 339 340 343 345 346 352 350 349 349 348 349 349 349 350 349 349 347 349 348 348 347 346 344 341 341 342 343 344 343 343 336 333 333 330 341 346 345 346 348 350 350
337 339 340 339 339 342 342 347 350 351 350 349 349 349 347 344 344 344 347 347 349 349 347 345 343 341 339 339 340 342 343 335 333 333 333 337 340 343 346 347 346 347 349
333 339 341 341 338 339 340 341 345 344 344 344 343 343 342 340 338 342 343 349 349 349 346 344 343 340 336 330 331 338 335 334 333 332 331 340 340 341 346 346 345 345 348
328 339 341 341 340 337 335 338 343 342 342 342 341 341 341 339 335 335 333 340 342 345 337 340 336 332 330 330 330 328 331 333 333 333 335 340 340 342 344 346 344 344 347
316 336 341 341 340 339 336 336 340 340 341 341 341 340 339 333 330 330 330 331 331 332 330 327 326 328 329 331 330 329 330 333 331 332 331 339 342 343 346 344 343 343 344
315 317 339 341 340 340 338 338 338 338 340 341 340 339 338 334 332 331 330 329 329 328 328 326 327 328 328 328 330 330 330 332 332 331 327 337 342 345 345 342 344 343 343
316 316 334 340 341 341 339 337 338 338 337 338 339 338 337 335 333 331 329 328 329 328 328 328 327 327 327 327 327 326 328 328 327 330 331 333 344 343 343 343 343 343 343
317 318 328 338 341 340 338 336 338 338 339 338 337 337 337 335 332 331 330 331 329 329 328 327 327 326 326 327 327 328 326 327 328 327 330 333 335 342 342 343 343 342 343
315 317 324 337 340 339 338 336 339 339 339 338 336 337 337 336 333 331 331 328 330 330 328 327 325 324 324 324 323 324 326 326 327 327 326 332 329 331 338 341 341 341 343
319 319 322 331 335 337 337 335 338 338 339 337 336 337 337 336 335 333 331 329 330 329 328 327 326 324 322 322 323 323 324 324 324 327 326 328 327 328 328 336 340 340 343
318 317 320 332 333 335 333 335 334 334 333 334 335 337 336 336 336 332 330 329 329 328 327 326 325 324 323 321 324 324 322 325 324 324 324 326 326 329 327 328 332 333 341
316 318 321 330 332 336 335 336 335 333 331 330 332 335 335 335 335 330 330 329 329 327 325 325 323 322 320 320 317 317 318 323 325 323 325 324 325 325 327 329 328 328 331
316 316 323 329 337 338 338 337 335 332 329 330 330 333 333 334 333 331 329 328 327 324 324 321 322 318 318 319 315 314 312 317 321 324 322 323 322 324 324 327 329 330 330
315 320 327 333 338 339 336 335 331 329 327 326 327 329 330 332 332 331 328 327 325 324 321 320 320 318 315 316 317 314 309 308 313 318 322 322 322 321 322 324 329 330 332
322 331 335 336 337 337 338 336 333 327 324 325 326 326 328 330 330 330 328 326 324 322 320 321 322 319 316 313 315 318 316 315 312 310 315 320 321 321 321 323 325 329 331
331 334 337 337 338 337 335 333 330 326 324 325 326 326 324 325 327 328 327 325 323 322 321 321 321 319 317 315 313 314 315 318 319 315 307 313 318 319 320 323 323 326 330
332 336 336 337 333 334 332 328 328 325 325 324 323 324 323 324 326 325 326 323 322 322 321 323 322 320 318 317 316 315 315 313 316 316 310 309 312 316 320 322 321 324 327

GFSSE_sfc_thetae_021.txt.gz
Theta_e
337 348 358 356 354 353 351 349 348 348 347 346 343 341 340 340 338 336 335 334 334 333 333 333 332 332 332 331 332 332 332 331 331 334 337 343 347 350 351 353 355 352 356
339 350 358 357 354 352 351 349 349 349 347 345 343 340 339 338 336 335 334 334 334 333 334 334 334 334 333 332 333 333 333 333 333 332 333 335 338 343 350 351 351 352 355
341 349 353 356 354 353 352 350 349 348 347 345 342 340 338 338 336 336 335 334 334 334 335 336 337 337 337 336 336 335 335 335 335 334 333 329 331 336 339 351 352 352 355
344 348 349 355 354 353 352 350 349 348 347 345 343 340 339 338 338 337 336 336 336 337 338 337 337 337 339 340 340 339 338 338 338 337 331 332 331 337 339 349 352 352 353
344 347 347 354 354 353 352 351 349 348 348 346 343 342 341 340 340 339 338 338 338 338 339 340 340 340 340 341 344 343 342 340 339 337 330 328 327 334 342 343 354 353 352
343 345 349 353 354 353 352 351 349 348 348 347 346 344 343 342 343 342 339 340 340 341 342 342 343 343 343 343 343 345 345 344 342 334 332 332 334 339 347 354 353 355 351
341 343 346 353 353 353 352 351 349 348 348 347 347 346 344 345 344 342 341 342 341 342 342 343 344 345 346 345 345 345 345 345 339 336 334 333 333 341 349 355 354 354 354
339 340 345 352 353 352 352 351 349 348 348 348 348 347 347 346 346 343 343 343 343 343 344 345 346 347 347 346 345 345 345 345 340 336 334 333 336 342 347 352 353 352 352
337 338 343 345 349 353 351 350 349 348 348 348 348 347 348 348 347 346 346 344 344 345 346 346 347 346 345 345 344 344 344 344 337 333 333 330 337 344 348 350 351 351 352
332 335 339 342 343 343 345 351 350 349 348 348 348 348 348 349 349 348 347 347 345 347 348 348 346 344 343 342 342 342 343 343 336 333 332 331 338 341 346 348 349 351 352
334 331 336 338 340 339 341 345 350 350 350 349 348 348 346 342 343 342 346 345 346 348 347 347 345 344 341 340 340 341 341 334 333 333 332 337 340 340 344 347 347 348 349
332 333 336 336 336 337 338 338 343 342 342 343 341 340 341 337 337 341 343 346 346 348 347 346 345 342 340 329 330 337 332 333 332 332 332 340 341 340 341 344 344 345 347
332 334 337 337 334 335 334 335 341 341 340 341 339 336 337 337 336 339 333 336 339 346 339 340 338 336 329 328 328 328 329 331 331 332 335 340 340 340 341 343 344 344 345
319 332 337 338 336 333 333 333 335 338 338 339 339 337 338 335 331 330 330 329 335 335 335 331 330 328 328 329 329 329 328 328 330 332 333 340 340 341 341 343 344 342 345
311 321 334 338 337 336 331 330 333 336 335 337 338 339 338 334 332 328 327 328 329 330 330 327 325 325 325 326 328 329 329 329 332 330 330 338 340 342 341 342 344 343 342
315 313 328 337 338 338 334 330 331 335 334 336 338 338 337 334 330 328 327 328 327 327 327 327 325 325 325 326 326 327 327 326 329 330 330 329 338 341 344 347 344 341 341
316 316 320 335 338 337 336 334 332 333 334 335 337 338 337 333 330 329 329 329 327 328 327 325 325 325 324 324 325 326 325 326 326 327 327 330 331 342 341 342 343 343 341
314 314 315 331 336 337 337 336 335 335 334 334 336 336 335 334 333 331 331 330 330 327 326 325 324 324 327 322 322 322 324 325 325 326 327 327 329 333 339 342 343 343 342
315 315 314 324 334 336 337 336 335 335 336 335 334 335 335 334 333 332 329 329 328 327 326 325 323 322 320 320 322 322 322 322 323 325 325 325 327 331 328 337 340 339 341
313 314 315 325 333 335 335 330 331 332 335 334 334 335 336 334 334 331 330 328 327 326 326 324 324 322 322 320 322 323 321 322 322 322 323 325 326 328 327 327 328 332 339
313 314 315 324 327 332 331 330 329 332 331 332 334 336 335 334 334 333 329 327 327 326 326 324 322 321 321 323 320 315 316 319 320 323 323 323 324 325 325 326 326 328 330
314 314 314 321 327 332 333 334 330 333 329 329 332 334 335 335 334 331 328 327 326 325 323 322 320 317 318 319 314 311 309 313 318 322 323 322 322 324 324 326 327 327 327
311 313 315 321 329 331 331 330 327 327 327 325 328 330 331 332 332 330 328 327 325 324 322 320 319 318 316 314 315 312 306 305 313 319 322 323 322 319 321 322 325 327 328
311 311 316 323 330 332 332 330 329 326 326 323 329 326 327 330 330 329 328 326 324 322 320 319 320 318 316 313 313 316 313 313 310 309 317 321 322 319 319 322 323 326 328
311 324 328 331 333 333 331 330 327 324 323 324 326 324 328 325 328 328 328 326 322 320 320 320 319 317 317 315 313 312 312 313 315 313 310 313 319 318 318 320 321 323 326
331 331 332 333 331 331 331 328 327 324 324 324 324 323 322 322 325 328 325 323 321 320 320 320 320 319 318 316 314 313 313 311 313 315 312 309 312 315 321 320 319 321 323

GFSSE_sfc_thetae_024.txt.gz
Theta_e
334 349 359 357 355 355 354 351 351 351 351 351 350 348 347 347 345 342 340 338 337 336 334 333 333 333 333 333 333 333 333 331 332 335 338 341 345 349 350 350 351 351 356
337 351 358 357 355 353 353 352 351 350 349 348 347 345 343 342 339 338 336 335 335 335 335 334 334 333 333 333 334 334 333 333 332 332 332 335 338 341 348 351 351 352 352
340 350 354 356 355 354 352 352 351 350 348 346 345 344 342 342 339 337 337 335 335 334 335 336 336 337 336 336 335 334 335 335 334 334 333 333 332 336 337 349 351 353 354
343 349 350 356 355 354 353 351 350 349 348 346 345 344 343 342 341 337 336 336 335 335 336 337 337 338 338 339 338 337 337 336 336 336 335 334 332 335 339 341 351 353 353
343 347 347 356 355 354 353 351 350 349 348 347 345 345 344 343 342 341 338 337 337 338 338 338 338 338 338 340 342 342 341 339 338 337 334 333 331 334 342 344 350 354 353
342 345 349 355 354 354 354 352 350 349 348 347 346 346 345 343 343 342 339 339 339 339 340 340 341 341 341 341 341 343 345 344 342 338 336 335 337 338 344 349 346 354 353
341 343 346 355 354 354 354 352 351 350 348 348 347 346 345 345 344 342 340 340 341 342 342 343 343 344 345 345 345 345 344 345 343 340 338 338 337 340 345 352 352 352 353
340 341 343 353 353 353 353 352 350 349 349 348 347 347 346 346 345 343 342 342 342 343 343 343 344 345 348 346 346 345 345 345 343 340 339 338 337 341 346 353 353 351 353
338 339 340 346 350 354 352 351 349 349 348 347 347 346 347 346 346 345 345 344 343 345 345 345 347 347 346 345 345 344 344 345 342 339 336 335 336 340 346 350 351 351 351
333 337 337 342 345 345 346 352 350 349 348 348 348 347 347 348 347 347 345 346 345 346 346 346 346 346 344 343 343 342 342 342 342 338 337 336 339 340 343 347 349 351 350
332 331 334 338 340 342 342 345 350 350 350 349 348 348 346 342 343 343 345 346 346 348 347 348 347 346 342 341 340 340 340 338 338 337 337 338 341 341 341 345 347 348 350
331 332 332 336 338 338 339 339 343 342 343 343 343 343 342 340 340 342 344 346 346 347 348 347 347 344 341 336 333 336 335 336 336 336 336 340 341 341 340 341 343 345 348
332 333 333 334 336 336 336 335 339 341 340 341 341 340 341 339 340 342 338 341 341 345 343 345 343 340 336 332 331 331 331 333 335 336 337 340 341 341 341 340 342 345 346
316 331 334 334 334 334 334 333 334 338 338 338 339 338 338 337 336 337 335 333 335 339 340 338 336 335 334 332 331 331 331 331 332 333 335 339 340 341 341 340 342 344 345
313 318 329 335 334 333 332 331 332 334 335 335 337 338 337 336 334 334 333 330 331 334 336 334 332 331 330 329 330 331 331 332 333 333 334 337 340 340 342 341 343 343 343
313 313 318 333 336 335 331 331 330 331 334 333 335 338 337 335 333 331 330 329 329 330 333 333 330 329 328 329 329 330 331 331 331 334 334 334 337 339 342 342 343 344 342
314 314 313 325 335 335 334 331 329 330 332 332 333 337 337 335 331 331 329 328 329 330 330 329 329 329 328 328 328 330 330 330 330 330 331 333 333 337 340 343 343 342 341
312 312 313 321 332 335 335 334 331 330 331 332 333 336 337 334 332 330 328 328 329 330 329 329 328 327 328 328 327 328 329 329 329 330 330 330 332 335 337 342 342 341 341
312 313 313 317 327 333 335 336 334 332 331 332 334 336 337 334 333 331 330 331 332 331 329 328 327 328 327 326 326 327 327 328 328 328 329 330 331 336 335 339 341 341 342
312 312 312 313 321 330 333 333 331 331 333 333 333 335 335 335 334 332 331 331 331 329 328 328 328 327 327 325 325 325 325 326 327 327 328 328 330 332 334 332 337 337 340
312 312 313 313 320 331 331 329 328 330 331 332 334 334 334 334 334 332 331 330 329 329 329 329 327 326 325 326 322 321 321 324 325 326 328 328 328 330 331 329 332 333 334
312 313 313 314 324 331 332 330 330 330 330 332 333 335 335 335 334 333 331 330 329 328 328 327 325 322 323 324 320 316 315 319 321 325 327 327 327 329 330 331 331 332 333
309 311 313 314 323 329 330 329 327 327 327 327 330 332 334 335 334 333 331 330 328 329 327 325 324 323 321 319 320 318 312 311 314 322 324 326 326 326 329 329 330 332 333
309 309 311 314 322 328 330 329 328 324 323 325 329 330 332 334 333 332 330 329 328 327 325 324 324 322 321 318 318 319 318 317 314 313 319 321 325 324 325 327 330 331 332
309 308 311 317 327 329 330 329 327 325 323 326 327 328 329 329 331 330 329 329 328 326 325 323 323 321 321 320 318 316 317 318 319 317 313 316 320 322 325 326 328 330 332
329 328 329 328 328 329 329 327 325 324 325 325 325 325 325 326 327 328 329 328 326 324 323 323 324 322 321 320 319 318 318 317 316 318 315 313 315 320 324 326 326 328 330

GFSSE_sfc_thetae_027.txt.gz
Theta_e
338 348 359 358 357 356 357 355 355 354 354 354 354 353 353 352 351 349 345 343 343 340 338 336 334 334 334 334 335 334 334 334 334 336 339 343 346 350 350 351 352 351 353
341 350 358 357 357 356 356 356 355 355 354 353 353 352 351 350 348 347 345 342 340 337 335 334 334 334 334 335 336 336 335 334 333 332 333 336 338 342 348 350 351 352 353
345 352 356 357 357 356 355 354 354 354 353 353 352 351 349 348 345 342 342 340 338 337 336 336 336 336 336 336 336 337 336 336 335 335 335 333 339 338 340 348 351 353 355
349 353 350 357 356 356 354 353 352 351 351 350 349 348 346 345 344 341 340 338 338 337 338 339 339 339 338 339 338 338 338 337 336 337 337 332 330 333 339 342 349 352 354
349 352 353 357 356 356 354 353 352 350 349 348 347 346 346 345 344 343 341 340 338 338 339 339 339 339 340 341 341 341 340 339 338 338 339 338 333 333 342 345 346 353 354
348 349 352 356 355 355 355 353 351 350 349 348 347 347 346 346 344 343 342 342 339 340 340 340 341 341 341 341 341 343 345 344 342 342 343 340 335 338 343 346 348 351 351
347 350 349 356 355 355 355 353 351 350 349 348 347 347 347 346 345 344 343 341 340 341 342 342 343 344 344 344 345 344 343 344 345 345 344 344 338 340 343 347 353 352 354
347 350 348 355 354 354 354 353 351 350 349 349 348 348 347 347 346 345 345 343 342 343 344 345 345 345 345 345 346 345 345 345 342 343 344 344 340 340 344 348 353 352 352
347 348 347 349 353 354 353 352 351 350 349 348 347 347 347 347 346 346 346 345 346 346 347 347 346 346 347 346 345 343 344 344 344 343 342 341 336 339 343 347 350 351 351
345 345 345 347 349 348 348 353 351 350 350 349 348 348 347 347 347 346 345 345 346 347 347 347 346 347 345 344 343 343 342 341 341 342 343 344 339 340 341 345 347 349 350
340 344 345 344 348 347 345 347 352 352 350 349 348 348 346 341 343 343 343 346 347 348 347 347 347 348 345 342 341 340 340 337 337 339 340 341 340 341 340 341 344 345 347
340 341 342 345 345 347 342 347 348 346 346 347 345 346 345 344 344 341 344 346 348 348 347 348 348 346 343 340 339 338 337 338 338 338 338 340 341 342 342 341 343 344 347
331 340 342 344 346 346 344 344 346 348 347 349 347 348 348 345 344 343 341 343 343 346 345 347 346 344 342 341 339 338 337 336 337 337 338 340 341 341 341 342 342 344 345
327 331 344 344 345 348 345 343 342 342 344 343 344 349 347 344 343 344 340 341 343 340 344 346 345 345 344 342 340 338 338 337 337 339 340 339 340 342 342 341 341 343 345
326 330 332 344 345 346 347 344 342 343 343 343 342 345 346 342 343 342 342 340 341 340 341 344 344 344 342 341 340 338 338 338 340 339 339 338 339 341 341 342 342 342 344
328 330 332 337 348 347 345 346 344 343 343 343 342 344 346 343 342 339 340 338 338 338 338 342 343 343 341 340 338 339 339 339 339 340 339 340 338 339 340 342 341 343 343
329 331 335 336 342 348 347 346 344 342 341 342 340 346 344 345 344 343 338 338 339 339 341 342 341 341 340 339 339 339 339 340 339 339 339 338 338 337 340 341 343 344 344
329 331 334 327 333 347 348 346 343 342 340 340 340 340 343 344 343 341 337 337 340 340 338 338 339 337 338 338 338 339 339 339 339 339 339 338 337 337 338 341 342 343 343
332 333 333 333 330 344 347 345 345 345 340 339 340 339 342 342 341 338 337 338 341 335 336 339 338 338 341 340 337 338 339 338 338 337 337 338 338 338 338 341 341 341 341
331 334 335 332 333 338 340 344 342 341 338 339 339 340 342 342 340 341 339 340 338 336 336 339 339 340 341 339 336 332 334 336 336 337 337 338 337 338 339 341 339 337 340
332 333 335 332 335 331 336 337 338 337 339 338 340 342 342 342 341 341 338 339 338 337 338 340 339 339 336 335 329 329 331 334 335 335 336 336 335 337 338 339 342 338 336
328 330 333 332 334 334 337 341 340 340 340 341 340 341 343 342 343 341 340 338 339 336 341 338 336 333 333 330 328 324 322 326 330 332 334 334 336 336 336 337 333 336 338
326 329 330 332 333 337 340 341 341 341 337 336 339 340 342 342 342 342 340 337 337 340 337 336 341 337 331 327 328 326 320 318 325 331 330 333 335 337 337 338 332 334 340
323 325 325 327 330 336 342 340 340 337 334 336 335 340 339 343 341 341 339 338 340 339 335 340 339 337 334 328 324 328 327 326 321 320 326 330 335 332 336 337 338 337 339
320 325 337 333 328 335 341 342 340 339 339 340 340 337 336 341 343 340 340 341 342 337 337 340 337 334 332 330 327 326 325 326 327 324 321 323 327 330 327 334 334 337 339
331 335 336 335 333 337 340 341 342 341 339 337 338 334 337 340 340 341 341 342 342 340 339 336 336 335 333 331 329 328 325 323 323 325 323 320 321 322 326 330 335 335 337

GFSSE_sfc_thetae_030.txt.gz
Theta_e
343 353 361 361 360 359 357 356 358 359 360 360 360 359 358 356 355 353 350 348 348 344 341 340 338 337 337 336 335 334 334 334 335 338 341 345 348 351 349 352 353 353 356
346 351 360 359 359 359 358 356 356 356 357 358 358 357 355 353 351 350 348 346 345 341 339 337 335 335 336 336 336 335 335 334 333 332 333 339 343 344 349 349 351 353 353
347 351 357 358 358 359 358 356 355 355 355 355 355 355 353 352 350 347 345 343 341 339 337 337 336 335 336 337 337 337 337 336 336 335 334 331 342 342 343 348 351 352 352
350 352 348 357 357 358 357 356 355 355 354 354 354 353 352 351 349 345 342 340 339 339 338 338 338 338 339 339 338 338 338 338 337 337 334 330 329 337 340 342 347 352 352
352 353 348 357 357 357 356 356 355 354 354 354 353 352 351 349 347 345 343 342 339 339 339 340 340 339 340 340 341 341 340 339 338 338 337 335 331 334 341 344 347 352 353
351 351 353 356 356 356 356 355 354 353 353 352 352 350 349 348 346 345 344 344 341 339 340 340 340 340 341 342 344 345 345 344 343 342 341 339 332 341 342 345 348 349 354
349 351 352 356 356 356 356 355 353 352 351 350 349 349 348 347 346 346 345 344 343 341 342 342 342 343 343 343 343 344 343 344 346 344 344 343 337 340 342 346 349 351 351
347 351 351 357 356 355 355 354 352 351 350 349 349 348 348 347 347 346 346 344 345 346 344 344 344 345 346 346 346 346 345 345 344 343 344 345 341 338 342 347 349 353 351
349 352 352 353 354 356 355 353 352 350 349 349 348 348 348 348 347 347 346 346 347 347 348 348 346 346 345 347 347 345 345 345 344 343 342 343 341 337 341 347 347 349 349
349 350 350 352 349 348 349 354 352 351 350 349 348 348 348 348 347 347 346 346 347 348 348 348 346 346 347 346 345 344 343 343 339 340 342 344 342 339 340 344 344 346 347
343 349 351 349 351 348 343 345 353 352 351 350 349 349 347 341 343 342 342 346 348 348 347 347 347 347 347 345 343 342 341 339 339 339 339 345 343 341 340 341 343 343 343
340 344 348 353 351 350 342 346 349 345 346 345 343 343 343 342 343 340 343 347 348 348 347 347 348 348 345 342 343 342 340 341 340 338 339 344 342 343 342 341 342 344 343
331 334 344 351 354 351 347 344 345 346 347 346 344 348 347 342 344 341 340 342 344 346 345 347 348 346 345 342 340 340 340 338 337 337 339 341 341 342 342 342 342 343 344
330 333 336 349 354 355 349 347 346 345 347 344 344 351 347 345 347 344 339 342 343 338 343 346 344 347 346 344 342 341 341 340 338 339 342 341 341 342 342 342 342 342 344
330 334 336 343 352 355 355 351 350 347 346 347 345 348 348 342 347 344 344 340 342 341 341 345 344 345 346 345 343 341 340 340 341 340 340 343 341 341 342 343 343 342 343
331 333 336 338 349 354 354 355 353 354 350 348 346 346 350 345 348 341 343 340 340 341 340 343 343 344 343 343 342 343 342 341 342 342 340 341 342 341 340 341 342 343 343
332 335 339 341 345 354 355 354 352 349 349 346 347 353 348 351 349 347 340 340 338 342 346 343 344 344 342 342 342 342 344 343 342 342 342 340 340 341 340 341 342 342 343
334 335 338 335 337 349 356 352 348 347 347 346 346 347 349 350 350 348 339 339 339 341 340 338 342 339 340 340 347 345 344 341 341 342 342 341 340 339 340 342 341 343 343
333 335 337 339 338 346 350 346 350 355 348 346 346 346 348 347 347 345 341 339 348 338 337 338 337 339 338 341 340 346 343 339 339 339 341 341 342 341 338 342 342 343 344
331 339 343 341 347 345 342 347 344 345 346 346 345 346 348 347 347 346 342 343 343 337 336 336 339 340 344 344 339 337 338 338 338 338 339 340 341 342 341 341 340 337 342
331 339 341 343 352 342 336 338 341 341 345 345 345 348 348 347 346 346 343 342 342 339 339 341 339 342 344 344 337 333 334 337 338 336 338 340 340 340 340 342 339 343 338
333 338 342 343 346 343 338 344 344 345 344 345 345 348 348 345 347 346 345 343 342 337 340 342 343 338 342 343 333 331 323 327 333 334 336 337 338 341 339 341 340 340 340
329 336 337 341 344 344 345 344 347 347 348 345 345 343 343 347 346 346 346 345 343 339 337 341 347 341 340 336 338 329 321 318 325 331 333 335 338 341 342 341 339 341 340
325 328 332 337 338 338 345 348 351 343 340 342 344 342 346 346 345 345 344 345 344 338 343 345 346 340 340 334 333 333 333 329 320 322 331 333 338 338 340 341 340 339 337
323 326 332 335 342 342 345 350 346 346 344 345 344 346 343 345 344 344 346 344 342 340 347 344 343 342 340 333 329 328 329 327 330 324 323 328 334 337 339 341 340 339 336
323 325 333 342 345 342 344 347 349 348 348 344 345 336 339 340 343 345 344 345 346 346 346 344 342 341 338 334 331 330 328 325 323 326 326 327 328 331 336 338 341 343 338

GFSSE_sfc_thetae_033.txt.gz
Theta_e
345 353 361 361 359 359 361 362 363 363 363 362 362 362 361 359 357 355 353 350 349 345 342 340 339 338 337 336 335 334 334 335 336 340 345 348 351 351 350 351 353 352 354
346 353 360 360 360 358 360 361 362 362 362 362 362 361 359 357 355 353 351 347 347 343 341 339 337 336 335 334 334 333 333 331 330 331 335 344 348 347 350 349 350 352 355
347 353 357 360 360 358 357 359 360 360 361 361 360 359 357 355 353 350 349 345 344 342 339 336 335 335 335 335 335 335 335 334 334 333 331 333 347 348 345 349 350 352 353
351 353 347 359 360 359 357 356 357 358 358 359 358 357 355 353 352 348 346 344 342 339 338 336 336 337 337 337 337 337 336 337 337 338 331 324 327 347 344 344 346 351 351
352 353 350 359 359 359 358 356 355 355 356 356 356 355 354 353 352 349 346 343 341 340 339 339 339 339 339 339 339 339 339 339 340 339 336 332 330 341 345 344 348 351 351
351 351 356 357 357 358 358 357 356 355 354 354 354 354 353 352 350 348 346 345 342 340 340 341 341 340 341 342 343 344 345 344 345 345 340 338 332 341 342 343 346 349 353
349 351 357 357 357 357 358 357 356 355 354 354 354 353 352 350 348 347 346 344 343 342 342 342 342 342 341 342 342 343 343 344 344 343 343 342 339 342 341 343 346 349 351
346 350 355 357 357 356 356 355 354 354 353 353 353 352 350 349 348 347 346 345 345 346 345 344 344 344 344 344 345 347 347 346 344 343 345 346 343 341 341 344 348 350 351
344 348 353 357 355 356 355 354 353 352 351 350 349 349 349 348 348 347 347 346 347 347 348 348 346 346 346 346 346 347 347 347 344 342 342 342 345 341 340 346 347 350 350
343 346 348 356 350 349 349 355 353 352 351 349 349 349 349 349 348 348 346 346 348 348 348 349 347 347 346 348 347 346 345 344 340 338 340 343 345 342 339 343 345 348 348
340 344 348 351 352 348 344 348 353 353 351 350 349 349 347 340 341 340 341 345 348 349 349 349 347 347 348 348 346 345 344 339 339 340 339 347 345 342 339 342 344 345 345
338 341 346 353 352 351 344 348 350 345 345 345 343 344 343 342 341 337 341 345 348 349 349 349 349 348 347 342 344 344 340 340 340 338 340 347 345 343 341 341 343 344 343
337 339 342 357 360 356 349 345 351 350 348 347 348 347 348 341 343 341 341 340 343 346 343 346 346 345 344 343 341 342 341 340 337 337 342 344 342 342 343 343 342 344 345
332 334 337 343 359 361 351 347 345 347 350 347 347 351 347 344 345 347 341 341 346 342 344 344 343 346 345 346 344 340 340 340 338 337 343 345 341 340 342 343 343 343 345
332 335 337 341 358 361 363 351 351 350 349 350 348 351 350 344 346 343 346 342 344 341 341 345 346 347 348 345 342 341 340 340 341 339 341 345 343 342 343 343 342 343 343
334 335 336 338 360 360 360 363 361 360 353 352 350 353 353 348 348 345 347 344 343 343 342 343 345 345 344 345 344 342 342 341 342 347 339 342 344 344 343 343 343 343 344
334 337 345 346 352 363 365 363 358 350 353 349 350 359 358 354 352 351 347 344 343 346 350 348 350 346 343 343 344 343 343 345 342 344 342 340 342 344 344 343 343 343 343
339 339 346 337 345 360 362 359 354 349 347 347 348 351 358 358 356 354 345 345 346 345 344 340 341 338 342 341 343 341 342 342 342 343 339 340 343 339 342 343 343 343 343
337 340 342 347 340 354 359 350 352 357 349 346 347 347 357 356 354 353 348 346 352 344 342 340 340 342 339 339 338 341 345 342 340 338 341 341 342 342 338 341 342 343 344
340 345 346 343 349 356 348 354 343 342 346 348 347 347 357 354 352 354 349 349 349 343 341 340 343 340 340 338 337 344 342 343 340 337 341 338 337 341 343 340 338 338 344
338 342 346 346 352 347 337 336 336 335 342 346 348 357 355 353 353 354 348 349 348 343 344 346 343 344 339 343 337 340 339 341 341 337 338 338 340 339 341 341 339 341 338
336 339 343 346 351 352 341 344 339 345 342 346 348 355 353 351 352 351 350 348 349 342 348 347 345 336 337 343 335 333 325 327 334 337 335 342 339 342 339 339 341 343 344
334 338 339 344 349 352 350 347 351 350 351 345 347 347 350 349 350 351 349 350 351 346 339 346 343 342 336 341 341 332 322 320 329 333 335 334 338 340 341 343 340 342 338
331 334 339 342 348 351 357 345 352 343 341 343 347 348 348 350 347 348 348 347 348 344 345 342 343 344 344 337 336 335 336 331 322 321 332 335 340 339 341 343 342 340 340
329 333 338 344 348 350 352 349 342 349 344 346 347 350 350 350 349 346 347 347 346 344 347 347 349 348 342 336 332 332 332 328 330 323 321 329 336 339 342 342 342 341 340
325 325 334 342 345 349 350 353 356 355 353 347 347 344 345 344 345 345 345 346 348 346 352 347 349 345 342 340 333 334 328 325 325 326 323 328 329 334 337 333 342 342 337

GFSSE_sfc_thetae_036.txt.gz
Theta_e
345 354 361 360 360 362 363 364 364 364 363 362 362 361 361 360 358 356 355 353 352 349 344 341 340 340 338 337 335 336 337 337 338 343 347 351 353 353 352 353 352 352 355
347 354 360 359 359 362 363 363 364 363 362 362 362 362 360 359 357 356 353 351 349 345 341 339 338 337 336 335 335 335 334 333 333 332 335 345 348 352 352 350 351 354 354
347 353 357 359 358 360 362 363 363 362 362 362 362 361 359 358 356 354 351 349 347 343 340 337 335 335 336 336 336 336 335 335 335 338 337 328 346 350 351 351 351 352 353
347 351 351 359 358 359 360 361 361 361 362 361 360 359 357 356 354 351 349 347 345 341 337 336 335 335 336 337 337 337 337 336 338 340 333 324 336 350 349 347 349 351 351
349 348 352 360 358 358 358 359 359 359 360 360 360 358 357 355 353 351 349 347 343 340 338 337 337 338 338 338 338 338 339 340 342 340 335 332 331 347 348 347 349 351 351
350 347 357 359 358 358 357 357 357 358 358 358 358 357 356 354 353 350 349 347 345 341 340 340 341 341 340 340 341 343 345 347 348 342 344 334 334 346 344 345 345 348 353
348 348 355 358 358 358 358 357 355 355 356 356 356 356 354 353 352 350 348 346 346 345 343 344 344 344 343 342 342 343 343 344 342 338 341 341 337 344 342 343 345 348 352
346 350 355 357 358 358 357 356 355 354 354 354 354 354 353 352 350 348 347 347 346 346 347 346 346 346 345 345 344 346 347 346 342 339 341 342 343 345 342 342 348 351 352
346 351 354 353 355 357 357 356 355 354 353 353 353 352 352 351 349 348 347 346 346 347 347 347 347 348 348 348 347 347 347 347 343 339 338 341 347 346 343 345 349 350 353
342 349 354 353 350 350 351 356 354 354 353 352 352 351 350 349 349 348 346 347 347 347 348 348 348 348 349 348 348 349 347 345 340 336 335 341 347 345 344 345 345 351 352
339 342 354 355 351 346 345 350 354 354 353 351 350 350 347 343 342 342 343 344 347 348 348 349 349 349 349 349 350 348 346 339 335 336 337 347 347 344 342 344 346 350 351
337 341 348 355 349 346 342 345 350 349 349 348 346 345 344 340 339 338 341 344 346 348 349 349 349 349 348 343 343 347 341 337 336 338 342 348 348 344 341 342 344 347 348
337 337 345 355 353 349 345 347 349 345 344 345 343 342 342 340 338 338 336 338 343 347 343 346 346 345 342 341 339 341 339 339 338 335 343 349 348 346 344 342 343 345 348
333 332 345 355 358 357 351 350 350 347 345 342 342 342 340 339 338 337 336 338 338 340 338 339 340 341 341 342 341 343 341 338 337 337 345 348 347 345 343 344 344 344 347
345 345 345 357 359 361 363 358 351 349 348 345 344 343 341 341 337 337 340 339 338 339 338 337 340 341 342 343 343 341 339 339 340 338 342 347 345 344 342 342 343 344 344
344 355 347 349 362 361 359 360 362 355 352 351 347 346 344 341 341 340 338 340 342 340 340 338 340 340 343 344 343 343 342 341 341 342 340 343 344 345 345 344 343 343 344
341 348 348 350 365 361 358 359 357 359 352 353 350 352 347 346 343 340 341 339 338 343 342 339 339 344 345 343 341 343 341 342 342 341 343 340 341 345 345 344 346 344 344
339 339 343 335 346 360 359 359 358 354 354 352 351 353 355 348 345 346 342 342 343 340 341 342 339 339 339 339 340 338 342 342 341 341 341 341 340 337 341 344 345 345 343
342 345 349 351 349 360 362 359 358 356 355 351 351 351 355 353 348 345 345 345 345 342 341 338 339 340 337 340 338 341 342 342 341 343 340 338 338 339 338 342 343 344 345
344 347 350 351 354 356 357 356 350 349 347 349 348 348 355 353 352 348 347 345 350 341 339 341 337 338 338 338 336 337 342 341 341 339 337 337 339 335 337 338 338 338 342
343 345 349 349 349 350 348 344 342 339 340 344 349 354 357 355 352 351 346 349 344 343 339 341 339 337 337 339 336 334 338 338 339 337 337 337 337 337 337 336 336 333 335
340 343 346 349 351 349 344 343 343 343 340 341 348 354 356 356 352 350 349 345 346 343 341 342 338 335 338 339 332 333 326 329 334 336 336 336 336 336 337 337 335 336 335
337 341 342 343 344 345 344 345 348 348 349 349 352 352 353 354 353 351 349 347 347 343 340 340 340 336 332 336 339 332 323 319 324 332 334 332 332 335 334 335 335 335 336
335 337 344 345 342 343 348 344 344 338 337 344 352 351 351 352 351 350 349 347 349 343 342 341 340 338 336 335 336 337 333 330 320 319 327 329 331 333 334 334 333 336 331
327 328 332 335 340 343 344 344 341 346 345 351 350 354 350 352 350 347 348 346 348 342 342 339 340 338 338 338 334 332 331 329 328 321 317 322 329 330 334 333 333 333 330
326 329 333 338 339 345 345 349 347 345 343 346 351 346 346 346 345 344 346 344 345 342 343 342 340 341 341 338 334 332 329 325 323 323 321 321 322 327 330 331 332 332 334

GFSSE_sfc_thetae_039.txt.gz
Theta_e
342 353 360 362 363 364 365 365 364 363 362 361 361 361 360 358 358 356 355 354 352 351 346 343 341 340 338 336 336 336 336 336 337 341 348 352 353 356 357 355 354 351 355
347 354 359 360 362 363 364 364 363 362 361 361 361 361 359 358 357 355 353 352 351 346 342 341 340 338 336 335 335 335 334 334 333 330 332 345 349 352 355 354 352 352 353
349 353 355 359 362 363 363 363 363 362 361 361 361 360 359 358 355 353 352 350 349 343 341 339 337 337 337 336 337 336 336 335 335 334 332 327 343 351 353 352 351 353 354
350 352 350 358 361 362 362 362 362 361 361 361 360 360 359 357 355 351 349 348 346 342 339 337 336 337 338 338 338 337 337 337 339 339 334 331 324 350 349 352 349 350 351
347 349 351 357 359 362 362 361 361 361 361 361 360 359 358 356 354 352 350 348 344 341 339 337 337 339 340 339 339 339 339 342 344 343 335 332 336 348 349 349 351 353 352
343 347 356 356 357 359 361 361 360 360 361 360 360 359 357 355 353 351 350 349 346 341 341 340 342 342 341 341 342 343 345 346 346 342 340 336 338 350 348 347 348 350 351
339 348 353 356 356 357 360 360 359 359 359 359 359 358 356 355 353 351 350 347 346 346 343 343 346 346 346 345 345 346 345 345 343 339 338 338 337 348 348 346 348 349 352
339 350 351 357 356 355 355 357 357 357 357 357 357 357 356 354 353 351 349 348 347 347 347 347 347 346 346 346 347 347 348 347 343 339 337 335 341 347 345 346 348 349 351
344 348 348 352 355 357 355 354 354 354 354 354 354 354 354 353 352 350 348 347 347 347 347 348 347 347 347 347 348 349 348 348 341 339 338 336 346 348 343 346 347 350 352
348 347 347 347 351 351 352 355 354 353 352 352 352 352 352 352 351 349 346 347 347 347 347 348 348 348 348 349 349 348 348 348 339 337 334 337 348 348 345 347 351 350 353
347 346 346 345 346 346 348 352 354 354 353 352 351 351 349 343 344 343 345 346 347 347 348 348 348 349 349 349 349 349 349 339 337 334 333 348 348 347 345 347 351 352 351
343 345 345 345 343 340 344 345 346 347 347 346 344 343 342 337 335 340 343 346 347 347 348 349 349 349 349 341 341 347 343 338 336 333 335 349 349 348 345 346 350 350 350
333 348 348 346 343 339 338 341 345 344 343 343 340 338 339 337 335 338 334 338 337 344 341 344 344 344 341 339 337 337 339 338 335 334 341 348 348 348 345 345 346 348 348
334 344 349 346 342 339 338 340 342 340 340 339 340 337 337 335 333 329 331 331 332 337 336 334 337 339 337 338 337 337 338 336 335 333 342 350 349 350 346 344 344 345 347
332 335 338 345 343 341 338 342 342 340 339 338 338 338 337 335 331 330 329 330 331 335 336 332 333 336 336 337 338 337 338 337 336 335 341 350 348 348 347 344 344 344 345
327 329 341 346 346 344 343 344 343 343 341 340 339 338 337 336 334 331 330 331 331 334 335 332 333 335 336 337 337 338 339 335 334 333 337 342 345 345 346 346 344 344 344
327 327 337 347 351 351 347 347 348 343 344 343 341 340 338 336 335 333 331 331 332 333 334 333 332 335 335 339 337 339 338 335 335 335 337 337 340 344 345 345 345 344 344
326 325 330 349 353 350 349 349 347 348 347 345 345 343 341 339 336 335 334 332 334 334 334 333 332 333 336 335 337 335 335 334 335 335 335 336 335 337 343 345 344 344 344
325 324 324 329 350 350 350 350 349 347 345 345 343 344 345 341 340 338 335 336 334 334 334 334 332 331 330 330 335 333 335 334 334 338 335 335 335 335 334 340 343 343 344
328 326 332 332 340 348 351 348 347 347 346 344 343 341 343 345 343 338 339 336 336 335 332 333 330 332 330 333 333 331 336 335 335 334 333 335 332 334 334 336 336 336 341
330 330 332 332 334 339 338 343 340 338 336 336 338 340 340 348 345 341 338 339 340 335 335 332 330 328 330 332 329 327 333 333 332 333 333 332 331 333 332 332 333 333 334
328 328 330 330 330 330 330 332 331 330 330 331 333 339 341 346 347 343 341 340 338 336 333 331 331 327 330 330 324 324 320 323 329 332 331 330 330 331 332 333 332 331 332
326 328 332 331 331 329 330 332 331 331 330 331 334 336 342 347 347 345 343 340 338 336 334 332 331 328 326 328 329 324 318 316 319 324 325 327 326 328 329 330 331 333 332
324 325 328 330 331 333 333 330 330 331 329 328 326 340 342 345 345 344 344 341 339 337 333 333 334 329 327 324 330 332 327 323 319 317 321 324 325 327 327 328 328 331 330
321 322 327 330 330 329 331 332 331 330 330 330 333 339 340 340 343 343 342 340 338 338 336 335 333 330 329 329 327 325 325 326 324 315 311 316 324 324 327 326 328 330 330
315 316 317 322 329 329 329 334 331 329 331 332 337 337 337 338 338 340 342 342 340 339 338 336 336 332 331 331 329 329 326 320 317 316 313 315 315 319 324 328 326 328 330

GFSSE_sfc_thetae_042.txt.gz
Theta_e
341 353 363 364 363 363 363 363 362 362 360 360 360 359 358 357 357 356 355 354 353 351 348 345 342 339 337 336 335 334 335 335 338 344 350 352 352 354 354 353 352 351 355
341 352 362 363 364 363 363 363 362 361 360 360 360 359 358 357 355 354 353 352 351 346 343 341 340 338 336 334 333 333 332 331 330 330 332 344 349 351 351 352 354 351 352
343 350 358 362 363 363 363 362 361 360 360 360 359 358 358 356 353 352 351 350 348 343 342 340 338 337 337 336 336 335 334 334 334 333 331 325 335 350 351 350 353 352 352
346 349 352 361 362 363 362 361 360 360 360 360 359 358 358 357 354 350 349 347 344 343 341 338 338 338 338 338 338 338 337 336 337 338 333 330 325 350 350 351 351 349 350
345 347 349 361 361 362 362 360 360 360 359 359 359 359 357 356 355 352 350 348 344 342 339 338 338 339 340 339 340 339 339 340 343 343 336 333 328 349 350 351 351 350 352
344 345 353 359 360 361 361 360 360 360 360 359 359 359 357 356 354 351 350 349 347 342 340 339 342 341 341 341 340 341 342 346 345 338 336 337 335 352 350 352 352 351 351
341 343 352 359 359 360 361 360 360 360 359 359 359 358 357 355 353 351 350 348 347 345 343 342 345 345 345 344 342 344 344 344 342 339 337 337 337 351 351 350 351 352 352
339 344 348 356 358 359 360 359 359 359 358 358 358 357 357 355 353 351 350 348 348 348 347 346 347 346 346 347 346 346 344 346 344 339 338 335 338 350 348 349 349 349 351
341 345 346 349 354 358 358 357 358 357 357 357 356 356 355 354 353 351 350 349 348 348 347 347 347 347 346 346 347 347 346 347 342 339 339 334 344 348 345 345 346 349 350
343 342 345 346 348 348 351 356 356 356 356 355 355 355 354 354 352 351 348 347 347 348 348 348 348 347 347 347 348 348 347 347 340 337 335 332 346 346 344 346 347 350 351
343 343 343 346 346 347 346 350 353 355 355 354 354 354 350 347 346 345 345 345 347 347 347 348 348 348 348 348 348 347 347 340 338 335 333 338 349 347 346 349 350 351 353
339 341 341 342 344 345 347 345 345 346 346 345 345 344 344 338 338 341 343 346 346 347 347 347 348 348 347 340 340 346 342 341 337 335 332 342 349 349 348 349 350 351 352
341 343 341 339 339 341 340 343 344 344 343 343 341 340 338 336 336 339 334 339 336 344 339 343 342 343 340 338 338 336 338 339 337 335 334 345 349 350 348 347 348 351 351
341 345 346 344 339 335 335 339 340 340 341 340 340 337 336 333 331 330 331 332 332 334 334 334 336 339 337 338 337 335 335 336 335 335 333 347 348 349 348 346 346 346 348
340 347 348 347 342 340 334 337 338 337 337 337 337 337 336 334 331 330 331 328 330 331 335 333 332 336 337 337 336 336 335 336 336 335 334 349 348 348 349 346 345 346 346
331 336 342 341 341 342 338 336 337 338 337 334 335 335 336 334 331 330 328 328 328 331 334 333 330 332 334 334 334 335 335 335 334 332 336 343 347 347 347 347 345 344 344
330 331 337 334 335 336 339 339 338 339 338 337 336 335 336 334 332 329 328 327 328 330 331 332 328 330 331 333 333 334 334 335 334 332 334 337 341 346 346 345 347 346 344
329 327 332 340 342 342 341 342 342 341 341 339 338 337 336 335 333 331 329 327 329 330 331 331 329 328 330 331 332 333 335 334 334 333 335 335 335 336 343 344 346 345 346
324 327 332 340 342 344 344 345 344 344 342 342 341 339 338 337 335 333 331 331 329 331 331 331 330 328 328 330 330 333 332 332 333 335 333 335 335 334 334 341 343 343 343
322 323 325 339 343 344 345 343 344 342 345 343 342 342 340 339 338 334 334 332 330 330 331 330 330 329 326 330 332 334 332 333 334 334 332 335 333 334 331 332 337 337 341
319 322 322 324 340 343 343 342 342 342 342 339 340 341 341 343 340 336 335 333 333 330 331 331 329 328 327 329 326 324 328 332 332 332 333 332 331 332 331 333 331 332 333
316 322 325 327 332 343 344 344 340 341 334 341 342 339 340 342 344 340 336 335 334 333 329 330 330 324 328 328 324 326 322 323 325 329 330 330 328 329 331 331 331 330 331
314 322 325 328 332 340 339 332 329 328 327 328 329 329 333 337 344 342 339 336 337 336 332 330 331 327 324 326 328 325 319 315 316 322 325 326 324 325 326 329 330 330 330
316 322 326 328 328 329 327 328 327 327 324 324 323 328 331 337 342 343 340 338 338 336 333 331 331 330 329 327 329 330 327 322 318 314 321 324 323 324 325 326 327 330 330
313 320 324 326 326 326 327 326 325 321 323 324 325 327 330 336 341 343 341 338 336 335 333 332 331 331 330 329 327 327 327 326 323 319 315 314 320 322 323 325 325 327 326
310 316 320 323 326 327 325 325 324 323 325 326 326 329 331 334 336 341 341 339 337 337 334 333 334 334 330 331 329 328 326 324 320 318 311 311 313 316 321 323 323 325 326

GFSSE_sfc_thetae_045.txt.gz
Theta_e
338 353 363 364 363 363 362 362 361 361 359 359 359 358 358 357 357 358 357 356 356 353 351 347 343 340 338 336 336 335 335 338 342 348 351 352 352 354 354 353 351 351 352
341 355 362 363 363 363 362 362 360 360 359 359 359 358 357 356 356 355 354 353 352 348 346 342 339 338 336 334 334 332 331 331 330 331 338 346 350 351 351 351 352 350 352
341 355 360 362 363 362 362 361 360 359 359 358 358 357 357 356 354 353 353 351 349 344 342 341 339 337 335 335 334 334 334 333 332 331 330 324 336 350 350 351 352 349 352
344 353 357 362 363 362 361 360 359 359 359 358 357 357 357 355 354 351 350 348 346 343 342 340 338 337 336 337 336 337 337 337 336 337 330 328 325 349 350 351 351 349 348
343 351 354 362 362 362 361 360 359 359 359 358 358 357 357 355 354 352 350 349 345 344 341 339 339 339 339 338 337 336 337 339 342 343 337 334 329 341 350 351 350 349 351
342 346 357 360 361 361 361 360 359 359 359 358 358 358 357 356 354 352 350 349 348 343 341 340 342 341 340 340 339 339 340 344 343 337 336 337 326 343 350 350 350 350 352
339 342 354 359 360 361 361 360 359 358 358 358 358 358 357 356 354 351 350 349 348 345 342 342 343 345 344 341 340 341 343 343 340 338 336 335 335 348 350 352 351 351 351
337 342 351 358 359 359 360 359 358 357 357 357 358 357 357 356 353 351 350 349 349 347 346 345 346 346 346 345 343 344 343 344 343 339 337 335 337 345 350 351 350 350 350
337 343 347 352 357 359 358 358 358 357 357 357 356 356 356 355 353 351 350 349 349 348 347 347 347 347 346 345 344 345 344 345 340 339 339 334 339 345 348 349 347 348 351
336 339 342 347 352 353 354 358 357 357 356 355 356 356 355 355 353 352 348 348 349 348 348 348 348 348 347 346 346 346 345 346 339 337 336 333 340 345 346 348 346 348 349
338 337 340 342 343 344 345 353 357 358 357 356 355 355 353 349 347 346 347 347 348 348 348 348 348 348 347 346 345 345 346 338 338 338 334 338 341 346 347 348 348 348 349
334 337 340 341 341 341 344 342 344 349 351 350 350 350 348 342 340 343 345 346 348 347 348 347 348 348 346 338 339 344 339 338 339 337 335 340 342 347 348 350 349 349 350
334 337 339 339 340 339 339 339 339 340 340 343 341 342 341 338 338 341 335 338 336 344 336 342 340 341 337 336 336 335 336 336 337 337 337 342 346 348 348 347 348 348 350
336 337 339 337 337 337 335 338 339 338 337 337 338 336 336 334 333 334 333 332 332 332 332 332 334 336 336 336 336 335 334 333 334 335 334 342 346 349 349 350 347 347 348
338 339 340 338 336 335 333 333 335 337 336 335 335 335 335 333 331 330 330 328 329 328 330 330 330 332 334 334 335 336 334 332 334 334 332 341 345 348 349 349 347 345 346
339 342 343 341 338 336 334 332 334 336 335 333 334 336 335 333 330 329 328 327 325 328 330 331 330 330 332 332 332 334 334 332 333 334 333 334 345 347 347 347 347 345 344
338 344 344 342 342 340 338 334 334 335 335 333 332 333 335 333 329 328 326 326 326 327 327 329 327 326 327 328 329 330 331 332 333 333 331 334 338 346 345 346 346 345 345
327 329 342 345 339 337 337 336 336 336 336 335 334 333 334 333 330 327 327 325 326 326 328 329 326 325 326 326 327 329 330 332 332 332 332 333 336 338 342 344 345 344 344
325 326 325 332 332 330 332 336 337 337 337 337 336 335 334 334 332 330 328 327 325 327 327 328 326 326 324 325 327 328 331 331 332 334 332 333 334 336 335 339 343 343 344
322 324 323 326 333 333 334 334 337 338 339 339 338 337 336 336 335 331 331 328 326 327 327 327 327 326 324 326 329 330 329 330 332 331 332 333 334 336 335 333 333 336 342
319 319 320 320 328 335 336 335 337 337 340 340 340 339 338 337 336 332 332 330 328 327 328 328 327 324 323 325 324 323 325 329 330 330 331 331 332 332 331 332 331 331 333
316 318 320 321 323 334 340 340 340 339 340 342 342 339 340 339 338 336 333 332 330 328 326 328 327 323 324 326 322 321 318 322 324 329 328 328 328 329 330 331 330 330 329
312 313 317 320 321 324 339 340 328 329 328 333 332 334 338 340 341 339 336 334 331 331 328 328 329 326 322 324 327 325 316 316 315 319 323 325 325 324 326 327 329 330 329
308 310 313 319 323 325 334 337 336 335 334 327 334 336 332 336 338 340 338 335 333 333 331 329 330 328 326 326 328 329 327 324 317 312 319 321 323 324 322 323 325 327 328
306 308 313 317 321 326 332 337 336 330 327 323 321 323 326 327 333 339 339 336 334 335 332 330 328 328 331 329 329 327 327 325 324 320 314 317 318 320 321 322 323 324 327
305 305 309 316 320 323 326 331 331 332 322 321 321 322 323 327 332 336 337 336 335 335 332 332 333 332 331 331 329 329 327 324 322 319 317 313 311 315 319 321 321 322 324

GFSSE_sfc_thetae_048.txt.gz
Theta_e
335 352 359 363 363 362 362 361 360 360 360 361 361 361 361 361 361 361 361 360 359 356 353 350 346 343 341 339 338 338 339 342 347 352 353 353 354 354 353 352 350 350 352
338 354 359 362 363 362 362 361 360 359 359 359 359 359 359 359 359 359 359 357 356 352 349 345 342 338 337 335 334 333 333 332 335 339 346 350 351 352 352 351 350 349 350
342 354 357 362 363 362 361 361 359 359 358 358 357 357 357 357 357 357 355 354 352 349 345 342 340 338 336 335 334 334 333 333 332 332 333 331 342 350 351 350 351 348 351
343 354 357 362 362 362 360 360 359 359 358 358 357 357 357 356 355 354 353 351 348 345 343 341 339 338 337 337 336 337 337 336 337 340 332 331 328 349 349 351 351 349 350
345 353 355 362 361 361 360 359 359 359 358 358 358 357 356 355 354 353 352 350 346 344 343 340 339 339 338 338 338 338 338 341 344 342 339 338 336 337 349 350 351 350 350
345 352 357 361 361 360 360 359 358 358 358 358 357 357 356 355 353 352 351 350 349 345 342 341 343 342 340 340 339 339 341 344 343 340 341 340 332 335 349 350 350 349 351
344 348 356 360 360 360 360 359 358 358 357 357 357 357 357 355 353 352 351 350 350 348 345 344 344 345 344 342 340 341 343 342 342 341 340 340 338 342 350 351 351 350 350
341 344 354 359 359 359 359 358 358 357 357 357 357 357 356 355 353 351 350 350 350 348 346 345 346 346 346 345 342 343 343 342 343 342 341 339 340 342 350 352 352 351 348
337 345 349 354 357 360 358 358 357 356 356 356 355 355 356 355 353 351 349 349 350 348 347 347 347 347 346 344 344 345 343 343 343 342 341 340 340 343 349 350 349 349 350
335 341 343 347 351 354 355 358 357 357 356 355 355 355 355 355 353 352 348 348 350 349 348 348 347 348 347 346 346 346 343 345 343 342 341 339 341 343 347 350 349 349 349
335 335 339 344 346 348 349 354 357 358 357 355 356 356 353 352 350 349 347 348 349 349 348 348 348 348 347 345 345 344 344 342 342 342 341 340 341 343 347 350 350 348 349
331 335 338 341 344 345 349 349 351 351 353 352 352 352 351 349 345 345 347 348 349 349 348 348 348 348 345 341 341 344 342 342 341 342 340 341 342 344 347 350 350 348 349
331 334 338 340 341 342 342 341 344 343 348 348 346 347 348 343 344 345 340 344 341 347 339 344 344 344 341 339 339 339 340 340 339 340 340 343 344 344 348 349 350 348 347
329 332 336 338 338 338 336 337 339 341 339 339 340 340 341 337 336 337 336 336 336 336 336 335 337 339 339 338 338 338 338 337 336 337 338 342 345 345 347 350 351 349 348
332 334 335 337 337 338 335 337 338 339 338 338 337 336 337 335 333 333 334 332 333 332 333 333 333 334 336 337 337 337 337 337 336 336 337 341 344 345 347 350 350 350 346
336 335 338 336 336 337 335 333 336 338 338 336 336 337 337 335 333 331 331 331 329 330 331 332 331 331 333 335 335 336 337 337 336 336 337 338 342 345 348 348 350 349 346
336 338 338 337 335 333 334 333 333 334 336 335 335 336 336 335 332 331 329 329 329 328 329 331 330 330 330 332 332 333 335 336 335 336 337 337 338 342 346 347 348 346 345
332 339 341 340 338 334 331 330 330 331 334 333 333 333 335 335 333 331 328 327 328 327 328 329 329 328 328 328 329 331 332 333 334 335 336 337 339 342 343 347 347 347 346
327 329 336 342 340 338 338 336 336 335 333 333 334 333 333 334 334 330 328 328 326 327 327 328 328 329 326 327 328 329 331 333 335 336 336 338 339 341 343 341 342 344 345
320 327 329 332 336 333 332 334 335 335 336 336 336 335 334 334 333 331 329 328 326 326 327 327 328 328 327 328 328 330 331 333 335 335 337 338 338 340 341 339 339 339 342
313 318 323 323 329 334 332 332 333 334 336 337 338 339 336 336 335 332 331 329 327 327 328 328 328 327 326 329 328 328 330 333 334 335 337 336 336 338 339 338 338 337 339
310 313 316 320 324 329 334 336 335 336 336 339 340 339 338 337 336 335 333 331 329 328 328 328 328 326 328 329 326 326 324 328 330 334 334 334 334 336 336 336 336 336 336
305 310 313 315 319 321 331 334 332 332 331 335 336 339 339 339 339 337 334 334 331 331 328 329 329 328 325 327 330 328 321 321 322 325 328 331 332 332 334 334 334 334 335
303 306 308 311 314 318 321 332 332 334 332 335 337 339 338 341 341 339 337 336 334 332 331 329 331 330 329 326 328 331 331 328 323 321 325 326 328 329 330 330 332 334 334
306 304 305 308 311 316 319 325 332 332 333 334 329 334 334 334 339 340 340 337 335 333 334 331 331 329 330 329 330 329 329 329 328 322 320 323 324 327 328 329 330 332 332
305 306 304 305 310 317 321 324 327 330 332 326 325 326 328 328 330 334 338 338 337 335 334 332 332 331 331 333 332 332 329 328 325 322 323 320 322 324 325 328 329 330 331

GFSSE_sfc_thetae_051.txt.gz
Theta_e
339 354 363 363 363 362 364 364 364 364 364 364 363 363 362 361 362 362 362 361 360 357 355 352 349 346 344 343 341 342 345 349 353 354 354 354 354 354 353 351 349 348 352
343 355 361 362 363 362 363 363 363 363 362 363 363 362 362 362 362 362 361 360 359 355 352 348 345 342 340 338 336 336 336 339 343 349 351 353 353 352 351 351 348 350 351
345 355 361 362 362 362 361 361 361 361 361 362 362 361 362 361 361 360 359 358 355 352 349 345 341 339 338 336 335 334 334 334 334 335 338 345 346 351 351 349 349 349 351
350 359 358 362 362 361 360 360 359 359 360 360 360 361 360 360 359 358 357 354 352 349 344 342 340 339 338 337 337 338 338 338 339 338 336 341 341 350 349 351 351 348 349
349 357 360 362 361 361 360 359 358 358 358 358 358 358 358 357 357 356 354 354 350 345 344 342 341 341 340 340 340 340 340 344 347 342 341 343 343 346 349 350 351 349 349
348 350 359 361 361 360 360 359 358 358 358 358 358 357 357 356 355 354 353 352 350 347 344 344 345 344 342 341 340 341 343 345 343 343 346 344 342 340 349 350 349 348 349
346 350 358 360 360 360 360 359 358 358 357 357 358 357 356 355 354 353 352 351 350 349 347 346 346 346 346 343 341 342 345 344 343 346 347 347 346 338 350 349 350 350 349
344 349 355 361 360 359 359 358 358 357 357 357 357 357 356 355 353 352 351 351 351 350 348 347 347 347 347 346 343 343 344 343 343 345 346 347 343 343 346 350 351 350 349
345 347 354 357 360 360 358 358 357 357 356 356 355 355 355 354 353 352 351 351 351 350 348 347 348 347 347 345 344 345 344 343 344 345 342 345 340 342 345 350 349 347 348
343 344 350 353 356 357 357 358 357 357 356 355 356 356 355 355 353 351 349 350 351 350 349 348 348 348 347 346 346 345 343 343 344 343 343 343 342 341 343 349 349 348 346
340 345 348 352 355 355 353 355 357 358 357 356 356 356 353 352 352 350 347 348 350 350 349 349 349 348 348 345 345 343 343 342 343 342 343 341 342 342 342 347 351 349 348
335 342 346 351 352 354 352 355 356 355 355 356 356 357 355 355 354 350 349 348 350 350 349 349 349 349 346 340 340 343 341 343 343 342 344 343 344 343 344 348 351 350 349
334 338 343 350 353 352 350 353 354 354 354 354 354 355 355 352 352 352 349 347 346 347 341 343 342 341 341 341 340 340 340 343 342 342 343 343 344 344 345 349 352 351 349
334 335 341 346 350 352 349 350 351 350 353 350 350 351 351 348 349 350 348 347 348 344 343 342 339 341 342 341 340 340 340 340 340 339 341 342 345 346 346 349 351 352 349
333 335 338 343 346 347 348 346 348 348 349 349 349 352 351 347 347 348 348 346 345 343 341 341 339 340 339 339 338 338 338 339 341 340 339 342 343 346 347 348 351 352 350
339 337 339 341 345 346 345 347 347 348 348 348 347 349 350 348 348 345 346 344 343 343 341 339 339 337 337 337 337 338 338 337 339 340 338 340 344 345 347 349 351 354 352
339 343 343 343 345 346 342 344 344 343 343 343 344 347 346 347 346 346 342 341 341 342 342 340 340 339 336 336 335 336 337 338 338 339 339 338 339 342 345 348 351 352 348
337 342 345 339 341 342 343 342 340 339 341 341 341 341 344 343 342 342 339 338 339 339 337 336 336 335 334 334 334 335 336 338 339 340 340 339 338 342 346 347 349 350 348
330 341 346 347 341 341 341 342 341 339 337 339 339 339 341 340 341 340 338 339 340 336 335 335 335 335 334 335 334 335 337 337 339 339 341 343 343 344 347 346 347 347 348
323 332 342 349 349 345 343 341 338 339 338 338 338 339 340 340 339 338 338 338 338 334 335 336 337 338 337 336 334 334 337 339 340 342 343 343 345 348 349 349 346 343 343
320 322 329 339 348 348 345 341 340 336 341 343 343 344 343 339 338 339 340 338 338 337 338 339 339 338 337 338 335 335 337 340 342 342 344 345 346 347 349 348 346 344 342
317 320 322 327 336 343 344 346 345 343 345 345 345 345 345 341 343 344 345 343 342 339 340 340 340 338 338 339 335 335 331 335 339 342 343 344 347 349 346 347 347 346 346
317 319 320 322 326 334 341 346 347 346 346 344 346 347 348 346 347 348 347 346 344 342 341 342 341 341 338 337 339 335 331 328 334 338 340 342 345 344 347 346 346 345 346
315 317 320 322 323 324 334 338 345 342 340 344 346 348 349 348 348 349 350 347 346 344 345 343 342 341 341 337 335 337 340 338 330 327 336 337 339 340 342 341 342 343 344
314 315 319 321 323 326 327 333 335 341 341 345 345 352 354 351 351 350 351 348 347 346 345 345 341 342 341 339 337 337 336 336 337 331 327 330 334 337 339 339 340 340 342
312 314 316 319 323 325 325 328 332 338 342 340 342 341 343 346 349 351 350 350 349 347 346 345 344 343 342 341 341 341 337 333 332 330 328 332 331 334 336 338 338 339 339

GFSSE_sfc_thetae_054.txt.gz
Theta_e
340 355 363 364 364 366 366 366 365 364 363 362 362 362 362 361 362 363 363 362 361 358 356 354 352 350 348 346 345 348 352 354 355 355 355 355 354 354 352 349 348 350 352
343 356 363 363 363 365 366 365 365 364 363 362 362 362 362 362 363 363 362 361 360 356 353 350 346 344 342 340 339 340 344 348 351 352 353 354 353 352 352 349 349 353 351
344 357 361 362 363 365 365 364 364 363 363 363 362 362 362 363 363 362 361 360 357 354 351 347 343 341 339 337 336 336 336 338 340 341 347 345 345 352 351 349 348 350 350
347 358 356 361 362 364 364 363 363 363 363 363 362 362 362 362 362 361 360 358 355 352 348 344 342 340 338 337 336 336 336 335 337 339 341 341 341 350 349 350 349 348 349
350 356 356 361 361 363 363 362 361 362 362 362 362 362 362 361 360 359 358 357 353 349 345 343 342 342 340 339 340 340 340 342 341 339 341 342 346 347 349 350 351 349 348
349 353 361 360 360 361 362 361 361 361 361 361 362 361 361 359 358 357 356 355 353 348 345 344 345 344 344 341 341 341 344 347 347 343 346 341 344 350 349 348 348 348 347
347 349 363 360 360 361 361 360 360 360 359 359 360 360 359 357 356 355 355 354 352 351 349 347 346 347 346 343 342 343 345 345 346 345 347 349 347 338 348 348 348 348 348
344 347 358 360 360 360 360 359 358 358 358 358 358 357 357 356 355 354 353 352 352 352 350 348 348 348 347 346 343 344 345 344 341 346 347 348 344 342 344 349 349 348 348
343 345 356 359 362 360 359 358 358 357 357 357 356 356 356 355 354 353 352 352 352 352 350 349 349 348 347 345 344 344 345 344 346 343 343 345 343 342 346 350 349 347 347
342 343 351 355 358 358 357 359 358 357 357 356 357 356 356 355 353 353 350 351 352 352 350 349 349 348 347 347 345 345 344 344 341 342 342 343 342 341 345 350 350 349 346
341 342 348 349 354 353 350 356 358 358 357 357 357 357 354 349 351 350 346 350 352 352 351 350 349 349 347 344 344 344 343 339 341 341 340 344 341 343 343 349 351 351 348
339 340 344 350 350 351 345 353 356 355 356 356 354 356 353 350 351 346 348 350 351 352 351 350 350 349 345 337 340 342 339 339 341 340 341 345 343 344 345 348 351 352 350
339 341 344 351 358 351 346 348 351 350 351 353 354 356 355 352 354 351 348 348 346 347 341 344 343 341 340 339 338 339 339 340 340 340 342 345 344 346 347 348 351 353 352
337 339 344 349 353 357 349 349 349 347 350 350 352 357 354 352 353 351 346 346 347 343 343 341 340 342 342 341 341 339 339 339 337 338 342 346 345 347 347 348 351 353 352
339 339 341 346 352 354 355 349 349 348 348 350 350 355 353 350 350 350 348 347 345 345 343 343 341 341 341 342 339 338 337 338 339 338 337 348 346 346 348 349 350 353 353
333 341 341 343 347 353 354 355 351 354 352 351 349 351 354 351 350 347 349 347 346 345 343 342 341 340 339 339 338 340 339 337 338 339 337 339 345 345 347 349 350 353 351
331 337 346 347 349 353 354 352 350 348 348 347 348 352 353 355 353 352 346 344 344 348 349 346 344 342 339 337 339 338 339 340 339 339 339 338 338 344 346 348 349 352 352
330 339 347 344 346 353 354 351 347 343 344 343 344 345 351 352 352 351 344 345 344 345 343 340 340 338 337 339 340 340 340 341 341 342 341 340 339 337 342 347 348 350 352
326 333 342 350 345 350 353 349 349 352 344 340 342 341 347 348 348 348 343 342 351 342 340 340 339 340 340 341 341 342 343 342 343 342 343 346 347 344 340 347 348 349 349
325 330 337 349 352 348 349 348 343 341 342 342 341 341 344 346 344 344 341 344 346 342 339 341 345 344 343 343 343 342 344 344 345 345 345 347 348 346 343 346 350 347 347
322 326 329 339 350 353 349 342 340 336 339 339 340 347 345 344 343 346 341 342 343 343 344 346 346 346 344 347 343 343 344 347 347 346 346 346 346 344 348 349 356 347 345
322 326 327 327 336 346 352 352 350 348 344 341 341 348 347 344 346 344 346 346 348 345 347 349 349 345 346 348 342 340 335 340 344 347 346 346 348 351 348 350 349 350 351
319 322 324 329 332 333 340 347 350 351 351 348 347 347 348 348 347 349 350 350 357 352 347 351 351 349 343 347 348 341 334 331 338 343 346 346 348 351 348 348 348 348 350
317 319 322 327 329 331 335 339 348 341 341 344 348 351 353 353 350 350 353 354 361 354 356 353 351 350 350 344 345 346 347 344 334 331 340 343 346 347 350 345 345 347 348
316 319 322 325 328 332 335 337 333 345 341 345 346 356 364 362 355 352 355 359 359 354 357 358 353 352 348 345 344 343 344 342 343 336 331 334 339 340 342 343 342 343 346
316 316 320 323 326 330 333 333 336 337 344 339 343 343 346 349 353 356 355 357 360 357 357 354 355 352 350 350 347 346 342 338 337 336 334 334 333 339 340 342 342 340 341

GFSSE_sfc_thetae_057.txt.gz
Theta_e
347 354 365 366 367 367 366 365 364 364 362 362 363 363 362 362 362 363 363 362 362 360 357 356 355 353 351 349 350 353 354 355 355 355 355 354 354 353 350 348 350 350 353
351 353 363 365 366 367 366 365 364 363 362 362 363 362 362 362 363 363 362 361 360 356 354 351 348 346 344 342 343 346 350 353 353 354 354 354 353 352 351 349 352 352 351
352 354 361 364 365 367 366 365 364 363 362 362 363 362 362 363 363 362 361 360 358 355 352 348 345 342 339 338 337 338 341 344 347 350 353 349 343 352 350 349 349 351 350
354 357 356 363 365 366 365 365 363 363 362 362 362 362 363 363 363 362 360 359 356 353 349 345 342 340 338 336 335 334 335 336 339 343 344 341 340 351 350 349 349 348 349
355 356 357 362 364 365 365 364 363 363 363 362 362 362 363 362 362 361 360 358 355 351 347 343 341 341 339 337 337 337 336 337 340 340 342 342 343 346 349 349 349 349 347
351 354 359 361 362 364 365 364 363 363 363 363 363 363 362 362 361 359 359 358 355 349 346 345 345 344 341 340 340 340 341 345 345 344 345 341 346 350 347 347 346 349 347
348 353 360 359 361 363 364 363 362 362 362 362 362 362 362 361 359 358 357 356 354 352 349 347 346 347 346 342 341 342 344 347 348 344 346 346 346 351 348 346 346 347 347
346 351 360 359 360 360 362 362 361 360 360 361 361 361 361 359 358 357 356 355 353 352 351 349 348 348 348 346 343 343 345 345 345 344 345 347 345 342 349 348 348 347 347
346 347 359 355 360 360 360 359 359 358 358 358 358 358 358 357 356 355 354 353 354 353 351 350 350 349 348 346 345 345 346 345 344 344 342 345 349 347 346 350 349 348 346
345 345 354 352 355 356 357 359 359 358 358 357 357 357 357 356 355 354 352 352 353 353 352 351 350 349 348 347 347 345 345 345 339 340 341 345 349 345 348 349 351 349 346
343 344 351 348 352 352 350 356 358 358 358 357 357 357 354 349 351 350 347 351 352 353 352 351 350 349 348 345 346 345 345 338 338 340 339 348 346 344 345 349 353 353 349
342 341 346 353 351 350 344 354 353 353 354 354 353 354 352 351 350 344 347 352 352 352 352 351 350 349 345 335 338 343 338 336 336 338 338 350 345 344 345 348 352 354 353
343 342 342 354 360 352 345 349 349 348 350 352 352 357 356 349 350 346 345 344 346 348 341 344 342 340 338 337 335 341 341 338 338 338 343 351 347 345 346 348 351 354 353
339 342 343 350 355 360 348 345 349 344 349 348 350 359 358 351 357 356 346 347 353 343 344 342 341 346 343 341 340 339 338 338 337 337 342 350 348 346 347 349 351 353 354
335 341 344 347 354 359 363 349 349 347 347 348 349 355 353 350 358 354 355 347 349 346 344 346 344 345 343 342 341 340 338 338 339 338 339 350 348 348 348 349 350 352 354
334 340 342 345 358 358 358 365 357 355 351 350 350 354 359 354 359 350 352 347 346 345 344 345 346 344 342 341 341 341 341 340 340 344 338 341 347 346 347 349 351 351 353
332 336 347 348 354 361 363 360 358 351 350 349 351 361 359 361 360 357 347 347 348 351 361 353 349 346 341 340 343 341 342 346 341 344 341 341 341 345 346 347 350 351 352
327 335 345 343 349 356 358 357 354 351 352 348 351 352 357 360 359 358 348 349 351 351 346 348 345 340 339 340 344 343 343 345 344 347 344 344 342 341 343 346 348 350 351
326 329 344 352 347 355 355 354 355 356 349 349 351 350 355 355 355 356 351 350 355 346 345 348 346 345 343 342 341 344 347 345 347 344 348 350 349 345 343 343 346 348 350
324 330 334 344 351 354 353 353 349 349 348 346 344 345 349 353 353 355 350 351 349 346 343 345 346 347 344 344 342 344 349 347 347 349 349 348 349 349 349 350 346 346 348
324 328 329 332 349 349 350 345 346 343 344 345 346 351 351 352 352 352 348 347 348 346 348 352 348 349 345 349 344 343 345 352 352 349 351 349 350 350 348 346 347 346 344
321 326 327 331 333 346 346 346 347 345 342 342 344 343 348 350 351 350 347 344 348 344 353 353 352 345 347 350 343 340 332 339 348 350 349 349 352 349 347 348 350 350 354
321 321 323 329 333 337 345 351 353 357 358 349 345 344 346 347 349 348 350 342 344 350 348 353 354 354 344 348 355 341 329 325 334 347 350 346 353 350 352 349 350 348 352
319 319 322 325 331 334 342 339 344 346 343 346 350 349 346 352 351 351 347 349 352 352 353 356 356 355 354 345 347 349 351 346 333 330 343 346 347 348 351 346 346 348 350
318 320 322 327 327 335 337 339 338 340 343 341 337 345 354 355 348 349 349 354 359 356 359 359 364 361 352 347 342 345 347 344 348 340 334 337 343 345 346 348 346 346 347
317 318 320 323 330 330 332 338 342 342 341 339 343 343 343 348 350 356 352 359 361 361 362 362 365 363 357 355 350 347 341 338 337 338 336 339 339 344 343 346 344 344 348

GFSSE_sfc_thetae_060.txt.gz
Theta_e
345 358 366 367 367 366 365 365 363 362 362 362 363 362 362 363 363 363 363 363 362 361 359 357 355 353 351 350 352 355 357 357 356 354 355 355 354 353 352 353 355 350 353
348 357 364 365 367 366 365 364 363 362 362 362 362 362 362 362 363 362 362 361 360 358 355 352 350 347 345 345 346 349 352 354 355 354 354 354 353 352 351 352 354 350 351
349 358 362 364 366 366 364 363 363 361 361 362 362 362 362 362 363 362 361 360 359 356 351 348 345 343 341 340 340 342 343 346 349 353 356 346 346 351 350 351 351 351 350
351 358 359 364 365 365 364 363 362 361 362 362 362 362 362 362 362 361 360 359 357 353 349 345 342 340 340 338 339 338 338 340 345 347 343 349 339 351 350 350 349 349 350
353 356 361 364 364 365 365 364 362 361 361 362 362 362 362 362 361 360 360 359 356 351 348 344 344 344 342 341 340 341 340 341 344 340 337 341 338 348 352 350 350 349 348
353 352 361 363 364 364 365 364 363 362 362 361 362 362 362 362 361 359 359 358 356 352 348 347 346 345 344 342 342 342 342 345 348 338 340 339 343 351 351 350 350 351 350
352 352 359 362 363 364 364 364 364 363 362 361 362 362 362 361 360 359 359 357 355 352 350 348 347 347 346 344 342 343 345 347 344 344 345 345 345 350 351 350 348 348 348
349 353 359 361 362 362 363 363 362 362 362 362 362 362 362 360 359 358 357 356 354 352 351 349 348 348 348 346 345 345 346 347 343 341 343 345 348 352 352 351 351 350 349
346 353 357 356 362 363 361 361 361 360 360 360 360 360 360 359 357 357 355 355 354 353 351 350 349 348 348 347 347 347 348 347 341 337 342 345 347 349 351 354 352 351 350
343 350 356 353 356 359 360 361 360 360 359 358 359 359 358 357 356 355 352 352 353 353 352 351 350 349 349 348 347 348 348 346 341 336 334 345 351 353 352 351 354 353 351
342 347 353 349 353 354 355 359 359 359 359 358 357 358 354 354 352 351 350 350 353 353 352 351 350 349 349 348 348 348 346 339 335 334 336 350 351 353 352 353 353 354 352
342 342 347 349 350 350 348 356 356 357 356 356 356 356 354 352 350 345 347 351 351 353 352 351 351 350 348 337 338 347 340 336 333 333 337 352 351 351 350 350 353 355 354
335 341 347 350 352 349 346 355 351 352 352 353 354 354 353 350 351 346 346 343 346 350 343 346 344 343 337 336 333 337 336 336 334 333 341 349 349 350 348 350 351 353 354
340 338 348 350 353 355 348 353 349 348 349 350 351 353 353 350 349 351 345 343 344 343 340 339 339 339 337 338 337 337 339 338 336 336 344 351 349 351 351 350 352 353 354
341 343 346 352 354 352 361 350 349 346 348 349 351 352 353 348 352 352 355 350 348 346 343 341 339 343 341 341 341 339 338 338 338 339 338 352 350 350 352 351 351 353 354
337 344 349 350 357 357 358 362 364 347 349 349 350 351 352 354 349 354 354 354 351 351 348 344 345 345 345 342 342 342 341 340 340 341 338 342 348 348 350 352 353 352 353
336 348 343 354 355 356 358 362 360 360 352 348 349 353 352 354 357 352 351 350 350 351 354 354 351 350 346 343 341 341 343 343 340 341 342 339 341 347 347 349 351 353 354
335 340 343 344 352 355 355 355 359 358 353 355 353 358 355 354 357 358 351 349 349 352 351 348 347 344 342 339 339 341 342 341 342 343 343 341 341 341 344 347 347 349 353
335 339 344 353 354 352 356 353 356 358 356 356 358 352 356 357 353 353 351 349 353 351 348 348 348 346 341 340 341 344 344 344 346 344 342 344 343 342 341 346 345 346 349
335 337 342 348 353 354 352 354 352 353 352 352 351 349 352 352 353 352 351 352 355 348 345 346 346 345 342 341 342 340 344 346 347 345 347 347 346 346 346 345 344 342 347
332 338 337 345 351 350 348 345 344 345 345 344 345 345 347 348 350 351 350 349 350 345 343 345 345 342 340 345 343 343 344 347 347 345 349 348 346 346 345 349 346 343 343
334 336 338 340 347 348 344 348 345 345 346 347 344 346 349 348 349 348 348 346 345 342 342 341 344 340 341 344 342 341 334 337 344 345 346 346 346 347 346 345 344 342 345
327 334 332 338 341 344 351 350 349 349 350 349 342 342 342 343 342 347 348 345 343 342 339 342 345 344 338 345 347 341 332 325 335 344 344 345 347 348 347 345 347 346 346
326 328 331 334 334 339 343 346 348 345 338 343 346 347 344 346 345 348 345 345 342 344 341 342 347 346 344 339 347 347 346 344 333 332 343 344 347 345 346 345 344 346 346
323 325 329 333 334 332 339 341 340 341 342 337 338 343 339 336 349 346 346 345 343 344 343 345 345 348 349 346 345 346 345 343 343 337 331 335 341 343 346 346 344 345 345
323 324 327 331 328 332 334 339 342 340 339 340 339 333 335 335 334 337 348 344 343 342 340 346 349 351 352 351 348 347 343 340 337 337 333 334 334 338 341 345 343 340 342

GFSSE_sfc_thetae_063.txt.gz
Theta_e
351 362 367 365 365 365 365 364 363 362 362 362 362 362 362 362 362 362 362 362 361 362 359 357 354 351 350 350 352 354 356 357 356 354 355 354 354 353 356 356 354 350 352
354 361 365 365 364 365 365 363 362 362 361 361 362 362 362 362 362 361 361 360 360 358 356 352 350 346 345 345 347 351 353 355 355 356 354 353 353 353 353 354 352 350 350
354 360 364 364 364 364 364 363 362 361 361 361 361 361 362 362 361 361 360 359 358 354 351 348 346 343 341 340 341 342 345 348 352 354 353 347 347 351 352 352 351 350 350
354 357 361 364 364 364 363 362 361 361 361 361 361 361 362 361 360 360 359 358 356 352 348 346 343 340 339 337 336 340 342 344 346 343 341 348 342 350 351 351 350 351 351
353 355 361 364 363 364 363 362 360 361 361 361 361 361 362 361 360 359 359 357 356 350 347 343 342 343 340 337 340 340 340 341 344 340 332 334 336 350 352 352 350 349 351
350 355 362 364 363 363 363 362 361 361 361 361 361 362 361 361 359 358 358 357 355 350 346 345 346 345 343 340 342 341 341 344 347 339 337 341 337 353 354 354 352 351 351
346 356 361 363 363 363 363 362 361 361 360 360 361 362 361 360 359 358 357 356 355 352 349 347 347 345 344 344 343 343 344 346 341 341 341 338 340 350 354 352 351 351 350
346 355 358 363 363 362 362 361 361 360 360 360 360 361 360 359 358 358 357 356 354 352 351 349 348 346 346 345 345 344 345 344 340 338 337 341 344 351 354 352 351 351 350
351 353 355 359 362 363 361 360 360 360 360 359 359 359 359 358 357 356 355 355 352 352 350 349 348 347 347 346 346 346 346 345 338 338 336 338 350 353 355 353 353 351 351
351 352 352 356 358 358 359 360 360 360 360 359 359 359 358 358 356 355 352 352 352 351 350 349 348 348 348 347 346 346 347 345 338 336 333 336 349 354 356 355 353 353 352
350 348 350 353 355 356 356 359 359 360 359 358 358 358 355 349 350 351 350 351 352 352 351 350 349 349 348 348 347 348 346 336 335 333 331 342 351 354 354 354 355 354 353
340 345 347 349 351 351 356 356 354 356 355 354 353 352 349 346 345 347 348 351 350 351 351 351 350 349 349 339 336 345 338 336 334 332 330 346 353 356 356 355 353 355 354
334 338 343 347 348 346 351 352 352 352 351 351 351 349 346 345 343 343 338 341 341 348 342 346 344 343 340 336 333 329 336 335 332 331 334 352 352 355 355 354 354 354 355
334 336 341 345 345 343 350 349 348 348 348 348 348 349 345 340 337 339 337 336 338 338 337 333 336 337 336 334 332 330 333 333 333 333 333 352 350 352 353 352 352 352 354
328 336 342 344 343 342 348 346 344 345 344 345 345 347 345 341 340 339 337 336 337 337 337 334 333 334 334 334 333 332 332 332 332 332 335 352 349 350 353 354 353 353 352
327 334 343 345 344 343 346 345 341 341 344 343 345 345 346 341 339 341 341 342 341 340 339 336 334 333 336 336 335 336 335 334 334 333 334 341 350 348 350 353 354 353 352
326 332 341 346 349 345 348 351 349 342 343 343 344 344 345 345 338 339 343 341 342 342 341 338 336 338 337 337 334 334 335 336 335 334 334 334 341 348 348 350 352 354 354
327 328 332 344 348 345 348 349 348 349 347 342 343 345 347 345 347 343 344 343 341 341 341 339 337 335 335 333 331 331 332 334 335 335 334 335 334 337 346 348 349 351 353
327 328 332 340 346 348 348 351 349 348 348 347 346 348 347 346 348 348 345 342 343 341 341 338 338 336 334 333 333 333 336 336 336 337 337 337 335 336 336 343 347 347 349
322 323 327 339 342 346 347 347 349 347 347 346 343 343 349 350 348 346 345 343 342 342 337 335 336 338 334 333 337 337 334 337 338 338 338 339 338 338 337 337 341 342 346
322 322 323 333 339 343 343 342 341 342 342 342 343 342 342 347 350 347 344 344 344 340 336 336 334 335 332 335 332 332 337 339 340 341 341 339 340 340 340 341 341 339 340
316 323 323 324 334 339 341 341 339 340 342 341 340 340 340 340 344 347 347 344 343 337 335 336 335 332 334 336 334 332 329 331 336 340 338 341 340 342 341 341 343 339 339
319 321 323 326 328 334 341 339 338 341 342 340 338 338 340 341 341 344 345 343 341 337 335 333 334 336 334 335 338 334 327 323 329 335 338 338 339 340 341 340 340 340 341
313 318 319 320 322 325 329 339 336 332 336 339 338 337 337 339 339 341 344 344 339 338 336 334 339 339 338 337 337 343 341 336 326 325 335 338 339 340 340 340 340 342 341
316 314 314 316 319 321 323 327 335 336 337 337 337 340 338 337 343 342 342 342 339 337 337 338 337 338 342 341 339 337 338 339 336 330 325 328 335 337 339 340 339 339 340
313 315 313 315 317 318 322 325 326 327 329 333 333 331 333 336 334 336 345 342 341 340 338 341 341 341 337 334 334 329 326 329 333 332 329 328 327 331 336 340 338 338 339

GFSSE_sfc_thetae_066.txt.gz
Theta_e
354 361 365 365 364 364 363 363 362 361 360 361 361 361 361 361 361 362 362 362 362 361 358 355 352 350 349 349 351 353 354 355 355 354 354 353 353 354 358 355 352 350 351
357 361 364 364 364 364 363 363 361 360 360 360 361 361 361 361 361 361 361 361 360 358 354 351 348 346 345 346 347 350 352 354 356 354 353 352 352 353 354 352 351 349 349
357 361 362 363 364 363 362 361 360 360 360 360 360 360 360 360 361 360 360 359 358 354 351 347 345 343 341 341 341 343 346 349 352 353 352 346 345 351 352 352 349 349 349
358 360 360 363 363 363 362 360 360 360 360 360 360 361 360 360 360 359 358 358 355 351 348 345 342 340 338 337 337 338 340 342 344 343 339 346 343 349 351 351 350 351 350
356 359 360 363 363 363 361 360 360 359 359 360 360 360 360 359 359 358 358 356 354 349 346 343 341 341 339 336 339 339 341 343 342 337 331 330 335 348 350 350 349 349 350
353 358 362 363 362 362 361 360 360 359 359 360 360 360 360 359 358 357 357 356 354 349 345 343 343 343 341 338 341 341 341 344 346 338 338 340 335 353 352 351 350 349 351
350 356 361 362 362 362 361 360 360 360 359 359 360 360 360 358 357 357 357 355 354 351 346 344 345 344 343 343 341 342 343 343 337 337 337 337 336 351 355 354 352 351 350
350 355 359 362 362 360 360 359 359 359 359 359 359 360 359 358 357 357 356 355 353 351 349 347 346 344 344 345 344 344 344 342 337 336 335 333 341 350 354 353 353 352 349
352 353 358 359 361 362 360 358 358 358 358 358 358 358 358 357 357 356 355 354 352 350 350 348 347 346 345 345 345 344 345 344 336 335 336 331 346 350 354 353 352 352 351
350 351 354 357 357 357 358 359 358 358 357 357 358 357 357 357 356 355 351 352 351 350 349 348 347 346 346 345 345 345 345 344 336 334 332 330 344 351 355 354 354 353 352
348 347 351 355 354 354 356 359 359 360 358 357 358 357 354 350 350 351 350 351 351 350 350 349 348 347 347 346 346 346 344 335 334 333 330 337 345 353 356 356 354 354 353
344 345 348 353 352 352 354 356 356 356 355 355 354 353 350 346 345 349 349 350 351 350 350 350 349 349 347 338 336 341 336 335 334 333 330 340 345 352 355 355 355 354 353
344 345 347 350 351 351 352 352 353 354 354 353 352 350 347 346 346 345 341 343 341 347 340 344 342 342 338 337 335 331 330 333 333 333 333 342 344 353 357 356 354 354 353
337 344 345 348 348 349 351 351 350 350 350 349 349 347 345 343 340 339 337 336 336 336 337 335 336 336 337 336 334 331 328 330 332 332 331 343 345 353 357 357 355 354 353
331 340 344 346 346 343 349 349 349 348 348 347 346 346 344 340 337 338 334 334 335 333 334 332 331 333 333 333 333 331 329 329 331 332 331 343 350 352 355 355 354 353 353
330 335 342 343 344 343 347 345 347 347 347 346 345 346 343 340 337 334 335 334 333 333 333 333 331 331 331 331 332 331 331 330 331 332 332 331 350 349 350 353 354 354 353
326 335 338 342 342 342 344 342 342 344 344 344 344 344 345 339 336 338 336 337 336 336 336 335 334 332 330 333 332 333 334 334 334 333 333 331 340 349 348 350 353 354 355
324 333 337 344 341 343 344 344 341 340 342 342 343 344 345 345 338 336 340 339 339 340 339 337 337 335 334 333 330 330 330 331 332 333 334 332 332 336 347 349 350 352 354
324 326 328 343 344 342 346 347 347 342 342 342 343 343 344 345 345 338 336 340 341 338 337 337 336 334 332 330 331 331 331 332 333 336 334 334 333 334 334 342 348 348 350
323 327 334 339 344 345 343 342 342 344 345 343 342 343 345 344 345 346 344 340 340 339 338 336 333 335 334 332 334 333 332 333 334 335 337 338 336 335 334 334 337 343 347
319 320 327 332 335 343 342 339 338 339 340 340 342 344 346 345 345 345 346 343 340 338 337 336 332 332 332 332 330 329 330 333 334 336 338 336 337 338 336 336 335 337 338
317 317 320 328 335 336 341 340 337 337 338 339 340 341 344 348 347 345 343 342 342 340 337 335 333 330 332 334 327 327 324 328 329 335 336 339 339 338 339 339 338 338 337
316 318 320 322 329 335 336 337 336 338 337 336 336 336 338 342 345 348 346 345 341 341 339 334 333 332 329 333 334 329 324 321 327 330 335 339 339 338 339 339 340 340 339
315 318 320 322 324 324 326 333 331 330 331 333 333 334 336 340 340 340 342 345 344 341 339 335 334 335 335 332 334 336 333 333 326 322 330 333 337 339 339 338 338 337 338
316 314 315 316 317 318 320 324 330 332 331 331 334 336 334 336 338 339 340 342 342 340 340 336 335 335 337 335 335 335 333 328 325 321 317 321 329 339 340 337 337 336 339
310 310 311 312 313 315 318 321 324 325 326 328 331 330 333 334 334 337 341 340 341 339 337 338 338 336 336 340 340 336 329 322 321 322 319 321 326 333 335 336 336 336 337

GFSSE_sfc_thetae_069.txt.gz
Theta_e
352 359 364 364 363 362 362 362 362 362 362 362 362 362 361 361 361 362 362 362 361 360 358 355 352 351 350 350 352 353 353 353 354 353 352 352 354 354 355 353 351 348 350
355 359 364 363 363 362 362 362 361 361 361 361 361 360 360 361 361 361 361 361 360 357 354 351 349 347 347 348 350 351 353 354 356 353 352 351 352 354 353 351 350 347 348
355 358 361 363 363 362 361 361 360 359 360 360 360 360 360 361 361 360 360 360 358 354 351 348 346 344 343 344 345 348 350 352 353 353 350 344 344 352 352 350 349 348 348
356 358 359 363 362 362 361 360 359 359 359 359 359 360 360 360 360 359 358 357 354 351 348 345 343 341 340 339 340 342 343 344 344 344 338 342 343 350 351 351 350 350 349
355 357 358 363 362 362 361 360 358 358 358 359 359 359 359 359 358 357 357 356 352 349 347 344 342 342 340 339 338 338 338 341 341 336 331 331 331 345 350 350 350 349 350
355 357 361 362 361 361 360 360 358 358 359 359 359 359 358 358 357 357 356 355 353 348 345 343 343 343 341 339 339 339 340 343 342 337 337 337 334 351 350 350 350 349 350
353 356 359 361 361 361 360 360 358 358 358 358 359 359 358 357 357 356 356 354 352 349 345 343 343 344 342 340 340 341 342 339 334 334 333 333 334 349 353 352 351 350 350
352 356 358 361 361 360 360 359 358 357 358 358 358 358 357 356 356 356 356 354 353 350 347 345 345 344 342 342 343 342 342 340 335 333 333 330 339 347 351 355 353 350 349
352 355 356 358 359 360 359 358 358 357 357 357 357 357 357 356 356 356 355 354 352 350 349 348 346 345 344 344 344 343 344 342 335 334 335 331 340 348 350 355 352 351 349
350 354 354 355 356 355 356 358 358 357 357 356 357 357 356 356 355 355 352 352 351 350 349 348 346 345 345 344 344 344 343 342 333 331 331 329 341 344 350 355 353 352 352
346 349 352 353 354 354 354 356 357 358 357 356 356 356 353 350 350 351 350 352 351 350 349 348 348 346 345 345 345 345 344 333 332 331 330 336 340 342 351 355 355 353 352
342 346 350 351 350 352 354 354 352 353 353 352 352 352 349 347 345 348 348 351 351 350 350 349 348 347 346 336 333 338 333 332 332 332 331 339 343 344 349 355 356 354 353
344 346 349 350 350 349 351 353 352 352 351 352 350 349 346 346 346 346 341 343 340 347 339 343 341 340 337 335 334 332 330 329 329 331 333 342 344 344 349 355 355 355 353
342 344 348 349 348 349 350 351 351 351 351 350 350 347 344 342 341 340 338 336 335 335 334 333 334 335 334 336 334 332 330 328 328 330 331 342 345 347 350 356 356 355 353
340 342 347 349 348 349 349 349 349 348 349 349 349 347 345 341 338 337 335 333 332 331 332 331 331 331 331 332 333 331 330 328 328 329 329 340 345 347 353 357 356 356 354
335 340 344 347 348 349 348 348 348 349 349 348 347 347 344 341 336 335 334 332 332 332 331 331 331 329 329 330 330 331 330 329 329 329 330 331 342 345 352 355 355 356 355
330 338 341 343 346 346 347 347 347 348 348 347 347 347 346 341 337 333 334 333 332 332 332 332 332 331 330 330 330 331 331 332 332 332 333 332 332 343 349 350 352 353 354
325 332 338 344 342 342 346 345 345 346 346 346 346 346 346 343 339 336 334 334 336 335 335 334 334 333 332 332 331 331 331 330 330 331 333 333 331 332 344 350 350 352 351
324 332 336 340 339 339 342 342 341 341 342 341 342 343 344 344 341 337 336 337 337 335 337 336 336 333 332 331 331 332 331 331 332 334 333 332 332 332 332 341 347 349 350
322 330 336 339 339 340 341 341 340 338 339 341 339 340 341 344 344 338 335 334 339 337 335 335 334 333 333 332 333 334 332 331 332 332 333 335 334 334 332 334 335 340 347
322 327 335 337 339 340 339 339 337 338 337 338 341 341 341 342 343 342 340 339 337 336 336 336 333 332 331 333 329 328 328 331 331 332 333 334 335 337 336 336 334 335 337
320 325 328 332 338 340 340 337 337 337 337 336 337 341 344 343 342 341 342 342 342 339 337 336 333 330 331 332 326 325 322 328 328 331 334 335 336 338 338 339 337 336 336
314 318 323 329 333 336 338 336 335 336 334 335 334 336 339 344 344 343 342 341 342 342 339 337 335 331 330 331 331 324 320 320 326 330 330 335 332 334 335 338 339 338 338
314 315 318 321 328 331 335 333 330 329 332 333 333 333 336 338 337 343 344 342 341 341 339 337 337 333 331 329 332 334 331 329 325 320 328 328 328 329 332 337 338 340 339
312 316 318 320 319 320 322 327 329 328 328 329 331 333 332 334 336 338 339 340 343 342 341 340 336 333 333 332 332 332 332 332 326 320 318 319 325 327 331 335 339 337 336
311 313 314 315 314 315 319 321 322 324 325 326 328 329 330 332 333 334 337 337 339 339 338 339 338 334 336 335 335 334 333 326 323 321 315 317 320 325 331 334 336 337 335

GFSSE_sfc_thetae_072.txt.gz
Theta_e
348 357 363 363 363 362 363 364 363 363 363 363 362 362 361 361 361 362 361 361 361 360 358 356 353 351 351 351 353 353 354 355 353 352 352 354 354 354 354 351 350 347 348
352 358 361 362 363 363 363 363 362 362 362 362 362 362 361 361 361 361 361 361 360 358 355 352 350 349 349 350 351 353 354 355 355 353 352 352 354 354 352 350 349 347 347
353 359 360 362 362 362 362 361 361 361 361 361 361 361 361 360 361 361 360 360 359 355 351 349 347 347 347 349 351 353 354 354 355 351 349 346 349 352 350 349 349 349 346
355 358 358 362 362 362 361 360 360 360 361 360 360 360 360 360 361 360 360 358 355 352 349 346 345 344 344 345 347 348 349 349 350 350 345 346 344 350 351 349 349 349 347
354 357 358 362 361 361 360 360 359 359 359 359 360 360 360 360 359 358 358 356 353 350 347 345 343 345 344 343 344 343 343 344 343 336 337 336 338 347 351 350 350 350 349
353 356 360 361 361 360 360 359 359 359 359 359 359 359 359 359 357 356 356 355 353 349 346 345 345 344 343 342 341 341 343 345 342 339 340 338 337 343 350 349 349 350 350
351 355 360 361 360 360 360 359 358 358 358 358 358 358 358 357 356 356 355 354 353 351 347 344 345 344 343 342 342 342 343 342 336 337 336 335 338 348 352 351 351 350 349
351 355 357 360 360 359 359 358 357 357 357 357 357 357 357 356 355 355 355 354 353 350 348 346 345 343 341 341 341 341 343 341 335 335 336 335 339 344 350 354 354 351 349
353 354 354 356 358 359 358 357 357 356 356 356 356 356 356 355 355 355 354 354 353 351 349 348 345 344 342 341 343 343 343 340 336 336 335 335 337 344 348 354 353 352 350
351 351 353 353 355 354 355 358 357 356 356 355 356 356 355 355 355 355 352 353 352 350 349 347 345 344 343 343 344 343 342 341 334 333 334 333 338 340 343 352 355 353 352
350 350 351 352 352 353 352 355 357 357 356 356 356 355 352 351 351 351 350 351 352 350 349 348 346 345 344 344 344 344 343 336 334 334 334 336 340 342 343 353 355 354 353
343 347 349 350 351 351 353 352 351 352 353 352 352 352 349 347 347 348 349 351 352 350 349 348 347 346 345 338 335 337 333 332 331 332 334 339 343 343 345 351 354 354 354
342 346 348 349 349 350 350 351 351 351 351 350 349 350 346 345 346 347 344 347 345 348 342 345 343 342 339 337 336 335 334 333 332 332 334 341 344 345 347 352 355 355 354
341 345 348 348 349 350 350 350 349 349 349 349 350 350 345 343 342 342 341 339 339 339 338 336 336 337 337 337 337 336 334 333 332 333 334 340 344 345 348 353 355 356 354
340 343 347 348 348 348 347 349 349 348 349 348 348 348 347 343 341 341 339 336 336 335 335 334 334 334 334 335 335 335 334 334 334 333 334 339 344 346 347 353 357 358 356
340 341 347 347 347 348 348 348 347 348 348 347 348 347 346 344 341 339 338 336 334 334 334 334 333 333 333 334 334 335 335 335 335 335 335 336 341 344 346 352 356 358 357
340 342 344 346 346 347 348 347 346 347 348 347 348 348 347 344 340 339 337 335 334 334 334 334 334 334 333 334 334 335 336 337 336 337 338 338 337 340 344 349 354 355 356
334 339 343 346 346 346 347 347 347 347 348 348 348 347 347 345 342 337 335 335 336 335 335 334 335 335 336 336 336 337 336 336 337 336 337 338 338 337 340 347 350 352 353
328 337 339 342 343 344 346 346 345 345 346 345 344 345 346 346 344 340 338 335 336 337 337 337 337 338 336 336 335 336 336 336 337 338 338 338 340 339 338 340 346 349 351
317 329 338 340 341 342 343 342 339 339 343 344 343 343 343 345 344 340 338 336 337 335 336 337 337 336 336 337 336 336 337 337 337 336 337 339 340 341 340 340 341 345 347
312 325 332 336 338 339 338 338 337 335 337 338 340 341 341 343 344 342 339 335 336 337 337 338 338 336 334 336 334 333 332 334 334 335 340 340 340 342 341 342 341 341 343
314 321 330 335 335 338 339 340 339 339 337 339 340 340 341 342 342 342 341 339 337 335 337 338 337 334 334 334 332 329 322 328 333 339 338 339 339 341 341 343 343 342 342
316 322 329 335 337 337 338 337 336 336 335 335 337 338 340 342 342 342 342 341 341 340 338 338 338 335 333 333 333 330 323 321 328 334 336 337 339 335 337 341 343 343 343
315 320 326 330 335 337 337 337 335 333 333 334 337 339 339 342 343 344 343 343 343 343 342 340 340 338 336 331 333 335 334 333 327 326 331 333 333 331 332 336 341 343 346
313 315 320 326 329 334 337 337 333 330 330 331 333 335 336 338 339 341 341 341 340 340 340 339 338 336 335 334 333 333 333 334 333 330 326 329 328 329 330 335 339 343 344
310 313 315 319 322 325 330 331 333 330 330 330 330 330 333 334 336 337 339 336 340 340 341 340 340 335 334 337 336 334 334 333 331 326 325 324 323 327 332 337 340 343 344

GFSSE_sfc_thetae_075.txt.gz
Theta_e
350 358 364 364 364 365 366 366 365 363 362 362 361 361 360 361 361 362 362 362 362 361 358 356 355 354 354 353 353 354 356 355 354 354 354 354 353 356 351 350 348 345 348
354 360 363 363 363 364 365 365 364 363 362 362 362 361 360 361 362 362 362 362 361 359 356 354 351 351 351 351 352 354 355 356 355 353 353 354 355 354 351 349 346 347 348
356 362 361 363 363 364 364 364 363 362 362 362 362 361 361 361 361 361 361 361 360 357 353 350 349 349 350 351 353 354 354 355 354 351 349 346 347 352 350 348 347 347 346
359 361 360 362 363 363 363 362 362 362 362 362 361 361 361 361 361 361 361 360 357 353 350 348 348 348 349 351 353 353 354 354 353 352 349 349 346 351 350 348 348 347 345
359 361 361 362 362 362 362 361 361 361 361 361 361 361 360 361 360 360 360 359 355 350 348 346 346 348 348 347 349 349 348 346 344 340 346 348 349 348 351 350 350 349 347
358 359 361 361 361 361 362 361 360 360 360 360 361 360 360 360 359 358 358 357 354 351 348 347 346 346 346 344 344 343 344 344 340 346 347 344 348 349 351 351 350 350 349
356 358 360 361 361 361 361 361 360 360 359 359 360 360 360 359 358 357 356 356 354 352 349 346 345 345 343 343 342 343 343 342 342 345 343 340 347 344 351 351 350 350 350
354 357 359 360 360 360 359 359 358 358 358 358 358 358 358 357 356 356 355 355 353 352 350 347 347 344 343 343 343 342 342 339 337 336 337 340 341 344 349 352 353 351 350
355 357 358 358 359 360 358 357 357 357 357 357 357 356 356 356 355 355 354 354 353 352 350 348 346 345 343 343 343 342 342 342 338 337 334 336 335 339 347 352 353 353 351
353 355 356 356 355 355 357 358 357 357 356 356 356 356 355 355 355 355 352 353 353 351 350 348 346 345 344 343 342 341 340 341 336 334 336 340 338 341 341 348 354 355 353
350 354 355 355 355 353 352 355 357 357 357 356 356 356 352 348 350 351 349 353 353 351 350 348 346 345 344 343 342 342 343 338 336 334 334 342 341 343 344 348 354 356 355
346 351 354 355 354 354 351 353 353 352 352 353 353 355 351 351 350 347 349 352 352 350 350 348 347 346 343 340 338 339 336 338 338 339 337 339 342 344 347 350 352 356 356
345 349 352 355 356 353 351 353 352 352 353 353 354 354 353 351 351 348 346 346 348 348 342 343 343 341 341 341 340 339 338 339 341 342 344 340 344 345 348 351 353 355 356
344 347 351 353 355 355 353 352 351 351 352 351 351 354 351 349 349 349 345 346 348 344 343 343 340 343 343 343 343 342 342 342 343 344 345 343 344 344 347 351 356 356 356
343 347 350 353 353 352 354 352 352 351 352 351 351 353 350 347 347 348 348 346 345 344 343 342 340 340 342 343 344 345 344 345 346 345 346 346 344 346 346 348 353 357 358
345 347 349 351 354 352 354 354 352 353 353 352 352 352 351 350 348 347 348 346 344 344 342 341 341 342 342 343 345 347 347 347 347 348 347 348 344 344 346 347 349 357 359
347 349 349 351 353 353 356 355 353 352 352 352 351 353 351 351 350 349 346 345 344 345 346 344 344 344 343 345 348 349 349 350 348 349 349 347 346 345 344 347 348 354 358
348 349 351 350 352 355 356 355 354 352 352 352 352 352 351 351 352 349 346 345 346 345 343 343 343 343 344 347 348 348 348 349 349 349 349 348 346 349 348 345 347 351 355
345 350 350 352 351 354 354 354 354 357 353 351 349 348 351 352 351 349 347 347 349 344 342 342 343 344 346 347 346 346 347 346 348 346 348 347 349 351 351 349 344 347 351
334 344 349 350 353 353 351 353 352 352 352 350 345 347 350 353 352 350 348 347 347 343 342 342 345 347 346 345 343 344 346 346 346 346 345 344 350 351 351 352 352 349 345
324 332 344 347 350 350 347 346 345 344 349 350 350 352 351 350 352 353 349 349 347 345 344 343 343 344 343 343 342 342 341 344 344 345 344 347 348 348 349 347 349 350 350
323 326 334 345 349 349 348 349 346 346 346 348 350 351 352 351 350 350 351 349 347 343 345 345 345 342 345 344 341 336 330 336 340 345 345 345 347 347 343 343 345 348 353
321 325 329 340 348 349 350 349 348 348 346 344 345 346 348 349 350 351 349 349 348 345 341 344 345 346 340 341 344 339 330 327 333 342 343 343 345 345 344 343 344 345 347
323 326 327 334 345 346 349 346 347 342 340 343 344 345 346 348 348 348 349 348 350 346 347 345 346 347 344 343 339 340 343 341 332 327 339 340 344 342 345 341 341 338 345
318 325 329 334 341 346 347 349 345 346 346 346 346 348 349 348 349 347 349 349 349 350 351 349 346 345 343 339 338 337 341 339 341 332 327 334 338 341 341 338 340 342 347
315 320 328 334 340 345 346 348 348 347 346 344 346 345 346 347 347 350 350 351 350 350 349 345 340 333 334 332 332 334 335 334 334 335 332 333 333 337 339 339 339 342 348

GFSSE_sfc_thetae_078.txt.gz
Theta_e
350 360 365 366 367 367 366 365 364 363 361 362 361 361 361 361 361 363 364 363 362 361 359 360 359 357 354 353 354 355 355 355 354 354 354 353 355 354 351 348 349 345 349
351 361 364 364 366 367 367 366 364 362 362 361 362 361 361 361 362 362 363 363 362 359 357 355 354 353 352 353 353 354 354 354 353 353 354 355 354 353 349 347 350 347 348
352 362 362 364 365 367 366 365 363 362 362 361 361 361 361 361 362 362 362 362 361 357 354 352 351 350 351 352 354 355 354 353 352 350 350 348 347 351 349 348 348 346 345
355 362 361 363 365 366 365 364 363 362 362 361 361 361 361 361 362 362 362 361 358 354 351 350 350 350 351 353 354 354 353 352 350 349 350 348 345 350 349 348 348 346 344
357 361 363 363 364 364 363 364 362 362 362 361 361 361 361 361 361 361 361 360 356 352 350 349 349 350 351 353 354 353 353 352 349 346 349 352 353 349 351 350 350 349 347
357 359 362 361 363 363 364 363 362 362 362 361 362 361 361 361 360 360 360 358 356 352 349 349 349 348 349 349 348 346 344 342 343 349 351 347 350 349 351 351 351 349 349
355 358 363 361 362 363 363 363 362 362 361 361 361 361 361 360 359 359 358 357 355 354 350 347 347 348 347 346 343 344 342 343 345 348 349 343 348 348 351 351 351 351 351
353 358 360 361 361 361 361 361 361 360 360 360 360 360 360 359 358 358 357 356 355 353 351 347 346 345 344 344 344 344 341 342 340 338 336 342 341 343 349 352 353 352 351
353 356 358 357 359 360 360 359 359 359 359 358 358 358 358 358 357 356 356 355 354 353 351 349 346 345 344 343 342 342 340 342 339 336 335 339 342 341 348 352 354 354 352
352 353 356 356 355 355 356 359 358 358 358 357 358 357 357 356 356 355 353 354 354 352 350 348 346 344 342 342 341 340 340 342 338 334 336 343 338 341 342 349 354 356 355
348 352 354 355 355 353 351 354 357 358 358 357 357 357 354 353 354 353 348 353 353 352 350 348 347 345 342 342 342 341 341 336 335 334 335 344 341 344 346 347 351 355 357
345 348 352 356 355 353 350 354 353 353 353 354 354 357 354 352 349 345 348 353 352 350 348 347 346 343 341 337 338 341 336 340 341 341 339 340 340 345 347 349 353 354 356
346 347 350 357 359 354 351 352 351 351 351 352 353 356 355 350 349 345 345 346 346 348 341 342 342 339 339 339 339 339 340 343 344 345 346 344 343 346 348 350 354 355 354
344 347 351 355 358 359 353 352 352 350 351 349 349 355 353 350 349 347 342 342 345 342 341 341 339 341 343 347 347 346 347 347 347 347 350 347 346 345 348 350 354 357 356
345 348 350 355 357 359 359 353 354 352 351 351 350 352 352 349 349 346 346 344 345 342 343 341 339 341 345 349 350 350 349 350 350 349 347 350 347 346 347 349 351 355 358
343 349 352 353 360 359 358 360 356 357 354 352 349 350 353 349 352 346 348 347 345 344 341 341 340 341 346 348 350 353 352 351 351 352 348 349 349 346 347 347 349 352 356
338 347 353 354 356 360 360 358 356 354 353 352 350 354 353 352 355 351 346 346 344 347 348 346 345 345 345 348 349 351 351 352 351 351 351 350 349 347 347 348 347 349 351
339 347 353 353 355 359 359 359 356 354 353 352 352 354 356 354 352 352 345 345 347 347 345 343 342 342 346 347 348 349 350 351 350 350 350 350 348 350 351 349 347 347 348
337 349 353 356 355 358 359 357 358 361 355 352 353 352 355 354 353 351 346 345 351 345 343 342 341 345 343 345 344 349 351 350 350 346 348 349 350 351 349 351 348 346 347
329 343 355 357 358 359 358 359 354 353 353 353 353 353 355 352 353 354 349 351 351 346 342 343 348 343 343 343 341 346 350 349 349 348 348 347 348 350 349 352 351 349 348
327 333 345 355 359 358 354 352 351 348 351 351 353 355 354 355 354 356 349 353 353 349 350 353 346 346 342 346 344 346 346 349 349 345 347 346 347 349 349 347 346 346 348
325 329 335 348 355 358 355 356 354 352 351 351 351 354 353 352 353 355 352 352 353 349 353 351 349 340 340 344 343 339 332 337 341 348 347 348 348 347 347 347 349 350 349
324 328 331 340 353 357 358 355 353 352 350 347 350 350 354 353 353 355 356 355 354 352 347 354 351 347 335 345 353 341 333 325 335 342 348 345 351 345 348 348 349 348 349
322 325 330 334 341 350 358 354 355 346 344 347 348 350 352 353 353 353 357 354 356 351 349 350 349 349 347 339 348 347 344 340 332 328 339 342 346 349 353 348 345 346 348
321 323 328 334 337 343 355 355 352 352 347 348 348 354 355 354 353 351 353 353 353 349 350 353 351 349 345 343 342 338 333 333 333 333 326 331 339 339 345 345 345 345 350
321 321 324 330 336 338 346 352 357 355 353 347 350 349 349 349 350 353 351 353 351 353 354 353 354 351 347 343 340 336 330 327 326 326 326 331 336 339 340 343 345 343 345

GFSSE_sfc_thetae_084.txt.gz
Theta_e
354 362 366 366 365 364 364 364 362 362 362 362 362 362 362 362 364 364 364 364 364 364 363 360 358 357 357 355 356 358 357 357 356 354 356 356 352 350 350 352 354 345 350
357 363 365 364 364 364 364 363 362 362 362 363 361 362 362 363 364 363 363 363 364 363 362 359 355 355 356 354 354 355 355 355 353 354 354 355 353 351 350 350 351 346 349
358 364 365 364 364 364 364 363 361 361 362 362 361 361 361 363 364 363 362 362 361 361 358 355 353 353 353 354 354 354 353 351 350 350 354 350 346 351 350 350 348 346 346
360 363 363 364 364 364 363 362 361 361 362 361 361 361 361 363 363 363 362 362 360 357 354 352 352 353 355 355 353 353 352 349 352 354 350 350 342 352 350 349 348 346 344
360 362 365 365 364 364 364 362 361 361 361 361 361 361 361 362 362 362 362 361 359 355 352 351 354 356 355 354 354 354 352 353 356 351 347 341 346 350 352 349 349 348 347
357 358 364 365 364 364 364 362 361 361 361 361 361 361 362 362 362 361 361 359 357 355 354 354 355 356 356 354 354 352 351 352 349 341 345 343 347 354 354 351 352 351 348
354 362 363 364 365 365 364 363 362 361 361 361 361 361 362 361 361 361 360 358 356 354 353 353 353 354 354 353 351 349 347 347 339 339 341 343 348 353 354 352 351 350 349
351 361 361 364 364 364 364 363 362 361 361 361 361 361 361 360 360 360 359 357 356 354 353 351 350 350 350 348 346 345 344 344 338 335 336 338 350 353 354 353 354 353 352
351 359 359 359 363 363 363 362 362 361 360 360 360 360 360 360 359 359 358 357 355 354 352 350 349 347 345 343 343 343 343 345 335 331 334 340 349 351 350 353 355 355 355
347 357 356 357 358 361 361 362 361 361 360 359 359 360 359 359 359 358 355 356 355 353 352 349 347 345 343 343 343 343 344 345 336 332 332 339 345 348 348 351 353 354 356
346 353 354 355 357 357 359 361 361 362 361 359 359 359 356 354 355 354 352 354 354 353 351 348 346 345 344 344 345 345 346 335 331 333 336 348 349 350 347 349 350 351 354
343 347 352 354 354 354 353 361 360 360 359 359 358 358 356 355 353 352 351 354 353 352 350 348 347 346 344 334 335 345 338 333 332 338 340 350 350 351 350 352 353 354 353
343 345 349 353 354 351 350 359 358 359 359 359 358 359 357 354 355 350 350 348 348 350 343 343 342 338 335 333 333 336 335 336 336 342 344 350 348 349 352 353 354 355 355
336 347 350 353 354 353 350 354 352 352 355 356 358 360 356 354 355 347 346 344 345 341 338 337 336 336 336 338 339 342 343 342 343 346 346 350 349 350 353 354 354 355 355
335 342 350 355 355 354 361 353 351 348 351 351 352 355 355 351 352 348 347 345 342 340 337 339 337 337 340 342 343 345 345 346 349 348 348 352 350 350 353 355 355 356 356
330 342 346 358 357 358 355 364 354 349 352 349 350 350 353 350 353 349 349 350 341 340 338 338 343 346 342 342 345 350 351 351 351 351 348 349 351 351 352 354 355 356 356
331 336 353 355 360 359 356 360 362 356 353 348 348 354 349 354 355 347 346 347 346 343 350 342 347 345 345 341 345 352 351 352 351 351 351 348 349 350 351 352 352 354 354
338 342 348 350 361 360 359 357 359 354 352 351 349 350 351 354 354 348 344 345 345 350 350 348 346 342 340 340 341 346 349 350 352 351 351 348 348 349 349 350 351 352 353
335 336 341 351 355 361 360 357 356 360 358 355 351 350 351 351 351 348 344 344 349 349 347 345 345 342 339 339 342 346 349 349 349 346 346 348 350 346 350 350 351 351 352
336 340 340 347 362 362 361 359 358 356 355 355 353 349 352 349 350 351 345 346 350 346 345 344 342 342 341 342 339 337 346 348 349 349 347 348 348 350 351 349 348 350 350
334 336 341 342 363 362 359 355 354 352 354 354 351 356 352 350 350 347 347 349 347 344 343 344 343 343 338 343 340 339 342 348 348 348 350 347 346 348 350 346 348 345 346
332 340 341 343 349 360 355 357 355 353 353 354 355 353 355 352 351 347 347 343 344 342 343 345 341 338 341 343 336 336 330 336 346 350 347 346 344 348 350 350 348 348 349
330 336 337 339 345 347 358 357 356 355 353 350 351 352 353 353 353 349 348 344 343 343 342 343 346 342 336 338 343 336 330 329 338 346 347 347 345 345 344 344 344 347 349
326 328 331 339 342 343 343 352 352 348 345 346 349 351 349 354 354 350 349 348 345 345 343 345 346 344 342 336 338 341 346 341 332 331 341 343 341 339 341 342 342 348 349
325 330 334 338 337 339 343 339 345 344 349 350 351 351 352 353 353 352 351 350 346 346 348 346 345 347 344 339 338 345 340 338 336 331 325 332 335 336 334 338 338 345 343
323 324 328 334 337 338 340 345 339 342 344 345 346 345 346 348 351 352 352 352 353 349 351 349 351 349 347 343 340 345 339 334 331 329 327 327 327 329 333 334 334 339 343

GFSSE_sfc_thetae_087.txt.gz
Theta_e
357 362 365 365 364 363 363 362 362 362 362 361 362 363 363 362 362 364 364 364 363 363 361 358 355 355 357 355 354 357 357 358 358 357 354 352 351 351 353 355 349 347 350
360 362 364 364 364 364 363 362 362 362 362 361 362 362 363 362 362 363 363 363 363 363 360 356 353 354 355 354 354 355 356 356 357 358 355 352 351 351 351 349 348 347 349
359 361 362 363 364 364 362 362 361 361 361 361 361 362 363 362 362 362 362 363 363 361 359 354 353 353 354 353 353 354 354 354 353 355 356 348 346 351 351 349 347 347 347
360 359 360 363 364 364 362 361 361 361 361 361 361 362 363 362 362 362 361 361 361 358 355 353 352 354 354 353 352 353 353 354 356 354 349 349 343 351 351 350 348 346 346
358 360 361 363 363 363 363 361 360 361 361 361 361 361 362 362 361 361 360 359 359 355 353 352 353 356 356 354 354 354 355 355 354 347 341 343 341 351 352 352 350 349 348
357 361 363 363 362 363 362 361 361 361 361 360 361 361 362 362 361 360 360 358 357 356 355 354 356 356 356 356 355 355 353 350 349 336 338 345 341 355 355 354 353 350 349
357 360 362 363 362 363 362 362 361 361 360 360 361 361 361 360 360 360 359 358 356 355 355 354 355 355 355 355 354 351 347 346 338 334 335 343 344 353 355 355 354 353 352
357 359 361 364 362 362 361 360 360 360 359 360 360 360 360 359 359 359 358 357 356 355 354 354 353 352 352 351 349 346 343 344 336 331 329 339 349 354 356 355 354 354 353
358 357 358 361 363 362 361 359 359 359 359 359 358 358 359 359 359 358 357 356 355 353 352 350 350 349 347 345 344 342 342 344 335 331 330 338 353 354 356 355 355 354 354
355 355 356 358 360 360 359 361 359 359 359 358 358 358 358 358 358 357 354 354 354 352 351 348 346 344 342 341 340 341 343 344 333 330 328 332 350 352 354 354 355 355 355
355 353 353 355 356 357 358 360 360 361 359 358 358 358 355 354 353 354 353 355 353 352 350 347 345 343 341 342 342 344 346 331 330 328 329 346 349 352 352 350 351 352 354
349 350 350 352 353 354 358 357 357 357 358 356 355 355 352 350 349 351 351 354 353 351 350 348 345 344 343 330 329 343 336 333 330 327 330 349 350 353 353 352 352 352 352
342 342 347 351 352 351 354 354 354 354 356 353 354 353 349 349 350 349 345 348 344 349 341 342 339 336 332 329 328 329 332 331 330 330 339 351 351 355 355 354 353 354 353
337 344 342 348 349 349 352 354 354 354 353 352 352 352 350 347 347 342 343 341 339 339 335 333 331 330 328 328 327 330 331 331 333 333 340 352 350 352 354 354 354 354 354
329 341 334 345 348 347 350 352 352 353 353 353 353 354 351 347 342 341 340 340 339 335 334 330 329 329 328 328 330 333 336 336 338 341 337 352 350 350 353 355 356 355 355
320 341 343 347 346 344 340 347 348 348 352 352 353 354 352 348 345 342 339 338 338 335 332 330 329 329 329 332 332 334 340 342 343 343 343 345 350 350 352 355 356 357 357
316 336 337 340 340 333 334 345 348 346 348 347 348 350 352 347 344 344 337 340 338 335 332 329 332 332 332 332 332 337 341 343 344 344 344 342 344 350 350 352 353 355 356
320 337 344 340 333 329 339 349 352 347 347 346 345 346 349 349 345 345 339 339 338 334 335 332 330 333 334 332 330 334 342 342 343 343 343 343 341 344 349 351 352 353 354
317 320 336 339 333 332 348 350 351 350 348 346 345 345 346 347 346 345 342 338 340 336 333 337 334 333 330 329 330 331 335 341 342 345 343 340 339 342 342 347 349 350 352
322 325 323 327 347 351 353 350 349 351 349 349 346 345 346 345 348 346 342 339 341 340 336 339 337 335 333 332 332 332 335 338 339 339 339 342 341 343 340 344 343 345 349
318 319 319 321 329 349 346 349 347 347 348 349 348 346 346 346 346 346 343 339 341 338 337 336 336 333 332 333 332 330 332 338 338 342 342 339 340 340 342 343 342 342 342
312 319 320 318 321 336 347 347 350 349 348 350 350 347 347 347 346 345 345 342 342 341 337 337 336 333 333 334 328 325 321 324 333 337 340 340 338 339 341 343 342 342 340
315 318 323 323 323 324 338 346 344 346 345 344 346 349 348 348 347 345 344 343 341 341 339 338 336 333 331 334 332 326 320 317 326 337 338 338 338 339 340 340 338 339 343
315 319 318 327 331 330 329 333 340 339 339 343 345 347 348 348 347 345 344 343 341 340 338 337 338 335 332 331 331 334 335 332 324 324 335 337 338 338 337 339 334 335 340
314 314 319 319 322 323 324 329 328 331 337 340 342 341 344 348 348 347 345 343 341 339 337 338 338 340 337 332 331 332 334 333 331 326 323 329 332 333 332 330 331 333 338
310 312 313 316 317 320 320 321 324 327 329 333 336 338 340 343 346 347 348 345 343 340 340 340 340 341 340 336 335 335 332 331 329 326 322 322 325 325 328 330 330 331 334

GFSSE_sfc_thetae_090.txt.gz
Theta_e
356 361 364 365 364 362 362 362 362 361 361 361 362 361 362 362 362 363 363 362 362 362 359 356 355 354 355 353 354 356 359 359 357 352 352 352 352 352 354 349 349 347 350
357 361 364 364 363 362 362 362 362 361 360 361 361 361 361 362 362 362 362 362 361 361 357 354 354 354 354 352 352 355 356 358 358 355 352 351 352 350 353 348 348 347 349
357 360 362 363 363 362 361 361 361 360 360 361 361 361 361 362 362 362 362 362 362 359 356 352 353 354 353 352 352 354 355 355 356 357 352 346 345 350 348 348 347 347 348
358 359 359 363 363 362 361 361 360 360 360 360 361 361 361 361 361 362 362 362 361 358 354 353 353 354 353 352 351 353 354 354 354 353 349 347 343 350 349 348 346 346 345
356 358 360 363 362 362 361 360 360 359 359 360 361 361 361 360 360 360 360 360 359 355 353 352 354 355 354 353 353 353 353 353 351 344 340 346 340 349 350 350 348 349 346
356 357 361 363 362 361 361 360 360 359 359 359 361 361 361 361 360 359 359 358 357 355 353 353 356 356 355 353 353 353 351 348 346 333 334 345 339 353 353 353 351 348 349
356 357 360 362 362 361 361 361 360 359 359 359 360 361 361 360 359 359 358 358 356 355 354 353 355 356 355 354 352 351 346 345 336 329 330 340 341 353 356 356 353 350 348
356 358 359 362 362 360 360 360 359 359 359 359 359 360 360 359 359 358 357 357 355 355 354 354 355 354 353 352 350 345 342 343 335 328 326 331 344 353 356 356 355 353 351
358 357 358 359 361 361 359 359 359 358 358 358 357 358 358 358 358 357 356 355 354 354 353 352 352 352 350 348 345 342 341 343 333 328 328 329 350 354 356 355 355 354 353
355 355 356 357 357 356 356 359 359 358 358 357 357 357 357 358 357 357 353 353 353 352 351 349 349 348 346 344 342 341 342 344 331 326 326 326 350 354 358 356 355 355 354
352 352 353 356 357 356 355 357 358 359 359 357 357 357 354 352 353 354 352 354 353 351 350 348 347 345 343 342 342 343 345 330 326 326 325 337 346 352 356 355 355 355 355
348 349 350 354 352 355 357 356 354 356 356 354 354 353 351 350 349 352 351 354 352 351 350 348 346 344 343 327 326 339 333 330 329 327 326 340 350 353 356 353 352 352 352
346 349 350 349 350 350 353 355 355 355 355 353 353 352 348 349 349 349 344 348 343 349 340 342 338 334 330 328 325 323 327 329 328 328 331 344 349 352 355 354 353 352 352
344 346 346 346 348 349 354 352 350 351 352 353 353 350 347 346 346 345 343 344 340 339 335 334 331 330 328 326 324 323 325 328 328 329 331 344 351 353 357 356 355 354 353
341 343 338 337 338 346 351 341 344 349 351 352 351 351 348 345 345 343 342 341 339 336 334 330 328 328 326 325 325 326 326 329 331 333 336 349 350 351 354 356 355 355 355
340 338 333 339 345 346 341 335 336 337 352 352 351 351 349 347 345 343 341 339 338 335 334 330 328 326 324 324 324 327 329 333 336 337 339 338 350 349 351 355 356 357 357
335 337 332 340 347 346 342 336 333 336 351 352 351 351 351 348 346 345 342 339 337 336 333 327 326 325 324 325 326 328 330 334 339 341 342 341 344 349 349 351 354 356 357
325 334 330 339 346 344 340 336 336 337 345 351 351 352 352 351 347 345 341 339 338 335 333 329 326 326 326 327 326 328 331 336 338 340 340 340 340 342 347 350 352 354 355
331 338 338 338 335 335 334 334 332 339 345 347 348 349 350 352 349 345 344 340 339 335 332 331 327 325 327 328 329 328 329 333 338 341 341 340 339 339 340 346 350 350 352
319 339 340 335 333 328 327 335 343 347 345 346 345 344 346 349 349 344 343 342 336 337 333 331 328 328 328 330 331 329 328 330 334 339 340 342 339 339 339 340 342 345 348
318 325 332 336 335 331 330 341 344 344 342 344 343 344 343 345 347 346 344 342 337 336 336 330 332 331 329 330 325 325 328 329 332 334 338 337 338 339 339 338 340 339 341
313 315 316 315 326 341 344 346 346 345 345 346 348 345 343 344 344 345 345 343 340 339 336 336 333 331 331 331 326 324 321 323 327 334 337 338 336 337 338 340 339 339 339
315 318 321 324 322 324 331 342 343 343 340 340 341 344 347 346 345 344 343 345 343 341 339 337 336 334 331 329 329 326 319 317 320 330 334 336 337 336 336 338 340 339 339
311 316 317 317 318 320 324 324 326 333 333 336 339 341 342 344 346 345 342 341 343 341 340 338 338 336 334 329 329 330 329 324 322 322 332 335 336 335 336 336 337 336 335
310 312 314 313 315 317 318 319 321 321 326 332 334 336 337 340 342 346 344 342 340 340 339 340 338 336 335 332 331 327 328 331 329 324 322 329 332 335 334 335 332 331 334
307 308 310 310 311 313 316 318 318 317 316 318 321 326 331 334 336 340 343 343 343 341 338 338 338 336 336 334 332 331 330 327 327 325 321 322 326 328 330 330 329 331 332

GFSSE_sfc_thetae_093.txt.gz
Theta_e
354 359 364 364 362 362 363 363 363 363 362 362 362 362 361 361 362 362 362 362 362 362 359 357 355 354 355 356 356 357 357 355 352 353 353 352 351 353 350 349 349 347 349
356 359 364 363 362 362 363 362 362 362 362 361 361 361 361 361 362 362 361 361 361 358 355 353 353 353 353 353 354 355 356 357 355 352 352 352 350 352 348 348 349 347 349
356 357 359 363 363 362 362 361 361 361 360 360 360 360 361 361 362 361 361 361 361 356 353 353 354 353 352 352 352 354 356 357 357 353 350 344 343 349 348 348 348 349 349
357 358 358 363 362 362 361 360 360 360 360 360 360 361 361 361 361 361 361 361 359 355 352 353 354 353 353 352 352 353 354 354 354 354 347 344 344 348 348 347 346 347 349
356 358 359 363 362 362 361 360 360 360 359 360 360 361 361 361 361 360 361 361 358 355 352 353 354 355 354 352 353 354 354 353 349 345 341 344 339 348 349 348 348 347 346
355 357 361 362 361 361 361 360 360 359 360 360 360 360 360 360 360 360 360 360 358 354 353 354 355 355 355 352 353 352 350 348 345 331 332 342 339 351 351 351 349 348 347
353 356 360 361 361 361 360 360 359 359 359 359 360 360 360 359 358 358 358 358 357 356 354 354 356 356 355 353 353 350 346 345 333 326 328 343 339 350 354 353 352 349 347
353 357 358 361 360 360 360 360 359 358 358 359 359 359 359 359 358 358 357 357 356 355 354 354 355 354 353 352 352 348 344 343 332 326 324 334 342 349 353 357 355 350 348
356 356 357 358 358 360 359 359 358 357 357 357 358 358 358 358 358 358 356 355 355 354 354 354 354 354 353 352 350 346 343 343 331 326 326 324 339 352 353 357 354 353 351
355 355 355 356 355 355 355 359 358 358 357 357 357 357 357 358 357 357 353 353 354 353 353 352 352 352 351 349 347 344 343 343 329 325 323 323 344 352 354 357 355 355 354
351 352 354 354 353 352 353 356 358 358 358 357 357 357 353 350 352 352 352 353 353 352 351 350 349 349 348 347 345 344 344 328 325 323 323 332 342 352 355 358 357 356 355
347 350 352 352 353 352 355 352 352 354 353 352 352 352 349 347 347 351 351 353 353 352 350 349 348 347 345 328 326 338 331 328 325 325 325 338 343 347 355 356 356 356 355
348 350 350 351 352 351 354 353 352 353 352 351 351 350 347 347 347 348 344 347 344 349 340 343 339 335 329 326 323 320 321 324 326 327 330 341 344 350 356 356 355 353 352
346 349 351 352 352 351 353 352 352 352 352 351 352 352 345 343 343 344 343 343 342 340 337 334 332 329 327 325 323 319 319 321 326 327 328 342 345 349 355 356 356 354 353
343 345 348 350 350 351 352 352 350 350 350 351 351 351 349 345 344 344 343 340 341 337 336 332 331 328 325 324 323 322 321 322 325 328 329 343 348 351 354 357 358 357 355
343 344 345 347 341 349 350 350 350 350 351 351 350 351 350 346 344 344 342 340 339 337 335 331 328 326 324 322 321 321 323 324 327 330 334 337 346 350 352 354 357 357 357
340 343 341 338 338 347 346 346 346 348 350 350 350 350 350 348 344 344 342 340 339 336 332 329 325 324 322 322 321 321 323 324 328 332 338 340 339 349 349 350 354 356 357
331 337 338 339 340 344 343 342 339 331 337 346 349 350 350 348 346 343 343 341 340 335 332 329 326 324 323 321 321 322 324 327 329 333 337 340 340 340 346 350 351 354 356
320 331 329 332 339 343 344 337 335 329 334 340 345 347 349 349 348 344 343 343 339 336 333 331 329 323 320 321 323 324 324 326 331 336 337 339 339 339 339 344 350 350 353
328 332 328 333 339 338 333 331 333 341 341 342 343 344 348 350 350 347 345 344 341 338 335 333 330 325 322 325 328 327 326 326 329 332 335 339 340 340 338 338 338 344 349
318 328 332 331 330 329 327 328 330 334 342 341 343 345 343 345 350 348 346 344 340 337 336 333 330 329 327 327 324 322 324 327 327 330 333 337 338 339 339 338 338 339 340
312 316 320 322 332 330 329 328 332 336 342 344 341 342 343 342 344 345 345 344 341 338 336 335 331 330 330 329 324 320 317 321 325 329 331 335 336 337 338 339 337 337 338
315 318 319 318 322 327 338 339 340 339 338 337 338 341 343 342 343 344 344 342 341 338 338 336 335 332 330 330 331 326 317 317 319 325 330 333 335 336 336 336 337 338 338
313 314 315 317 317 319 320 321 324 328 328 333 333 337 337 342 343 343 342 341 342 342 339 339 338 335 335 331 328 331 326 322 318 317 329 332 335 336 335 335 336 337 338
310 310 310 311 312 314 316 318 319 317 321 324 325 325 327 331 337 342 342 341 341 341 342 340 339 337 336 334 332 327 328 327 327 322 316 325 332 335 337 336 336 335 333
305 308 307 307 309 311 312 314 313 312 313 314 316 320 322 325 329 334 337 338 340 340 339 340 339 339 336 335 333 332 328 325 325 326 321 322 323 329 330 331 333 331 331

GFSSE_sfc_thetae_096.txt.gz
Theta_e
351 358 364 364 363 363 364 364 364 363 363 363 362 362 361 360 361 361 362 362 362 363 360 357 356 357 356 355 354 354 355 355 354 354 353 353 352 351 349 349 350 347 349
354 360 364 362 363 363 363 363 362 362 362 362 362 362 361 360 361 362 362 362 362 361 357 355 354 354 355 355 356 354 353 355 356 353 352 351 353 350 349 348 349 348 348
355 359 361 362 363 363 363 362 362 361 361 362 362 361 361 361 361 361 361 361 360 357 354 353 353 353 353 354 355 355 355 356 354 352 351 347 348 349 348 348 349 349 348
355 357 359 362 362 363 362 361 361 361 361 360 361 361 361 361 361 361 361 360 358 355 353 353 353 353 353 354 355 356 356 356 355 351 346 345 345 348 347 347 347 349 348
354 355 358 362 362 361 361 360 360 360 360 360 360 360 361 360 360 360 360 360 357 353 353 354 354 356 356 355 355 355 355 355 351 349 348 348 345 348 348 348 347 347 349
354 356 361 361 360 361 361 360 359 359 360 360 360 360 360 360 360 360 360 360 358 354 354 356 356 356 355 355 354 354 352 348 345 335 336 339 347 349 350 349 349 349 347
352 356 358 361 360 360 360 359 359 359 359 359 359 360 360 360 359 359 360 359 358 356 356 356 356 356 355 354 354 352 349 345 335 331 332 344 347 347 353 352 351 350 347
352 355 356 358 360 360 360 359 358 358 358 358 358 359 359 358 358 358 358 357 357 355 355 356 356 355 354 353 353 351 347 344 335 329 329 343 346 348 352 355 356 352 348
355 354 354 355 357 360 359 358 358 358 358 357 357 358 357 358 358 357 357 356 355 355 354 355 355 354 353 352 352 350 346 343 334 330 327 330 341 349 351 356 357 354 352
352 352 353 353 354 355 356 358 358 357 357 357 357 357 357 357 357 357 353 354 354 354 353 353 354 353 352 351 350 349 346 344 335 330 329 328 337 344 352 356 358 357 355
349 351 352 354 354 353 353 356 357 357 357 357 357 357 354 352 354 354 353 352 353 353 352 351 351 351 351 351 349 348 346 334 329 327 326 330 340 345 355 357 358 357 356
346 347 350 351 350 351 354 353 352 353 353 352 353 353 350 348 349 351 352 353 353 352 351 350 349 349 349 339 335 341 337 333 329 328 328 335 341 342 350 357 357 358 356
348 349 350 350 350 351 351 352 351 353 352 351 350 350 348 347 348 350 347 349 348 351 344 347 344 342 337 334 330 325 324 325 327 330 332 341 344 345 349 355 356 356 355
346 348 349 350 351 351 351 350 349 350 350 349 351 350 347 346 345 347 345 344 344 343 342 339 338 336 334 330 328 325 323 324 325 329 332 340 344 346 348 354 357 357 354
344 347 348 350 350 351 349 348 348 349 349 349 350 351 349 346 344 345 345 343 343 341 339 336 334 333 331 329 327 326 325 324 325 328 332 339 345 349 352 354 357 357 356
345 346 349 349 350 351 350 349 348 349 350 350 349 349 349 346 344 344 344 343 342 341 339 336 332 331 329 327 326 326 326 326 327 330 333 337 343 346 351 355 358 358 359
342 345 346 348 350 349 350 350 349 350 350 350 350 350 350 348 345 344 343 342 342 340 338 335 331 329 326 326 325 326 325 327 326 329 334 338 341 345 349 351 354 356 358
339 341 344 347 344 345 349 348 348 346 342 347 349 351 351 350 347 344 342 341 342 339 337 335 332 329 326 325 324 325 326 328 330 332 334 337 342 344 346 351 351 353 355
320 334 338 341 339 340 346 342 339 335 334 341 346 349 350 350 349 344 343 343 342 340 337 336 332 331 329 325 324 326 328 328 330 332 335 338 342 344 345 346 349 350 352
324 328 331 332 335 340 337 334 336 336 338 339 341 345 348 349 349 346 345 344 342 340 337 335 335 330 331 330 327 328 329 330 331 331 332 335 340 343 345 345 345 346 349
325 332 330 330 334 336 333 331 331 333 337 342 343 345 346 349 350 348 346 345 342 339 339 336 335 333 330 329 327 327 327 330 331 331 333 335 337 340 345 345 344 344 345
319 329 330 330 330 331 330 330 333 334 336 341 345 344 345 345 346 347 346 344 340 338 338 337 334 333 333 331 328 325 324 328 328 331 332 333 335 338 340 343 344 344 345
316 317 319 321 329 333 331 333 336 339 339 338 340 341 343 343 343 344 345 341 338 339 337 338 336 333 331 333 331 330 321 319 324 328 330 332 334 334 337 341 343 343 344
313 316 316 317 318 321 327 330 333 334 333 333 333 338 336 341 342 344 343 343 342 338 336 336 339 337 334 331 332 333 332 328 322 321 330 334 334 333 336 337 340 342 345
308 308 308 311 312 314 318 319 319 319 321 322 323 323 324 329 339 342 343 343 341 341 339 339 339 339 337 335 333 332 330 329 328 323 322 323 334 338 339 339 341 342 344
302 304 304 305 305 307 308 310 310 311 313 314 315 316 318 321 325 330 338 341 341 340 340 340 340 340 338 337 336 334 331 327 326 326 325 326 327 333 336 338 339 341 343

GFSSE_sfc_thetae_099.txt.gz
Theta_e
353 362 364 365 364 365 365 365 364 363 362 361 360 361 361 360 361 361 362 363 363 363 360 359 359 358 356 355 354 355 357 357 355 354 354 353 352 350 350 350 349 346 350
357 363 363 364 364 365 365 365 364 363 362 361 362 361 360 360 361 361 362 362 363 362 358 357 357 356 355 354 353 353 354 356 356 354 352 352 352 350 349 349 347 348 349
358 363 362 363 364 364 364 364 363 363 362 362 362 361 361 361 362 362 361 362 363 359 357 354 355 356 355 355 354 353 353 354 354 353 351 349 346 349 348 348 349 349 349
360 363 361 363 363 364 363 362 362 362 362 362 362 361 361 361 362 361 361 361 360 356 354 353 354 354 355 355 355 356 356 353 353 351 346 345 346 349 348 348 349 349 348
360 362 362 362 362 363 362 361 361 361 361 361 361 362 361 361 361 360 360 360 358 354 353 353 355 356 357 356 357 357 356 355 355 353 353 347 349 348 349 348 347 349 349
359 360 361 361 361 362 361 361 360 360 361 361 361 361 361 360 360 360 360 359 357 355 356 357 357 357 357 356 355 355 355 352 347 343 344 350 349 351 350 349 348 347 348
357 360 360 361 361 361 361 360 360 360 360 360 360 361 360 360 360 360 360 359 358 356 357 357 356 356 356 355 354 355 352 345 342 342 342 349 351 348 352 352 351 350 348
356 359 359 360 360 360 360 360 359 359 359 359 359 360 360 360 360 360 359 359 358 356 357 357 356 356 355 354 354 353 350 345 340 339 338 350 352 348 351 354 354 352 349
357 358 358 357 359 360 359 359 359 358 358 358 358 358 358 358 358 358 357 357 356 356 355 356 356 355 354 353 353 352 350 345 340 338 333 338 351 350 350 356 355 355 351
356 356 356 357 355 355 357 359 358 358 357 356 357 357 357 357 357 357 354 355 355 355 354 355 355 354 353 352 352 351 350 345 339 337 335 335 336 339 346 355 356 358 356
352 353 355 354 355 354 353 355 357 358 358 357 357 357 354 352 355 355 353 354 354 354 353 353 353 353 352 352 352 351 348 340 336 332 331 339 335 339 348 356 357 358 358
349 350 353 353 355 353 351 355 354 353 354 354 354 355 353 355 356 353 354 354 354 353 352 352 351 351 350 345 345 348 343 340 335 331 331 339 338 341 346 355 358 358 358
350 350 353 353 355 353 350 354 353 353 354 355 355 356 355 354 354 353 351 352 352 352 346 346 344 342 341 342 341 339 337 334 331 331 335 340 343 343 346 351 352 357 358
351 352 353 353 355 355 351 351 351 352 353 351 352 355 353 351 352 351 349 349 352 349 348 347 342 342 343 340 338 336 335 332 328 329 336 342 344 345 347 352 354 357 357
352 353 355 355 356 355 355 351 350 352 352 351 352 354 353 350 350 350 350 349 349 348 347 346 344 342 340 339 337 335 332 332 332 331 331 341 343 346 348 351 356 358 358
351 353 356 355 357 356 355 353 351 353 353 352 351 353 354 352 351 350 351 350 349 349 348 347 345 343 340 338 336 336 335 333 333 333 331 333 341 344 348 352 357 359 359
344 350 356 357 357 356 356 354 351 351 350 350 351 354 355 355 353 352 349 348 349 351 352 350 348 345 342 340 338 336 335 335 333 333 334 332 333 343 346 350 354 357 359
333 342 350 354 356 356 356 356 354 352 351 351 352 353 353 354 353 352 349 348 349 350 349 348 347 345 344 342 340 339 337 337 336 336 335 335 334 336 345 349 352 354 356
334 334 341 350 354 356 356 355 353 349 349 351 353 353 354 355 355 353 350 349 351 349 348 347 346 345 344 345 343 342 341 340 340 337 338 338 340 340 341 347 349 351 352
332 333 336 341 350 352 352 352 353 350 343 344 348 352 353 354 353 354 352 351 351 349 349 347 346 347 343 341 341 341 343 342 342 340 340 341 340 339 344 348 349 350 349
329 333 333 337 342 345 346 346 347 347 346 346 349 347 349 354 354 356 352 353 353 350 349 345 345 336 339 341 333 337 340 343 341 342 342 342 342 340 341 345 348 348 350
328 334 337 335 339 344 344 345 345 345 345 347 349 351 351 352 355 355 356 354 352 347 343 344 335 333 336 340 333 337 328 334 339 340 342 341 342 341 339 344 347 350 351
327 329 329 334 338 341 344 342 343 346 346 345 346 348 351 352 353 355 356 353 352 342 338 334 336 335 331 333 337 332 327 324 330 338 340 339 344 340 342 344 345 348 352
317 320 322 322 322 324 333 343 343 342 342 345 344 344 342 348 350 351 351 351 350 347 345 341 340 341 338 332 338 339 340 337 326 324 334 337 341 342 345 341 342 345 348
313 314 316 316 316 317 318 321 321 323 323 326 328 330 334 336 338 343 349 351 351 349 347 345 344 341 339 334 333 335 334 334 332 326 323 326 336 339 343 344 344 345 349
311 312 313 315 314 315 315 316 316 316 316 316 318 318 320 322 324 331 334 342 347 347 348 347 347 345 343 342 340 339 336 333 330 329 326 326 328 334 339 343 344 346 347

GFSSE_sfc_thetae_102.txt.gz
Theta_e
356 364 365 366 367 367 367 366 364 364 363 361 360 361 361 361 362 362 363 364 364 362 362 362 360 358 357 355 355 357 357 355 355 354 353 352 351 352 350 349 349 347 350
360 366 364 365 366 367 367 366 364 363 361 361 361 362 361 361 361 362 363 364 363 362 360 361 359 356 355 354 355 356 356 355 355 354 354 353 351 350 350 348 348 349 351
360 366 363 364 366 366 366 365 364 362 361 361 362 361 361 361 362 362 363 364 363 360 358 358 356 355 354 353 354 355 355 355 354 352 353 349 345 350 349 349 349 349 350
362 367 364 364 365 366 365 364 363 363 362 362 361 361 361 361 362 362 363 364 361 358 355 355 356 356 355 354 353 354 354 353 353 353 348 347 345 349 349 350 349 348 349
364 366 366 364 364 365 364 363 363 363 363 363 362 361 362 362 362 361 362 362 358 355 354 354 355 356 356 355 355 355 354 353 353 352 347 347 348 348 349 349 349 349 349
361 363 363 363 363 363 364 363 363 363 362 362 362 362 362 362 361 361 361 360 358 355 354 355 356 356 357 356 356 356 355 354 352 351 352 352 351 350 350 349 346 347 349
359 362 363 362 362 363 363 362 362 362 362 362 362 362 361 361 360 360 360 359 357 356 355 355 355 356 357 356 354 352 352 349 347 347 349 351 351 353 352 351 350 350 348
357 361 362 362 362 361 361 361 361 360 361 361 360 361 361 360 360 360 360 359 357 357 357 356 355 355 356 355 354 353 351 347 346 345 344 350 351 351 352 353 353 352 350
358 359 359 357 361 361 360 360 359 359 359 359 359 359 360 360 360 360 359 359 358 357 357 357 355 354 354 354 354 354 351 348 344 344 341 342 352 351 351 354 355 355 353
356 357 357 357 355 356 358 360 359 359 359 358 358 358 358 359 359 358 356 357 357 356 355 355 355 354 354 354 353 353 351 349 344 342 343 341 340 349 353 355 356 357 357
352 356 357 357 354 352 351 356 358 358 358 358 358 358 355 353 357 357 353 356 355 355 355 354 354 355 354 353 353 352 350 343 340 337 335 341 335 338 342 354 355 358 359
350 354 357 360 356 352 349 355 353 353 354 354 354 357 353 352 354 350 353 356 355 354 354 353 353 352 350 344 345 350 345 341 339 336 333 338 337 340 343 350 358 359 359
352 355 356 359 361 355 350 352 351 351 352 353 354 355 354 350 353 351 351 353 353 352 347 346 343 341 340 341 342 344 341 341 337 333 338 340 342 342 346 351 353 355 359
352 354 358 359 360 359 352 351 351 350 352 352 354 357 353 351 352 351 347 348 351 347 347 345 341 341 341 342 343 341 340 338 335 332 336 342 342 343 345 349 355 355 355
350 355 355 359 359 360 357 352 352 351 351 353 353 356 355 353 352 351 348 347 346 346 345 346 344 343 343 342 340 337 336 336 336 334 333 345 342 344 344 346 352 357 358
343 351 357 360 361 362 360 358 355 355 355 354 353 354 355 354 354 353 353 353 351 349 347 346 345 344 344 341 339 340 339 337 336 337 334 334 344 344 345 348 350 356 360
333 341 355 358 361 363 362 360 358 354 353 352 354 358 357 357 358 356 353 353 354 356 358 356 354 351 348 345 343 343 342 342 339 338 337 335 334 342 345 347 351 354 358
332 334 342 342 351 361 362 361 359 356 354 352 353 354 357 358 358 356 353 352 354 355 354 353 352 351 350 349 349 349 349 349 348 346 343 340 336 333 341 347 351 353 356
335 336 343 345 346 351 358 359 360 362 358 355 355 354 356 356 354 354 353 353 357 353 352 351 350 351 348 349 348 348 349 349 349 347 348 348 347 343 339 340 350 351 353
336 341 342 346 353 351 352 355 357 356 357 357 356 354 356 356 352 354 355 356 354 352 350 351 352 351 350 348 344 343 345 347 349 349 349 348 348 348 346 344 341 343 348
333 337 337 339 347 347 342 345 349 349 353 354 355 359 358 358 357 353 353 354 350 354 353 349 350 351 348 349 341 338 340 343 346 346 349 347 347 346 347 345 343 341 341
331 338 340 343 344 344 344 346 347 349 350 355 355 357 356 354 355 354 355 356 358 351 352 351 350 345 343 345 335 333 326 330 336 343 346 344 345 345 345 346 345 346 348
334 338 342 346 348 346 347 347 348 349 349 346 348 354 355 356 356 349 353 356 358 358 351 352 350 348 339 339 341 330 322 320 329 337 344 340 346 343 345 346 347 348 352
327 329 330 330 332 332 337 343 345 344 343 343 347 347 347 350 353 354 355 355 356 356 352 350 347 345 343 336 338 339 337 333 324 323 335 339 344 342 346 341 344 349 349
322 323 325 326 325 326 327 327 326 329 327 330 332 333 336 339 340 342 347 348 353 354 353 352 352 348 343 340 337 337 338 337 338 332 326 330 338 338 339 343 343 348 350
319 320 321 323 323 324 323 323 322 322 323 322 325 324 325 326 328 331 333 337 343 346 346 347 351 351 350 347 343 341 336 332 331 331 329 332 332 336 338 339 342 344 349

GFSSE_sfc_thetae_105.txt.gz
Theta_e
357 362 367 368 368 368 365 365 365 364 362 361 361 362 362 362 362 363 364 364 363 364 363 361 360 358 357 352 355 356 356 355 354 353 352 352 352 350 349 347 349 346 350
362 362 365 367 368 368 366 365 365 363 362 360 362 362 362 362 362 364 364 364 363 362 362 360 358 357 356 354 356 356 356 355 354 354 352 351 351 350 348 348 353 351 351
363 364 362 366 367 368 366 365 364 362 361 361 362 362 362 362 363 364 364 364 363 360 361 360 357 354 354 354 355 355 355 355 353 353 354 347 344 350 348 348 348 350 350
365 366 363 365 367 367 366 364 363 362 361 362 362 362 362 362 363 363 364 363 361 358 357 356 355 355 353 354 354 354 354 353 353 353 353 346 343 349 349 349 347 348 349
365 366 367 366 366 366 366 364 362 362 362 362 362 362 362 362 363 363 364 363 360 357 355 355 355 355 355 354 353 353 352 351 352 352 350 346 346 348 350 349 348 347 347
364 364 364 364 364 365 365 364 363 363 363 362 362 362 362 362 362 362 362 361 358 355 354 354 355 355 355 355 355 355 355 355 356 355 351 348 351 351 351 349 349 348 347
360 365 365 364 364 364 365 364 363 363 362 362 362 362 362 362 361 361 361 359 356 355 354 354 354 354 355 355 355 353 351 352 348 347 347 349 353 354 352 350 349 348 347
356 362 363 363 363 363 363 363 362 362 362 362 362 362 362 361 361 360 360 358 357 356 356 355 354 353 354 354 351 350 350 350 347 346 344 349 351 355 353 352 352 351 351
357 358 360 359 362 362 362 361 361 361 360 360 360 360 360 360 360 360 360 358 357 357 357 356 355 354 353 352 351 351 351 350 347 346 343 342 354 353 351 353 354 354 353
356 356 357 355 355 357 360 361 360 360 360 359 359 359 359 360 359 360 358 358 357 355 357 356 355 354 353 352 352 352 351 351 346 344 343 345 355 353 352 353 354 357 357
353 356 355 354 353 351 351 358 359 359 359 359 359 359 356 353 356 357 353 357 357 355 354 355 356 355 354 353 353 353 351 343 341 340 338 346 343 339 341 348 354 356 358
349 352 354 357 354 352 350 356 353 353 354 355 353 356 353 352 354 350 354 357 357 355 354 355 354 353 351 343 344 352 345 340 341 340 337 345 343 339 340 348 351 357 358
350 353 353 359 359 354 350 355 349 350 350 351 353 355 356 351 353 349 350 350 352 352 347 347 345 341 338 340 340 343 345 342 340 338 340 346 343 340 343 349 352 354 356
350 354 357 360 360 360 352 351 351 349 351 351 352 356 356 349 353 353 345 349 352 347 348 345 341 344 340 339 340 341 342 340 338 336 339 348 343 344 343 347 352 355 356
351 354 357 360 361 361 360 354 355 351 351 353 353 356 356 351 356 352 353 346 348 346 345 346 343 346 342 342 341 340 339 338 338 336 335 348 344 344 347 348 350 354 357
349 353 357 359 360 361 361 361 358 359 356 353 354 355 358 357 362 355 354 349 349 344 344 345 346 345 343 343 341 340 339 339 338 339 335 336 347 345 347 349 349 352 356
345 349 353 359 360 362 364 362 359 356 354 354 354 361 358 362 363 362 354 355 356 357 362 357 354 350 346 344 344 341 341 344 341 342 342 340 338 344 345 347 349 351 354
335 343 352 348 358 362 361 358 356 359 357 354 354 355 358 359 360 363 360 354 355 358 355 352 352 350 349 347 348 345 346 349 347 349 349 348 345 342 345 345 347 351 354
341 342 344 347 349 360 363 357 355 357 359 358 356 355 356 354 357 358 354 352 358 362 356 354 353 353 350 348 347 349 350 349 351 347 352 353 354 350 347 348 348 349 352
337 338 341 344 348 360 355 358 349 353 359 366 356 354 356 352 354 357 354 355 357 355 357 355 353 351 352 349 345 343 349 347 349 350 350 351 352 355 354 351 349 346 348
334 342 344 343 354 351 341 337 339 341 344 348 354 359 359 358 356 359 348 345 351 350 354 358 353 349 344 348 348 345 345 350 351 347 351 348 350 351 352 351 352 348 345
335 340 345 344 348 346 339 345 339 337 336 343 356 356 358 356 355 358 355 348 353 347 355 349 352 344 348 347 341 341 332 335 342 345 348 348 350 348 346 350 350 354 353
337 340 344 348 350 349 349 347 348 348 347 344 349 350 358 358 357 357 355 356 351 322 326 330 339 342 339 342 342 338 329 323 330 339 345 346 350 346 346 349 351 351 355
334 335 337 338 341 342 347 349 350 343 347 348 355 354 350 351 351 353 350 352 347 329 333 326 343 346 346 340 344 342 342 339 326 325 337 343 346 345 348 345 345 347 351
329 330 331 332 332 333 334 336 339 337 333 337 340 341 344 342 340 337 342 347 351 352 349 347 347 349 347 343 341 339 340 339 340 332 327 328 337 339 342 345 344 344 347
325 326 328 328 328 329 329 329 330 328 328 326 328 326 327 328 329 334 333 336 339 341 345 347 348 349 348 347 344 341 337 335 332 333 331 331 332 333 338 341 344 344 346

GFSSE_sfc_thetae_108.txt.gz
Theta_e
356 362 368 367 365 365 365 365 365 363 361 361 361 362 362 363 363 364 363 363 363 363 363 362 359 359 354 355 357 358 358 357 355 353 353 352 352 350 349 351 351 346 352
358 362 367 367 366 365 365 365 364 362 361 362 362 362 362 362 363 364 363 363 364 365 362 360 358 357 355 356 356 356 355 356 356 353 352 353 351 350 350 351 356 350 351
357 361 364 367 366 365 364 365 363 361 361 361 361 362 362 362 363 364 363 363 363 363 360 359 356 356 354 355 355 355 354 353 353 353 353 345 345 349 348 349 350 351 350
359 360 361 367 367 365 365 364 362 361 361 361 362 362 362 362 363 364 363 363 362 361 360 358 355 354 354 355 355 354 353 352 352 352 351 350 341 349 349 349 348 349 350
362 361 364 366 366 366 365 363 361 361 361 362 362 362 362 362 363 363 363 362 361 358 357 356 356 357 355 354 354 354 351 352 354 353 348 345 341 348 350 349 347 347 347
361 360 364 365 365 366 364 363 361 361 362 361 361 362 362 362 363 363 363 362 360 357 356 357 358 358 357 356 355 354 354 356 356 349 352 347 344 353 352 350 349 348 348
359 364 362 365 365 365 365 363 362 362 361 361 361 362 362 362 361 362 361 360 359 357 357 357 357 357 357 357 356 354 352 354 348 344 347 345 346 353 354 351 350 348 346
361 364 361 364 364 364 364 363 362 361 361 361 361 362 362 361 361 361 360 359 358 357 357 357 357 357 357 357 356 353 353 352 347 344 343 350 350 355 356 354 353 352 350
359 361 359 359 362 363 363 362 361 361 360 360 360 360 360 360 360 360 359 358 357 358 358 357 356 356 356 356 355 353 353 352 346 343 344 349 354 357 357 356 355 355 355
354 357 356 358 358 360 361 362 361 361 361 360 360 360 359 360 360 359 357 358 357 357 358 358 357 356 355 354 354 353 353 352 345 342 342 349 355 357 356 356 356 357 357
353 355 354 354 356 355 356 360 361 361 361 360 360 360 356 354 356 355 354 356 358 357 357 357 357 356 355 354 354 354 354 344 339 341 341 353 355 357 356 355 355 354 357
349 351 352 353 351 350 351 357 358 358 358 358 358 358 355 353 353 351 352 357 358 357 356 355 356 356 354 343 345 352 346 341 337 337 338 348 348 349 348 348 350 351 356
352 352 350 352 353 349 350 354 352 353 353 354 355 356 354 350 353 349 351 350 353 354 348 350 349 346 341 340 338 343 343 342 338 338 343 347 348 349 348 349 351 353 353
348 349 350 348 352 358 353 350 348 349 350 350 351 355 353 351 353 350 348 349 349 348 345 344 341 339 337 338 338 337 342 344 339 337 341 348 349 349 350 350 352 354 354
342 350 350 346 355 355 357 353 348 351 350 350 351 354 354 351 353 353 351 350 349 346 346 344 342 341 340 338 337 337 338 339 339 338 337 350 347 347 348 350 351 353 355
350 337 336 347 355 359 358 358 357 362 360 359 356 353 356 356 357 355 356 355 352 352 348 346 344 346 342 341 340 341 341 338 338 337 336 339 347 347 348 350 350 352 354
341 335 336 348 352 354 356 358 357 360 358 361 359 364 357 359 360 356 355 353 353 354 359 357 355 354 348 346 343 343 340 340 339 339 340 337 338 345 345 347 349 350 351
350 348 351 345 352 355 360 360 359 360 362 358 355 357 359 361 360 361 358 353 355 359 354 352 351 349 348 346 343 342 340 341 341 340 341 339 342 340 345 345 347 349 351
340 347 351 355 357 355 359 360 361 363 356 353 345 350 353 350 353 348 349 350 353 352 354 355 352 347 346 347 348 347 344 344 344 345 346 347 347 346 345 349 345 346 348
341 347 353 354 360 361 359 361 360 358 362 362 357 357 352 354 348 337 330 340 346 350 351 351 350 350 348 346 346 343 343 345 344 344 346 347 348 349 349 348 346 345 346
347 349 349 353 358 357 356 348 348 348 351 354 356 358 356 350 346 335 329 339 346 345 346 343 332 326 335 339 336 335 338 339 341 332 339 347 345 347 349 349 348 346 344
344 348 349 351 356 359 355 354 353 350 347 349 353 360 359 357 353 345 347 349 345 343 333 330 327 323 331 331 331 324 317 317 326 333 343 343 345 347 346 347 347 348 348
342 347 349 351 352 352 358 353 354 352 351 345 348 349 354 356 357 356 355 352 349 335 330 329 325 322 322 327 331 323 316 314 321 329 335 340 342 347 345 346 345 346 346
337 339 339 341 344 343 350 349 352 347 344 341 341 342 343 345 347 346 350 348 346 331 324 326 329 323 329 325 333 332 329 330 323 320 331 336 340 343 342 343 342 345 343
333 332 334 335 335 337 337 338 340 339 337 339 339 336 338 340 345 341 339 339 343 336 333 334 328 324 334 333 333 333 331 329 331 327 321 324 332 338 339 339 340 340 340
328 328 331 331 332 333 333 333 332 332 332 329 330 329 331 330 332 338 331 334 335 336 337 337 341 339 338 338 336 335 332 328 327 329 327 327 328 330 333 333 335 340 341

GFSSE_sfc_thetae_111.txt.gz
Theta_e
357 364 366 365 365 365 365 364 362 362 361 361 362 362 361 362 362 362 361 362 362 363 362 360 360 355 356 356 355 356 357 356 355 353 353 351 351 352 353 352 351 349 352
359 364 365 364 365 365 365 364 362 361 361 361 361 361 361 362 362 361 361 362 363 363 360 359 357 354 356 356 355 355 355 356 355 353 353 352 351 352 352 356 352 349 350
358 363 363 364 364 365 364 363 361 361 361 361 361 361 361 362 362 361 362 363 363 363 359 358 357 354 356 355 355 354 354 355 355 353 352 345 345 351 351 351 351 351 350
359 360 362 364 364 364 364 362 360 361 361 361 361 361 361 362 362 361 362 363 363 362 359 356 354 354 355 355 354 354 354 354 354 352 350 349 341 350 350 350 349 350 350
355 359 363 365 363 364 364 362 360 360 361 361 361 361 361 362 362 362 361 361 362 360 358 355 354 356 355 355 354 354 353 354 353 353 346 344 339 350 351 350 348 349 348
354 359 364 365 364 363 363 362 360 361 360 360 361 361 361 362 361 361 361 361 360 359 357 357 358 357 356 355 354 353 355 356 356 347 344 345 340 354 354 352 351 350 350
355 359 362 364 364 364 363 362 361 361 360 360 361 361 361 361 361 361 361 361 359 358 359 358 358 357 357 357 356 356 355 354 348 343 342 341 341 352 355 355 353 352 350
357 358 360 364 364 363 362 361 360 360 359 359 360 360 360 360 360 360 360 360 358 357 358 358 357 357 356 356 356 354 353 352 346 342 341 343 348 353 356 354 353 352 351
359 356 358 361 363 363 361 360 360 359 359 358 358 359 359 359 359 359 358 358 357 357 357 357 356 356 356 356 355 353 353 353 345 342 341 344 353 355 357 355 355 355 354
358 356 354 357 359 357 359 361 360 359 358 358 358 358 358 358 358 358 356 355 356 357 357 356 356 355 355 355 354 353 353 354 344 340 338 346 354 358 358 357 357 357 356
356 353 353 354 355 356 357 359 360 361 359 358 359 358 355 352 354 355 355 356 356 356 356 356 356 354 354 354 354 354 354 343 339 337 338 353 355 359 359 357 357 356 357
349 350 351 353 353 353 357 356 355 357 356 354 354 354 351 347 349 352 353 355 356 355 355 356 356 355 354 345 345 352 345 342 337 336 334 355 355 358 358 355 354 351 353
347 348 347 347 347 348 353 353 353 354 353 353 353 352 349 348 346 349 345 347 348 354 348 350 349 348 346 343 337 336 341 340 337 336 338 353 352 354 352 350 349 350 350
341 334 340 344 345 348 351 349 349 350 350 350 351 351 347 344 342 343 344 343 346 345 343 339 340 340 338 337 334 332 338 338 338 338 337 350 348 350 351 351 350 351 351
331 332 336 336 334 343 350 348 344 346 347 347 346 349 347 343 341 345 341 343 344 343 342 337 336 336 334 332 332 332 331 336 338 333 332 350 348 349 352 353 353 354 354
334 330 335 336 334 339 348 349 346 348 345 345 345 348 349 347 342 346 343 345 344 344 341 340 339 336 334 333 330 330 331 333 333 331 331 339 348 348 350 352 353 353 354
334 330 331 334 336 342 349 350 349 350 350 349 349 349 350 350 348 349 348 343 342 344 342 346 341 343 340 338 334 334 334 333 333 332 333 331 338 346 347 348 351 351 353
330 333 335 343 344 346 343 348 352 349 351 349 346 348 352 352 347 344 343 342 346 345 344 344 342 340 336 330 330 336 341 339 337 335 333 334 333 335 342 346 347 350 351
332 332 339 340 344 344 340 342 351 351 348 348 342 340 346 348 346 344 342 340 343 340 336 335 339 336 338 334 334 335 341 339 331 336 338 336 341 340 341 344 347 347 348
335 337 340 340 340 341 343 350 351 353 350 345 336 338 348 345 345 342 338 335 337 334 332 335 326 325 329 335 336 337 337 336 329 332 334 336 335 338 346 344 344 344 346
345 344 340 343 345 348 348 342 340 340 343 346 348 348 345 345 343 333 328 328 327 331 329 327 326 323 324 324 325 324 329 325 323 332 332 333 333 335 337 346 345 346 345
337 339 344 344 345 345 345 339 339 338 342 342 343 345 346 344 342 333 327 327 335 332 328 326 325 321 321 324 323 322 315 318 319 329 329 332 328 332 335 342 344 344 344
336 337 338 336 337 337 341 338 337 336 333 335 337 335 336 345 346 336 335 336 340 333 327 325 323 319 316 320 325 322 313 311 317 323 327 331 335 337 336 343 343 344 342
328 329 328 329 329 330 333 338 337 333 329 329 328 328 330 334 337 335 334 339 335 323 321 322 325 321 318 316 326 329 326 321 318 316 322 327 330 331 336 341 342 339 341
325 325 325 324 324 324 325 327 323 321 322 325 322 320 321 321 325 325 328 330 332 326 323 322 327 322 321 319 322 327 327 326 324 320 317 321 323 326 331 336 340 338 337
322 321 321 321 321 322 322 322 321 319 319 318 316 318 318 318 320 323 324 322 321 322 321 325 331 327 324 326 328 331 329 324 323 323 321 321 321 324 328 332 333 335 337

GFSSE_sfc_thetae_114.txt.gz
Theta_e
356 362 366 366 365 364 364 361 361 361 360 360 361 361 361 360 360 360 361 362 362 363 361 359 354 355 355 354 354 354 356 356 354 352 353 353 353 353 354 352 352 348 351
359 361 365 364 365 364 363 362 361 361 360 360 361 361 361 360 360 360 361 362 362 362 359 358 354 355 355 354 354 353 353 354 356 353 352 353 353 354 356 352 351 349 350
359 360 363 364 365 364 363 361 361 361 360 360 360 361 361 360 360 360 361 363 363 360 357 357 354 355 355 354 354 354 354 354 355 353 350 344 345 352 352 351 351 351 350
359 360 360 364 364 364 362 361 360 360 360 360 360 360 361 360 360 361 362 362 362 358 357 356 353 354 354 353 353 353 354 354 354 352 347 344 343 350 350 351 350 350 349
359 359 360 363 363 364 362 360 360 360 359 360 360 360 361 361 360 361 362 362 361 359 356 354 354 355 354 354 353 354 353 353 352 351 346 345 338 348 349 349 349 350 349
357 360 362 363 363 363 362 361 360 360 359 360 360 360 361 361 360 360 360 361 361 359 356 354 355 356 355 354 353 352 352 355 352 346 343 346 339 352 352 351 350 350 350
355 360 361 362 363 363 362 360 360 360 359 359 360 360 361 360 360 360 360 360 360 359 356 355 356 356 355 354 354 354 355 352 346 342 340 341 338 352 354 354 353 350 349
355 359 361 363 363 362 361 360 360 359 359 359 359 359 360 360 360 360 360 359 358 358 357 357 357 356 355 355 356 355 353 353 346 340 339 339 342 353 356 356 354 352 349
356 356 359 360 362 362 360 359 359 358 358 358 358 358 359 359 359 359 359 358 357 356 357 357 356 355 355 355 355 354 353 353 345 341 340 341 349 354 356 356 354 353 352
353 354 357 359 360 357 357 360 359 358 358 357 357 358 358 358 358 358 355 355 356 356 356 355 355 355 355 354 354 353 354 354 344 340 337 341 352 354 357 355 355 354 354
352 353 355 356 355 355 357 358 359 359 358 357 357 357 354 351 352 355 354 355 355 355 355 355 354 353 353 353 353 354 354 344 340 337 336 344 353 355 359 357 356 356 355
348 350 351 353 353 354 357 356 354 355 354 353 353 353 350 348 349 352 354 355 355 354 355 355 355 354 353 345 345 351 346 343 340 337 333 344 355 357 360 358 356 356 356
348 348 348 350 350 351 353 354 354 353 352 352 352 351 348 348 346 349 346 347 348 353 347 349 348 348 345 343 341 336 338 339 339 337 337 346 355 358 360 358 356 355 353
342 343 345 346 346 348 352 353 353 353 352 351 351 351 348 344 341 344 343 343 344 345 343 342 341 340 340 341 339 335 332 335 338 337 335 345 354 356 359 357 352 351 350
341 343 342 343 347 348 348 348 350 350 350 351 351 351 349 344 341 341 341 341 343 342 342 339 336 336 335 335 334 333 332 331 337 338 334 345 352 351 352 354 353 353 352
341 342 340 340 343 345 346 346 344 346 346 345 346 348 349 344 339 340 340 342 340 341 341 340 336 335 334 333 332 331 329 328 330 331 331 332 349 347 349 353 355 355 355
337 338 337 340 345 344 344 346 348 343 344 344 344 345 348 345 344 347 344 342 342 343 344 344 341 340 338 336 333 334 339 339 338 337 337 337 334 341 346 349 352 353 354
335 335 337 342 343 334 344 346 348 348 344 345 346 345 347 347 346 343 342 343 344 343 339 337 336 334 336 333 333 333 334 338 337 334 336 337 336 338 342 344 348 349 350
333 332 332 333 332 334 343 344 343 349 347 344 342 344 347 349 347 345 343 341 341 336 333 336 329 330 329 328 330 335 336 335 336 338 335 335 336 336 337 340 343 346 348
332 330 331 334 334 340 339 339 346 348 345 342 334 337 345 346 344 341 337 334 334 330 330 327 324 325 326 326 330 333 334 336 332 330 331 333 335 336 337 338 336 339 346
329 332 334 337 338 339 340 338 339 343 343 342 345 346 344 342 342 336 332 330 329 328 325 324 321 321 323 326 323 326 327 334 328 324 327 330 333 335 337 336 334 337 342
333 336 336 337 339 339 342 338 339 340 338 340 342 343 344 343 340 334 330 326 327 327 324 324 322 319 319 320 316 319 315 318 324 323 327 331 331 334 334 333 332 331 337
338 338 335 335 336 336 341 337 334 333 335 334 330 331 333 341 342 336 331 328 332 329 325 323 322 319 316 315 319 315 311 311 315 319 327 330 330 329 330 330 331 334 335
327 329 328 327 328 332 336 334 330 327 326 325 324 323 324 325 327 331 334 335 336 329 326 325 322 317 314 312 316 324 320 317 313 315 320 323 329 330 330 333 334 338 342
323 322 323 323 323 324 324 322 324 323 321 318 318 318 318 321 322 324 322 325 326 323 321 320 320 320 318 315 314 315 321 323 321 319 316 321 323 326 328 328 328 333 337
320 320 320 320 319 320 321 318 317 316 315 315 314 313 313 315 317 319 319 317 316 315 315 317 319 321 321 319 320 322 323 323 323 323 320 321 322 325 327 326 327 331 333

GFSSE_sfc_thetae_117.txt.gz
Theta_e
353 360 365 365 363 363 362 360 361 361 361 362 361 361 361 360 360 360 360 361 361 361 359 355 354 355 354 354 354 354 356 355 354 355 355 354 354 353 353 352 351 348 349
356 361 364 365 364 362 362 360 360 360 360 361 361 360 360 359 360 360 361 362 362 359 358 354 354 355 354 353 353 353 353 354 355 353 353 353 354 353 352 351 351 348 350
356 360 362 364 363 362 361 361 360 360 359 359 360 359 359 359 360 361 361 362 361 359 358 354 354 354 354 353 352 352 353 353 354 352 352 345 347 354 351 350 351 350 349
357 359 360 364 364 362 360 361 360 360 359 359 359 359 359 359 359 360 362 361 359 357 356 354 354 354 353 353 353 353 353 353 353 351 342 343 345 351 350 350 350 350 349
356 358 360 364 363 361 360 360 359 359 358 359 359 359 359 359 360 361 361 361 358 356 355 353 353 354 353 353 352 354 354 354 352 350 345 344 336 347 350 350 349 349 348
355 357 362 363 362 362 359 359 360 359 359 359 359 359 359 358 359 360 361 361 359 357 353 352 353 354 354 353 353 351 351 354 352 343 342 344 341 349 350 349 349 351 350
355 357 360 362 362 361 359 359 359 359 359 359 359 359 358 359 359 359 360 360 359 357 354 352 353 354 354 353 351 352 354 351 345 340 338 340 343 348 352 352 351 350 349
355 357 358 362 361 360 360 360 359 358 358 359 359 359 359 359 359 359 359 359 358 357 355 354 353 353 353 354 354 355 353 350 345 340 338 337 341 349 352 356 355 351 349
357 356 357 358 360 361 360 359 359 358 358 358 358 358 358 359 359 359 358 358 356 356 356 356 355 354 354 354 354 354 353 351 343 341 340 338 346 351 352 357 355 353 351
354 356 355 357 357 356 356 359 358 358 357 357 357 357 357 358 358 358 355 355 355 354 355 354 354 354 353 353 353 353 353 352 341 338 337 335 349 351 352 357 357 355 353
351 353 354 355 355 355 354 357 358 358 357 357 357 357 354 350 352 353 354 355 355 354 354 354 354 353 353 353 353 353 353 344 341 338 335 341 348 353 354 358 356 355 355
346 349 352 352 351 353 356 354 352 353 353 352 352 352 349 347 347 351 353 355 355 354 354 354 354 353 352 344 342 345 342 341 340 338 335 343 347 353 357 358 358 356 355
348 349 350 351 351 351 351 353 353 352 351 350 351 350 347 346 347 347 346 348 347 352 346 350 349 347 344 342 341 338 336 334 335 337 338 346 346 350 357 359 359 357 356
346 347 349 348 349 350 351 351 351 351 350 349 350 349 346 343 341 342 343 342 343 345 343 342 341 340 340 340 339 337 334 331 331 334 336 345 346 349 355 360 360 358 355
344 344 346 347 348 347 350 351 351 351 350 349 349 350 348 345 342 342 343 342 342 342 342 339 337 336 335 334 334 332 331 329 328 331 333 341 345 348 353 358 359 358 354
343 342 343 346 344 341 342 347 349 349 349 349 349 350 349 344 342 341 341 341 341 342 339 339 337 335 333 332 332 333 332 335 336 335 335 334 343 343 347 349 351 353 357
342 343 341 344 344 343 344 345 343 344 347 347 346 348 349 345 340 339 340 340 341 341 339 340 339 337 333 335 333 333 334 338 337 336 336 336 337 341 344 345 346 348 349
341 340 341 344 341 339 343 345 345 343 342 343 343 343 346 346 344 342 342 340 342 340 338 337 335 334 333 331 329 332 335 338 337 336 336 336 335 335 339 344 346 348 350
339 339 338 338 337 335 341 342 343 345 343 344 344 342 343 345 345 342 340 340 340 336 335 334 327 329 327 325 325 328 332 332 335 337 336 335 335 335 335 338 344 346 348
337 338 335 331 329 333 339 339 342 345 342 340 340 342 345 346 344 342 335 336 334 331 330 327 324 326 326 324 329 330 330 332 332 332 333 335 335 335 335 336 336 337 341
333 329 328 329 330 335 334 336 337 334 337 338 336 338 343 343 342 337 332 330 329 327 326 325 323 322 322 323 322 320 322 325 327 329 325 325 326 329 332 335 336 336 336
330 329 329 332 335 335 336 337 338 337 335 338 338 339 341 342 339 334 330 327 326 324 323 322 320 318 318 320 315 314 310 313 317 324 324 324 324 328 332 333 334 334 332
327 329 332 332 334 335 338 334 332 334 332 327 326 327 331 335 340 335 331 327 327 325 322 322 321 319 316 314 314 312 306 305 311 316 317 320 324 328 330 331 331 333 332
328 328 329 334 333 337 336 330 330 327 323 320 319 320 322 324 325 330 335 332 334 329 329 329 327 318 313 310 312 318 316 314 309 309 316 319 322 324 326 327 327 329 331
324 322 322 323 324 325 326 327 326 320 319 317 316 317 317 318 320 320 319 321 320 321 320 319 319 317 318 318 316 313 315 318 319 318 315 318 321 322 324 328 330 332 333
320 319 319 320 319 319 320 320 318 316 316 314 312 313 313 313 314 315 316 314 312 312 312 312 313 313 313 315 317 319 320 320 320 319 317 317 318 323 326 327 327 325 328

GFSSE_sfc_thetae_120.txt.gz
Theta_e
350 359 362 362 364 363 362 362 362 362 362 363 363 363 363 361 361 360 360 361 362 362 357 355 356 356 356 355 356 356 357 356 356 355 353 352 351 350 351 350 350 347 348
354 360 363 362 363 362 362 362 362 362 361 361 362 361 361 360 360 360 361 361 361 360 356 355 355 354 353 354 354 353 353 355 356 355 354 354 353 352 351 350 350 348 348
355 359 360 363 363 362 361 361 361 361 361 360 360 360 360 360 360 360 361 362 361 359 355 354 354 353 353 353 353 353 353 354 355 354 353 349 352 352 350 350 350 349 349
356 359 360 363 363 361 361 360 360 360 360 359 359 359 359 360 360 361 361 361 359 358 355 354 355 354 353 353 352 352 353 353 353 349 344 347 349 352 350 350 350 349 349
356 358 360 363 362 361 360 360 359 359 359 359 358 358 359 360 360 360 361 360 357 356 355 353 354 353 353 352 353 355 356 356 353 351 348 345 342 349 350 350 350 349 349
355 358 360 361 361 361 360 359 359 358 359 358 358 358 358 359 360 360 361 359 358 355 354 353 354 354 354 352 353 353 353 354 350 344 345 346 346 348 350 351 350 350 349
353 358 358 361 361 361 360 359 359 359 358 359 358 358 358 358 359 360 360 360 358 356 353 353 353 354 354 353 352 353 353 351 347 342 341 342 345 347 352 351 351 352 351
354 358 358 362 361 360 360 359 359 358 358 358 358 358 358 358 359 359 359 359 358 356 354 353 353 353 351 352 353 353 353 350 346 344 342 342 344 349 351 354 355 354 351
356 356 357 358 359 360 359 359 358 358 357 357 357 357 358 358 358 358 358 357 357 356 356 355 354 353 352 353 353 353 352 350 347 344 342 340 345 349 351 355 355 355 353
354 354 355 356 356 355 356 359 358 358 357 356 357 357 357 358 358 358 355 355 355 354 354 354 353 353 352 352 352 352 353 351 345 342 342 340 346 350 353 355 357 357 355
350 351 353 354 353 354 354 356 357 357 357 357 357 357 354 353 355 356 354 355 355 354 354 353 353 352 352 352 352 352 352 347 344 343 341 342 346 347 354 357 357 358 356
346 349 352 351 351 352 354 353 352 353 353 352 353 353 350 349 350 353 354 355 355 354 354 354 353 352 352 347 344 346 341 340 339 339 339 344 347 347 351 356 357 358 357
346 348 351 350 350 351 352 351 352 352 350 350 350 349 347 347 349 350 349 352 351 353 348 351 351 350 348 345 343 342 340 338 337 337 338 344 347 347 349 353 357 359 358
345 347 349 350 350 350 351 350 350 350 349 348 349 348 346 345 345 346 346 346 347 347 346 345 344 343 343 342 342 340 339 337 335 335 336 343 346 345 347 351 356 359 359
345 346 348 349 350 350 350 350 349 350 349 349 350 350 348 345 343 344 345 345 344 345 345 343 342 341 340 338 338 337 336 334 333 333 334 338 344 345 346 349 353 359 360
346 345 347 348 349 350 349 349 349 349 349 349 349 350 348 346 343 342 343 343 343 344 344 344 342 340 339 337 336 336 336 336 339 339 339 339 342 343 344 345 347 351 354
346 345 345 347 347 344 340 344 347 348 349 348 348 350 349 346 344 343 342 342 343 344 343 342 341 339 337 337 336 336 336 337 339 340 339 338 339 343 343 345 347 348 350
344 342 344 347 346 339 342 343 342 345 345 345 346 348 350 347 344 341 341 342 343 343 342 341 339 337 336 335 335 336 340 340 340 340 338 338 338 338 340 344 346 348 350
342 342 341 343 340 339 342 344 343 343 342 344 344 344 345 347 346 342 343 343 343 340 340 338 334 335 334 331 330 331 332 335 336 337 337 338 338 339 338 339 342 343 345
341 339 338 334 333 339 341 341 344 344 343 342 340 341 342 345 345 343 341 340 340 337 336 334 332 330 330 329 329 330 332 333 334 335 334 335 336 336 336 337 338 336 339
334 335 331 329 330 334 335 337 338 339 337 337 338 340 342 344 343 338 337 336 334 333 332 330 328 327 328 327 326 326 324 327 327 329 332 331 330 331 331 334 336 337 338
333 331 328 330 330 333 335 337 338 337 338 341 341 340 342 342 338 337 333 333 332 330 328 327 326 323 323 324 323 318 315 318 319 324 327 327 328 329 330 332 335 337 338
329 328 329 331 332 333 335 335 335 334 332 329 330 330 332 338 337 334 332 330 329 327 326 325 325 324 322 320 320 320 314 311 315 320 324 324 326 327 329 332 333 335 336
325 329 331 332 333 334 335 334 333 331 324 323 322 324 324 327 329 334 334 333 332 331 329 329 327 325 320 317 319 319 319 319 314 313 320 324 328 328 329 329 331 333 335
327 327 327 328 329 334 334 332 325 319 318 317 319 318 318 319 320 319 319 318 317 317 318 318 319 321 322 321 319 320 320 321 320 316 314 319 325 328 328 329 330 332 336
321 320 321 321 319 321 323 323 320 318 316 315 315 314 315 314 314 316 316 315 315 314 314 314 314 315 314 315 316 317 317 316 316 314 313 313 314 318 323 325 327 328 331